[[{"header":{"parameterUnit":"m.s-1","parameterCategory":1,"la1":30.6,"la2":29.2853,"lo1":-89.7004,"lo2":-87.6739,"dy":0.0162,"dx":0.0183,"nx":112,"ny":82,"refTime":"2023-11-04T00:00:00:Z","depth":0,"parameterNumber":2,"parameterNumberName":"U-component_of_WINDS"},"data":[0.0,0.0,0.0,0.0,0.0,0.0,0.0,0.0,0.0,0.0,0.0,0.0,0.0,0.0,0.0,0.0,0.0,0.0,0.0,0.0,0.0,0.0,0.0,0.0,0.0,0.0,0.0,0.0,0.0,0.0,0.0,0.0,0.0,0.0,0.0,0.0,0.0,0.0,0.0,0.0,0.0,0.0,0.0,0.0,0.0,0.0,0.0,0.0,0.0,0.0,0.0,0.0,0.0,0.0,0.0,0.0,0.0,0.0,0.0,0.0,0.0,0.0,0.0,0.0,0.0,0.0,0.0,0.0,0.0,0.0,0.0,0.0,0.0,0.0,0.0,0.0,0.0,0.0,0.0,0.0,0.0,0.0,0.0,0.0,0.0,0.0,0.0,0.0,0.0,0.0,0.0,1.5013,1.7186,1.8022,1.733,1.6344,1.5844,1.6023,0.0,0.0,0.0,0.0,0.0,0.0,0.0,0.0,0.0,0.0,0.0,0.0,0.0,0.0,0.0,0.0,0.0,0.0,0.0,0.0,0.0,0.0,0.0,0.0,0.0,0.0,0.0,0.0,0.0,0.0,0.0,0.0,0.0,0.0,0.0,0.0,0.0,0.0,0.0,0.0,0.0,0.0,0.0,0.0,0.0,0.0,0.0,0.0,0.0,0.0,0.0,0.0,0.0,0.0,0.0,0.0,0.0,0.0,0.0,0.0,0.0,0.0,0.0,0.0,0.0,0.0,0.0,0.0,0.0,0.0,0.0,0.0,0.0,0.0,0.0,0.0,0.0,0.0,0.0,0.0,0.0,0.0,0.0,0.0,0.0,0.0,0.0,0.0,0.0,0.0,0.0,0.0,0.0,0.0,0.0,0.0,0.0,0.0,0.0,0.0,0.0,0.0,0.0,0.0,1.2167,1.7541,2.0085,2.0852,1.9458,1.8314,1.7505,1.7022,0.0,0.0,0.0,0.0,0.0,0.0,0.0,0.0,0.0,0.0,0.0,0.0,0.0,0.0,0.0,0.0,0.0,0.0,0.0,0.0,0.0,0.0,0.0,0.0,0.0,0.0,0.0,0.0,0.0,0.0,0.0,0.0,0.0,0.0,0.0,0.0,0.0,0.0,0.0,0.0,0.0,0.0,0.0,0.0,0.0,0.0,0.0,0.0,0.0,0.0,0.0,0.0,0.0,0.0,0.0,0.0,0.0,0.0,0.0,0.0,0.0,0.0,0.0,0.0,0.0,0.0,0.0,0.0,0.0,0.0,0.0,0.0,0.0,0.0,0.0,0.0,0.0,0.0,0.0,0.0,0.0,0.0,0.0,0.0,0.0,0.0,0.0,0.0,0.0,0.0,0.0,0.0,0.0,0.0,0.0,0.0,0.0,0.0,0.0,0.0,0.0,0.0,0.0,1.3432,1.6412,1.9741,2.1677,2.2062,2.0415,1.9456,1.8797,1.8513,1.8686,0.0,0.0,0.0,0.0,0.0,0.0,0.0,0.0,0.0,0.0,0.0,0.0,0.0,0.0,0.0,0.0,0.0,0.0,0.0,0.0,0.0,0.0,0.0,0.0,0.0,0.0,0.0,0.0,0.0,0.0,0.0,0.0,0.0,0.0,0.0,0.0,0.0,0.0,0.0,0.0,0.0,0.0,0.0,0.0,0.0,0.0,0.0,0.0,0.0,0.0,0.0,0.0,0.0,0.0,0.0,0.0,0.0,0.0,0.0,0.0,0.0,0.0,0.0,0.0,0.0,0.0,0.0,0.0,0.0,0.0,0.0,0.0,0.0,0.0,0.0,0.0,0.0,0.0,0.0,0.0,0.0,0.0,0.0,0.0,0.0,0.0,0.0,0.0,0.0,0.0,0.0,0.0,0.0,0.0,0.0,0.0,0.0,0.0,0.0,0.0,0.0,0.0,1.7413,1.9975,2.1552,2.2559,2.2553,2.1128,2.011,1.9636,1.9636,1.9429,0.0,0.0,0.0,0.0,0.0,0.0,0.0,0.0,0.0,0.0,0.0,0.0,0.0,0.0,0.0,0.0,0.0,0.0,0.0,0.0,0.0,0.0,0.0,0.0,0.0,0.0,0.0,0.0,0.0,0.0,0.0,0.0,0.0,0.0,0.0,0.0,0.0,0.0,0.0,0.0,0.0,0.0,0.0,0.0,0.0,0.0,0.0,0.0,0.0,0.0,0.0,0.0,0.0,0.0,0.0,0.0,0.0,0.0,0.0,0.0,0.0,0.0,0.0,0.0,0.0,0.0,0.0,0.0,0.0,0.0,0.0,0.0,0.0,0.0,0.0,0.0,0.0,0.0,0.0,0.0,0.0,0.0,0.0,0.0,0.0,0.0,0.0,0.0,0.0,0.0,0.0,0.0,0.0,0.0,0.0,0.0,0.0,0.0,0.0,0.0,0.0,0.0,1.8577,2.0898,2.2766,2.279,2.2398,2.186,2.0476,1.9636,1.966,1.9456,0.0,0.0,0.0,0.0,0.0,0.0,0.0,0.0,0.0,0.0,0.0,0.0,0.0,0.0,0.0,0.0,0.0,0.0,0.0,0.0,0.0,0.0,0.0,0.0,0.0,0.0,0.0,0.0,0.0,0.0,0.0,0.0,0.0,0.0,0.0,0.0,0.0,0.0,0.0,0.0,0.0,0.0,0.0,0.0,0.0,0.0,0.0,0.0,0.0,0.0,0.0,0.0,0.0,0.0,0.0,0.0,0.0,0.0,0.0,0.0,0.0,0.0,0.0,0.0,0.0,0.0,0.0,0.0,0.0,0.0,0.0,0.0,0.0,0.0,0.0,0.0,0.0,0.0,0.0,0.0,0.0,0.0,0.0,0.0,0.0,0.0,0.0,0.0,0.0,0.0,0.0,0.0,0.0,0.0,0.0,0.0,0.0,0.0,0.0,0.0,0.0,0.0,1.9637,2.1481,0.0,2.3474,2.3151,2.2427,2.1417,2.0634,2.0089,0.0,0.0,0.0,0.0,0.0,0.0,0.0,0.0,0.0,0.0,0.0,0.0,0.0,0.0,0.0,0.0,0.0,0.0,0.0,0.0,0.0,0.0,0.0,0.0,0.0,0.0,0.0,0.0,0.0,0.0,0.0,0.0,0.0,0.0,0.0,0.0,0.0,0.0,0.0,0.0,0.0,0.0,0.0,0.0,0.0,0.0,0.0,0.0,0.0,0.0,0.0,0.0,0.0,0.0,0.0,0.0,0.0,0.0,0.0,0.0,0.0,0.0,0.0,0.0,0.0,0.0,0.0,0.0,0.0,0.0,0.0,0.0,0.0,0.0,0.0,0.0,0.0,0.0,0.0,0.0,0.0,0.0,0.0,0.0,0.0,0.0,0.0,0.0,0.0,0.0,0.0,0.0,0.0,0.0,0.0,0.0,0.0,0.0,0.0,0.0,0.0,0.0,1.8673,2.0447,2.2001,0.0,2.3966,2.3637,2.2758,2.1888,2.1054,2.0333,0.0,0.0,0.0,0.0,0.0,0.0,0.0,0.0,0.0,0.0,0.0,0.0,0.0,0.0,0.0,0.0,0.0,0.0,0.0,0.0,0.0,0.0,0.0,0.0,0.0,0.0,0.0,0.0,0.0,0.0,0.0,0.0,0.0,0.0,0.0,0.0,0.0,0.0,0.0,0.0,0.0,0.0,0.0,0.0,0.0,0.0,0.0,0.0,0.0,0.0,0.0,0.0,0.0,0.0,0.0,0.0,0.0,0.0,0.0,0.0,0.0,0.0,0.0,0.0,0.0,0.0,0.0,0.0,0.0,0.0,0.0,0.0,0.0,0.0,0.0,0.0,0.0,0.0,0.0,0.0,0.0,0.0,0.0,0.0,0.0,0.0,0.0,0.0,0.0,0.0,0.0,0.0,0.0,0.0,0.0,0.0,0.0,0.0,0.0,0.0,0.0,0.0,1.9004,2.0863,2.2588,2.433,2.4182,2.3697,2.2976,2.1635,2.0702,0.0,0.0,0.0,0.0,0.0,0.0,0.0,0.0,0.0,0.0,0.0,0.0,0.0,0.0,0.0,0.0,0.0,0.0,0.0,0.0,0.0,0.0,0.0,0.0,0.0,0.0,0.0,0.0,0.0,0.0,0.0,0.0,0.0,0.0,0.0,0.0,0.0,0.0,0.0,0.0,0.0,0.0,0.0,0.0,0.0,0.0,0.0,0.0,0.0,0.0,0.0,0.0,0.0,0.0,0.0,0.0,0.0,0.0,0.0,0.0,0.0,0.0,0.0,0.0,0.0,0.0,0.0,0.0,0.0,0.0,0.0,0.0,0.0,0.0,0.0,0.0,0.0,0.0,0.0,0.0,0.0,0.0,0.0,0.0,0.0,0.0,0.0,0.0,0.0,0.0,0.0,0.0,0.0,0.0,0.0,0.0,0.0,0.0,0.0,0.0,0.0,0.0,0.0,1.9682,2.1148,2.2553,2.433,2.4399,2.4082,2.3394,2.2573,2.2006,2.1602,0.0,0.0,0.0,0.0,0.0,0.0,0.0,0.0,0.0,0.0,0.0,0.0,0.0,0.0,0.0,0.0,0.0,0.0,0.0,0.0,0.0,0.0,0.0,0.0,0.0,0.0,0.0,0.0,0.0,0.0,0.0,0.0,0.0,0.0,0.0,0.0,0.0,0.0,0.0,0.0,0.0,0.0,0.0,0.0,0.0,0.0,0.0,0.0,0.0,0.0,0.0,0.0,0.0,0.0,0.0,0.0,0.0,0.0,0.0,0.0,0.0,0.0,0.0,0.0,0.0,0.0,0.0,0.0,0.0,0.0,0.0,0.0,0.0,0.0,0.0,0.0,0.0,0.0,0.0,0.0,0.0,0.0,0.0,0.0,0.0,0.0,0.0,0.0,0.0,0.0,0.0,0.0,0.0,0.0,0.0,0.0,0.0,0.0,0.0,0.0,0.0,0.0,2.0002,2.1456,2.2845,2.4452,2.4539,2.426,2.3684,2.3059,2.2485,2.1927,0.0,0.0,0.0,0.0,0.0,0.0,0.0,0.0,0.0,0.0,0.0,0.0,0.0,0.0,0.0,0.0,0.0,0.0,0.0,0.0,0.0,0.0,0.0,0.0,0.0,0.0,0.0,0.0,0.0,0.0,0.0,0.0,0.0,0.0,0.0,0.0,0.0,0.0,0.0,0.0,0.0,0.0,0.0,0.0,0.0,0.0,0.0,0.0,0.0,0.0,0.0,0.0,0.0,0.0,0.0,0.0,0.0,0.0,0.0,0.0,0.0,0.0,0.0,0.0,0.0,0.0,0.0,0.0,0.0,0.0,0.0,0.0,0.0,0.0,0.0,0.0,0.0,0.0,0.0,0.0,0.0,0.0,0.0,0.0,0.0,0.0,0.0,0.0,0.0,0.0,0.0,0.0,0.0,0.0,0.0,0.0,0.0,0.0,0.0,0.0,0.0,0.0,2.0034,2.174,2.325,2.4633,2.4626,2.4317,2.386,2.314,2.2432,2.1702,0.0,0.0,0.0,0.0,0.0,0.0,0.0,0.0,0.0,0.0,0.0,0.0,0.0,0.0,0.0,0.0,0.0,0.0,0.0,0.0,0.0,0.0,0.0,0.0,0.0,0.0,0.0,0.0,0.0,0.0,0.0,0.0,0.0,0.0,0.0,0.0,0.0,0.0,0.0,0.0,0.0,0.0,0.0,0.0,0.0,0.0,0.0,0.0,0.0,0.0,0.0,0.0,0.0,0.0,0.0,0.0,0.0,0.0,0.0,0.0,-2.9218,0.0,0.0,0.0,0.0,0.0,0.0,0.0,0.0,0.0,0.0,0.0,0.0,0.0,0.0,0.0,0.0,0.0,0.0,0.0,0.0,0.0,0.0,0.0,0.0,0.0,0.0,0.0,0.0,0.0,0.0,0.0,0.0,0.0,0.0,0.0,0.0,0.0,0.0,0.0,0.0,0.0,2.0034,2.1702,2.318,2.4645,2.4758,2.4486,2.3842,2.3378,2.2762,2.204,0.0,0.0,0.0,0.0,0.0,0.0,0.0,0.0,0.0,0.0,0.0,0.0,0.0,0.0,0.0,0.0,0.0,0.0,0.0,0.0,0.0,0.0,0.0,0.0,0.0,0.0,0.0,0.0,0.0,0.0,0.0,0.0,0.0,0.0,0.0,0.0,0.0,0.0,0.0,0.0,0.0,0.0,0.0,0.0,0.0,0.0,0.0,0.0,0.0,0.0,0.0,0.0,0.0,0.0,0.0,0.0,0.0,0.0,0.0,0.0,0.0,-2.9545,0.0,0.0,0.0,0.0,0.0,0.0,0.0,0.0,0.0,0.0,0.0,0.0,0.0,0.0,0.0,0.0,0.0,0.0,0.0,0.0,0.0,0.0,0.0,0.0,0.0,0.0,0.0,0.0,0.0,0.0,0.0,0.0,0.0,0.0,0.0,0.0,0.0,0.0,0.0,0.0,1.9834,2.1225,2.2483,2.3832,2.4207,2.3962,2.2963,2.3164,2.2823,2.1583,2.182,0.0,0.0,0.0,0.0,0.0,0.0,0.0,0.0,0.0,0.0,0.0,0.0,0.0,0.0,0.0,0.0,0.0,0.0,0.0,0.0,0.0,0.0,0.0,0.0,0.0,0.0,0.0,0.0,0.0,0.0,0.0,0.0,0.0,0.0,0.0,0.0,0.0,0.0,0.0,0.0,0.0,0.0,0.0,0.0,0.0,0.0,0.0,0.0,0.0,0.0,0.0,0.0,0.0,0.0,-2.8146,-2.676,-2.7848,-2.7344,-2.58,-2.9302,-3.0324,-2.9459,0.0,0.0,0.0,0.0,0.0,0.0,0.0,0.0,0.0,0.0,0.0,0.0,0.0,0.0,0.0,0.0,0.0,0.0,0.0,0.0,0.0,0.0,0.0,0.0,0.0,-1.35,-1.0807,0.0,0.0,0.0,0.0,0.0,0.0,0.0,0.0,0.0,0.0,0.0,0.0,1.9485,2.0545,2.1601,2.298,2.3425,2.3172,2.202,2.2666,2.2509,2.1027,2.1231,2.0644,0.0,0.0,0.0,0.0,0.0,0.0,0.0,0.0,0.0,0.0,0.0,0.0,0.0,0.0,0.0,0.0,0.0,0.0,0.0,0.0,0.0,0.0,0.0,0.0,0.0,0.0,0.0,0.0,0.0,0.0,0.0,0.0,-2.7874,-2.8556,0.0,0.0,0.0,0.0,0.0,0.0,0.0,0.0,0.0,0.0,0.0,0.0,0.0,0.0,-2.4467,-2.449,-2.4677,-2.521,-2.5793,-2.6299,-2.6519,-2.6703,-2.6623,-2.6439,-2.7758,0.0,-3.0999,-2.9129,0.0,0.0,0.0,0.0,0.0,0.0,0.0,0.0,0.0,0.0,0.0,0.0,0.0,0.0,0.0,0.0,0.0,0.0,0.0,0.0,0.0,0.0,-1.5491,-1.482,-1.4388,-1.3705,0.0,-0.7825,-0.3369,-0.0069,0.0,0.0,0.0,0.0,0.0,0.0,0.0,0.0,1.8779,1.9848,2.1027,2.2903,2.2793,2.2479,2.2096,2.1919,2.1617,2.1112,2.0671,2.0237,1.9688,1.79,0.0,0.0,0.0,0.0,0.0,0.0,0.0,0.0,0.0,0.0,0.0,0.0,0.0,0.0,0.0,0.0,0.0,0.0,0.0,0.0,0.0,0.0,0.0,0.0,0.0,0.0,0.0,0.0,0.0,-2.4778,-2.7627,-2.6477,-2.7436,-2.6746,0.0,0.0,0.0,0.0,0.0,0.0,0.0,0.0,0.0,-2.125,-2.041,-2.0701,-2.2149,-2.3042,-2.3885,-2.4729,-2.4923,-2.4828,-2.4555,-2.4471,-2.3705,-2.2621,-2.4303,-2.5157,-2.5569,-2.709,-2.5111,-2.124,0.0,0.0,0.0,0.0,0.0,-1.9574,-2.0022,0.0,0.0,0.0,0.0,0.0,0.0,0.0,0.0,0.0,0.0,0.0,0.0,0.0,0.0,-1.3825,-1.2962,-1.2147,-1.2298,-0.9479,-0.6132,0.0,0.0209,0.3305,0.4904,0.0,0.0,0.0,0.0,0.0,1.7827,1.8808,1.9853,2.129,2.1577,2.147,2.1064,2.1531,2.1629,2.1028,2.0542,2.0016,1.944,1.7555,1.5258,0.0,0.0,0.0,0.0,0.0,0.0,0.0,0.0,0.0,0.0,0.0,0.0,0.0,0.0,0.0,0.0,0.0,0.0,0.0,0.0,0.0,0.0,0.0,0.0,0.0,0.0,0.0,0.0,-2.4776,-2.6439,-2.471,-2.6443,-2.5876,0.0,0.0,0.0,0.0,0.0,0.0,-1.6759,-1.8988,-2.0066,-1.9552,-1.8752,-1.8899,-2.0148,-2.136,-2.239,-2.3068,-2.3068,-2.2683,-2.1881,-2.1806,-2.0869,-1.9396,-2.1134,-2.1101,-2.0179,-2.4045,-2.3387,-2.0037,-2.0937,-2.0157,-1.8772,-2.0438,-1.9913,-1.8456,-1.9193,-1.8752,-1.7568,-1.5613,0.0,-1.3335,-1.1473,0.0,0.0,0.0,0.0,-1.2644,-1.2263,0.0,-1.1467,-1.223,-1.1329,-1.0332,-1.0841,-0.9252,-0.7258,0.0,-0.1537,0.1986,0.3522,0.0,0.0,0.0,0.0,1.5176,1.6811,1.7788,1.8757,1.9898,2.0375,2.0487,2.019,2.1046,2.1407,2.0914,2.0637,2.0157,1.9338,1.7839,1.548,1.2158,0.0,0.0,0.0,0.0,0.0,0.0,0.0,0.0,0.0,0.0,0.0,0.0,0.0,0.0,0.0,0.0,0.0,0.0,0.0,0.0,0.0,0.0,0.0,0.0,0.0,0.0,0.0,0.0,0.0,-2.5422,-2.5948,0.0,0.0,0.0,0.0,-1.8031,-1.7316,-1.6557,-1.5884,-1.7048,-1.7973,-1.833,-1.8604,-1.8935,-1.9129,-1.9234,-1.9154,-1.8887,-1.8887,-1.8887,-1.8801,-1.8801,-1.8715,-1.8662,-1.91,-1.8737,-1.8013,-2.0039,-1.9817,-1.8298,-1.837,-1.8973,-1.9661,-1.8784,-1.8589,-1.8781,-1.8814,-1.8814,-1.8596,-1.7735,-1.5481,-1.2675,-1.0947,-1.1209,0.0,0.0,-1.0947,-1.1805,-1.0649,-1.0282,-1.022,-1.0069,-1.0115,-0.9888,-0.883,-0.7553,-0.6402,0.0,-0.3174,-0.0428,0.3197,0.0,0.722,0.9838,1.1921,1.3852,1.5735,1.6963,1.8134,1.9406,1.956,1.9731,2.007,2.0232,2.0432,2.0794,2.1028,2.0751,1.9889,1.9825,1.7869,1.376,1.3725,0.0,0.0,0.0,0.0,0.0,0.0,0.0,0.0,0.0,0.0,0.0,0.0,0.0,0.0,0.0,0.0,0.0,0.0,0.0,0.0,0.0,0.0,0.0,0.0,0.0,0.0,0.0,0.0,-2.1718,-2.2533,0.0,0.0,-1.5581,-1.4878,-1.4176,-1.409,-1.3615,-1.2548,-1.2711,-1.3282,-1.4062,-1.4097,-1.4101,-1.4191,-1.4977,-1.528,-1.5171,-1.5171,-1.5171,-1.5171,-1.4999,-1.495,-1.495,-1.485,-1.5463,-1.6401,-1.5888,-1.6007,-1.664,-1.6639,-1.6876,-1.7236,-1.6795,-1.6225,-1.5498,-1.4641,-1.4358,-1.4321,-1.3716,-1.2677,-1.1279,-0.9842,-0.974,-0.9761,-0.832,-0.8875,-0.9644,-0.8876,-0.8269,-0.7777,-0.7476,-0.6492,-0.5544,-0.5116,-0.4244,-0.3246,-0.2273,-0.1416,-0.0137,0.222,0.4347,0.6721,0.9658,1.1301,1.2868,1.4602,1.5765,1.6874,1.7963,1.8339,1.8845,1.9666,1.9742,2.0064,2.083,2.1319,2.1378,2.0873,1.9159,1.5569,1.0044,0.968,0.7286,0.0,0.0,0.0,0.0,0.0,0.0,0.0,0.0,0.0,0.0,0.0,0.0,0.0,0.0,0.0,0.0,0.0,0.0,0.0,0.0,0.0,0.0,0.0,0.0,0.0,0.0,-1.9235,-1.776,-1.8541,-1.756,-1.3311,-1.2855,-1.2619,-1.2098,-1.2245,-1.196,-1.1009,-1.0868,-1.1065,-1.1589,-1.1907,-1.1882,-1.1343,-1.2968,-1.3266,-1.2426,-1.2426,-1.2526,-1.2815,-1.235,-1.2002,-1.1722,-1.1796,-1.2768,-1.4393,-1.4056,-1.4013,-1.4295,-1.5351,-1.5792,-1.5806,-1.5752,-1.521,-1.4351,-1.3014,-1.2224,-1.1672,-1.093,-1.025,-0.9552,-0.8159,-0.7474,-0.6974,-0.5984,-0.6248,-0.6812,-0.6331,-0.5841,-0.5306,-0.5045,-0.3804,-0.2596,-0.2485,-0.162,-0.0697,0.0,0.0067,0.0661,0.2516,0.4477,0.6743,0.9475,1.1204,1.2629,1.3895,1.4955,1.5919,1.6767,1.7288,1.7902,1.8617,1.8771,1.8868,1.8983,1.9618,1.9457,1.8198,1.6302,1.266,0.7074,0.4559,0.131,-0.2776,0.0,0.0,0.0,0.0,0.0,0.0,0.0,0.0,0.0,0.0,0.0,0.0,0.0,0.0,0.0,0.0,0.0,0.0,0.0,0.0,0.0,0.0,0.0,-1.457,-1.4158,-1.3951,-1.4072,-1.4229,-1.352,-1.1609,-1.157,-1.1648,-1.1648,-1.1648,-1.1549,-1.1427,-1.1502,-1.1392,-1.1354,-1.2359,-1.2248,-1.1028,-1.3246,-1.3025,-1.0433,-1.0433,-1.0809,-1.1554,-1.0809,-1.0067,-0.9434,-1.019,-1.0916,-1.188,-1.4359,-1.3585,-1.1037,-1.4337,-1.5582,-1.5678,-1.5573,-1.5534,-1.5197,-1.3872,-1.2549,-1.1189,-0.9757,-0.8567,-0.7389,-0.5958,-0.4727,-0.3784,-0.3463,-0.3399,-0.3363,-0.3206,-0.3092,-0.2976,-0.2822,-0.2194,-0.1559,-0.1285,-0.0067,0.1055,0.1161,0.1111,0.1757,0.4053,0.5636,0.728,0.94,1.1524,0.0,1.3628,1.4541,1.5382,1.5924,1.644,1.6815,1.7009,1.7247,1.6723,1.5165,1.5899,1.4972,1.1885,1.1482,0.933,0.5062,-0.1254,-0.4593,-0.4833,0.0,0.0,0.0,0.0,0.0,0.0,0.0,0.0,0.0,0.0,0.0,0.0,0.0,0.0,0.0,0.0,0.0,0.0,0.0,0.0,0.0,0.0,-0.9535,-0.9811,-1.077,-1.1745,-1.2467,-1.1707,-1.0618,-0.9091,-0.8103,-0.7205,-0.62,-0.6195,-0.6147,-0.6133,-0.6048,-0.6321,-0.7224,-0.6551,-0.6847,-0.8197,-0.717,-0.6523,-0.641,-0.6675,-0.6763,-0.677,-0.7672,-0.7952,-0.7782,-0.7952,-0.8185,-0.8359,-0.7335,-0.5398,-0.3556,-0.8284,-1.0943,-1.191,-1.0626,-0.8947,-0.715,-0.6834,-0.6412,-0.6,-0.5521,-0.5184,-0.478,-0.4335,-0.445,-0.4665,-0.4517,-0.4451,-0.4465,-0.4175,-0.2563,-0.0939,-0.0821,0.0268,0.1322,0.1434,0.2168,0.2985,0.343,0.4028,0.4624,0.5122,0.6804,0.8633,1.0238,0.0,0.0,1.3076,1.3774,1.4498,1.5322,1.5432,1.5505,1.5706,1.5007,1.3934,0.0,1.2976,1.2535,1.0862,0.8829,0.455,-0.2237,-0.6667,-0.8505,0.0,0.0,0.0,0.0,0.0,0.0,0.0,0.0,0.0,0.0,0.0,0.0,0.0,0.0,0.0,0.0,0.0,0.0,0.0,0.0,0.0,0.0,-0.7621,-0.6059,-0.5812,-0.6675,-0.7655,-0.847,-0.7892,-0.7198,-0.6399,-0.5613,-0.4806,-0.4072,-0.4,-0.3956,-0.3919,-0.4186,-0.4593,-0.528,-0.5116,-0.5082,-0.5087,-0.5082,-0.4816,-0.4287,-0.3476,-0.4105,-0.5735,-0.4643,-0.4105,0.0,-0.4108,-0.4702,-0.5465,-0.3049,-0.1744,0.0,0.0,0.0,0.0,0.0,-0.6645,-0.4831,-0.4747,-0.4411,-0.3891,-0.3769,-0.3345,-0.2945,-0.2849,-0.2629,-0.2254,-0.2173,-0.1897,-0.1552,-0.1337,-0.0145,0.1061,0.1165,0.2178,0.2943,0.2593,0.3564,0.4519,0.4415,0.0,0.0,0.6462,0.7913,0.9504,1.061,1.1693,1.2422,0.0,1.3009,1.3325,1.3649,1.368,1.3513,1.3084,1.2245,0.0,0.0,0.0,0.8035,0.5471,0.2438,0.0,0.0,0.0,-0.8558,0.0,0.0,0.0,0.0,-0.6682,-0.666,0.0,0.0,0.0,0.0,0.0,0.0,0.0,0.0,0.0,0.0,0.0,0.0,0.0,0.0,0.0,0.0,-0.5456,-0.4288,-0.2404,-0.2206,-0.2607,-0.3814,-0.4014,-0.3914,-0.3613,-0.3513,-0.339,-0.3139,-0.3174,-0.3226,-0.3057,0.0,0.0,0.0,0.0,-0.4802,-0.241,-0.4807,-0.5078,-0.3135,-0.116,-0.2319,-0.6192,-0.223,-0.0268,0.0,0.0,-0.12,-0.3054,-0.0851,-0.0867,-0.2345,-0.435,-0.5066,-0.516,-0.6709,-0.6446,0.0,0.0,0.0,0.0,-0.3054,-0.22,-0.1207,-0.1265,0.0082,0.1615,0.1576,0.2158,0.2797,0.2856,0.2904,0.2938,0.3128,0.3666,0.3877,0.3224,0.4604,0.5718,0.4974,0.6362,0.7717,0.7836,0.8933,1.0054,1.0712,1.2035,0.0,1.2315,1.2295,1.2162,1.1652,0.0,0.0,1.0095,0.935,0.8058,0.5966,0.5022,0.2721,-0.1351,-0.4498,-0.6237,-0.6388,-0.6545,-0.6014,-0.4677,-0.4257,-0.3622,-0.2803,-0.4672,-0.4574,0.0,0.0,0.0,0.0,0.0,0.0,0.0,0.0,0.0,0.0,0.0,0.0,0.0,0.0,0.0,-0.2943,-0.2647,-0.1807,0.0703,0.1105,-0.0201,-0.3613,-0.4014,-0.311,-0.1001,-0.0801,0.01,0.2294,0.1776,0.1453,0.1415,0.1117,0.0,0.0978,0.1333,0.0269,-0.2374,-0.0719,-0.018,-0.0734,0.0,0.0,-0.1436,-0.2419,-0.1806,0.0,0.0,-0.0284,-0.0665,-0.0197,0.0396,0.0587,-0.2938,-0.3629,-0.2645,-0.2988,-0.2296,-0.1143,-0.1121,-0.0277,0.0735,0.072,0.1498,0.2327,0.2274,0.1975,0.0,0.1568,0.1707,0.1838,0.1691,0.2749,0.406,0.4686,0.5366,0.6053,0.6564,0.6766,0.6956,0.7354,0.7586,0.7889,0.8487,0.9703,1.0645,1.0762,1.2024,1.2701,1.207,1.2004,1.195,1.1768,1.0831,0.9981,0.9408,0.7315,0.529,0.3664,0.1919,0.0327,-0.1156,-0.1828,-0.251,-0.3096,-0.3308,-0.3293,-0.3109,-0.314,-0.2731,-0.1867,-0.3102,-0.3031,0.0,0.0,0.0,0.0,0.0,0.0,0.0,0.0,0.0,0.0,0.0,-0.4652,0.0,0.0,-0.2434,0.0683,0.0496,0.0704,0.2714,0.3015,0.221,0.02,0.0,0.0501,0.1904,0.2004,0.2398,0.3273,0.3243,0.3394,0.3905,0.3728,0.3386,0.2984,0.4718,0.4538,0.2352,0.3083,0.2907,0.1816,0.127,0.1089,0.1364,0.055,0.0834,0.197,0.153,0.1834,0.2709,0.2189,0.2402,0.2674,0.0783,0.0291,0.0769,0.0762,0.1227,0.1777,0.1758,0.2198,0.2718,0.269,0.3084,0.3449,0.3374,0.3292,0.3214,0.3136,0.3473,0.381,0.3839,0.4787,0.5816,0.6149,0.6779,0.7375,0.7643,0.7779,0.7914,0.814,0.8343,0.8533,0.8778,0.9614,1.032,1.032,1.1183,1.1639,1.1113,1.106,1.069,0.9798,0.9262,0.849,0.7224,0.5345,0.3607,0.2115,0.0718,-0.0335,-0.1062,-0.1524,-0.1981,-0.234,-0.2559,-0.2479,-0.2025,-0.1669,-0.1043,-0.0151,-0.0076,-0.0077,0.0,0.0,0.0,0.0,0.0,0.0,0.0,0.0,-0.6029,-0.4299,-0.286,-0.1354,0.059,0.01,0.0403,0.3516,0.3115,0.2814,0.4218,0.4318,0.4418,0.4718,0.4318,0.4111,0.4296,0.4407,0.4193,0.3739,0.4013,0.4566,0.5566,0.5447,0.5097,0.4438,0.6415,0.7315,0.684,0.6001,0.4885,0.3636,0.3776,0.3519,0.2965,0.3863,0.4284,0.4208,0.3506,0.3932,0.5027,0.4292,0.4107,0.4388,0.4324,0.4346,0.4364,0.3779,0.3642,0.3588,0.3575,0.3713,0.3927,0.3927,0.4051,0.423,0.4155,0.4632,0.5239,0.5291,0.579,0.6392,0.6798,0.7278,0.7682,0.7646,0.8147,0.8538,0.8365,0.8688,0.893,0.8604,0.8959,0.9259,0.9018,0.939,0.9687,0.9769,1.0356,1.0664,1.0189,1.0091,0.9494,0.7779,0.776,0.6967,0.4951,0.3887,0.273,0.1397,0.078,0.0167,-0.0447,-0.1128,-0.1533,-0.1533,-0.1738,-0.1394,-0.0489,0.0072,0.0798,0.1599,0.2669,0.2658,-1.6225,-1.3906,-1.1863,-0.997,-0.9328,-0.869,0.0,0.0,-0.4677,-0.115,-0.021,0.0728,0.3289,0.3597,0.3582,0.3927,0.3914,0.4218,0.5627,0.5422,0.5822,0.7335,0.5418,0.4388,0.5494,0.5669,0.6226,0.7316,0.6095,0.5833,0.7305,0.7367,0.7289,0.7289,0.7195,0.6768,0.5995,0.678,0.6111,0.3971,0.4003,0.3975,0.388,0.4845,0.5284,0.528,0.5174,0.471,0.4107,0.4014,0.4674,0.5582,0.5572,0.6272,0.6913,0.4652,0.3783,0.3765,0.3605,0.4291,0.5181,0.5181,0.5813,0.649,0.6478,0.6446,0.6544,0.7391,0.7655,0.7795,0.8596,0.8812,0.9011,0.9659,0.9846,1.0015,1.0548,1.0469,1.0305,0.9953,0.9748,0.9619,0.9593,0.9422,0.937,0.9762,1.0356,1.0559,0.9915,0.9864,0.9268,0.7846,0.7127,0.5882,0.3704,0.3445,0.3012,0.2119,0.2007,0.1896,0.184,0.1902,0.1965,0.1965,0.2006,0.2159,0.2232,0.2363,0.2466,0.2542,0.3568,0.3622,-1.3196,-1.0794,0.0,0.0,-0.7031,-0.6214,-0.2961,-0.2251,-0.1264,0.1905,0.267,0.3191,0.4912,0.4656,0.4878,0.0,0.6796,0.7087,0.9182,0.928,0.9437,1.0035,0.8539,0.7384,0.715,0.7099,0.7839,0.9351,0.8556,0.8601,1.0049,0.925,0.8472,0.7917,0.7624,0.7324,0.6917,0.7426,0.7133,0.6053,0.6165,0.6176,0.6272,0.6743,0.6905,0.6964,0.6913,0.6731,0.6326,0.6326,0.6597,0.7051,0.7051,0.7413,0.7731,0.6449,0.5996,0.598,0.5855,0.6178,0.6532,0.6453,0.7183,0.8068,0.7967,0.833,0.881,0.8983,0.893,0.8981,0.9135,0.967,1.0121,1.0242,1.075,1.1179,1.1235,1.1142,1.0929,1.0461,1.0274,1.0087,0.974,0.9579,0.9572,0.9716,0.9703,0.951,0.9263,0.9211,0.8672,0.7235,0.6036,0.5007,0.407,0.4015,0.3732,0.2956,0.2841,0.2674,0.223,0.2376,0.2519,0.2519,0.2635,0.2724,0.2724,0.3239,0.3466,0.3466,0.5054,0.5544,-0.9463,0.0,0.0,-0.4287,-0.3887,-0.2917,0.0602,0.1351,0.1925,0.4334,0.5124,0.5854,0.6929,0.6702,0.7358,1.0036,0.9674,0.9755,1.1648,1.2155,1.2104,1.1823,1.1696,1.0815,0.8909,0.8315,0.8711,1.052,1.0669,1.1057,1.1865,1.0523,0.9543,0.9123,0.8326,0.8172,0.8855,0.8875,0.8868,0.876,0.849,0.8452,0.8362,0.8082,0.8038,0.8038,0.8038,0.8038,0.8038,0.8428,0.8528,0.8627,0.8924,0.9114,0.9091,0.8844,0.854,0.8197,0.8029,0.8215,0.8426,0.8205,0.8752,0.9383,0.9231,0.9733,1.0367,1.029,1.0322,1.0236,1.0374,1.0883,1.1315,1.1205,1.1582,1.1931,1.1717,1.161,1.1396,1.0902,1.0795,1.0661,1.0234,1.0033,0.9953,1.0033,0.9472,0.9018,0.8938,0.8698,0.8103,0.702,0.5828,0.5007,0.4787,0.4787,0.4457,0.3738,0.3711,0.3447,0.2941,0.3126,0.3232,0.3232,0.3396,0.3413,0.348,0.4345,0.4743,0.4809,0.6455,0.7194,-0.4761,0.0,-0.0186,0.0,0.0912,0.2094,0.354,0.3852,0.4379,0.595,0.7223,0.8488,0.9876,1.1061,1.1905,1.1883,1.1853,1.1843,1.1853,1.2586,1.2889,1.194,1.406,1.4279,0.0,0.9037,0.8743,1.0511,1.2155,1.278,1.195,1.1016,1.09,1.1745,0.9275,0.917,1.1726,1.1736,1.1736,1.1736,1.0476,0.9895,0.9895,0.8627,0.8038,0.8038,0.8038,0.8038,0.8137,0.941,0.9903,1.0092,1.1268,1.1755,1.1745,1.1736,1.0922,0.9681,0.9486,1.0122,1.1028,1.0939,1.0787,1.0519,1.0519,1.0444,1.0606,1.1592,1.1758,1.189,1.2857,1.2882,1.2799,1.3093,1.2719,1.2291,1.2278,1.2051,1.177,1.1463,1.1396,1.1396,1.1369,1.0902,1.0635,1.0915,1.0221,0.9552,0.9203,0.8317,0.7729,0.7664,0.6966,0.6253,0.5538,0.5483,0.5164,0.4519,0.4599,0.4622,0.4622,0.4904,0.4994,0.4994,0.5212,0.5292,0.5292,0.6203,0.6588,0.6654,0.7577,0.7967,-0.1419,-0.0093,0.2118,0.3304,0.4859,0.6098,0.6642,0.7514,0.854,0.988,1.0497,1.0742,1.1016,1.1453,1.2068,1.2808,1.3087,1.3488,1.4376,1.4933,1.5093,1.4592,1.4508,0.0,0.0,0.0,0.0,1.2373,1.3199,1.3931,1.4473,1.3403,1.334,1.4485,1.195,1.1327,1.278,1.2165,1.195,1.1853,1.1463,1.1268,1.1268,1.0156,1.0066,1.0583,0.996,1.0066,1.0583,1.1072,1.1268,1.1268,1.1755,1.195,1.195,1.195,1.219,1.2363,1.1283,1.1165,1.1426,1.122,1.1625,1.226,1.1824,1.2392,1.3089,1.3074,1.299,1.3037,1.3174,1.3133,1.308,1.3186,1.3053,1.2906,1.2906,1.2665,1.2432,1.2064,1.185,1.1663,1.1463,1.1263,1.1169,1.1263,1.0528,0.986,0.9566,0.8808,0.822,0.8055,0.7507,0.7016,0.6595,0.6701,0.6731,0.6499,0.6506,0.6307,0.5715,0.6424,0.6563,0.5943,0.6763,0.712,0.712,0.7437,0.7644,0.7836,0.856,0.9051,0.1531,0.3293,0.5548,0.6163,0.7852,0.9379,0.9522,1.0211,1.1039,1.192,1.2262,1.2425,1.2215,1.2669,1.3305,1.3999,1.4383,1.4879,1.5665,1.6029,1.6122,1.6152,1.532,1.5369,0.0,0.0,0.0,1.4631,1.4752,1.5126,1.5893,1.5134,1.4917,1.5757,1.4148,1.3522,1.4148,1.3619,1.3113,1.2619,1.2619,1.2221,1.1434,1.0812,1.1113,1.1853,1.1638,1.1843,1.237,1.2533,1.2619,1.2619,1.3113,1.3307,1.3307,1.3307,1.3884,1.4339,1.302,1.272,1.2972,1.2746,1.3152,1.3795,1.3336,1.3822,1.4442,1.4068,1.3881,1.3761,1.3574,1.344,1.3387,1.3494,1.336,1.3213,1.3213,1.2973,1.2728,1.2358,1.2144,1.1957,1.177,1.1744,1.1663,1.1463,1.1035,1.0568,1.006,0.9471,0.9011,0.8738,0.8457,0.813,0.7684,0.7816,0.7774,0.7537,0.755,0.729,0.6745,0.7437,0.7585,0.7095,0.7811,0.8184,0.8266,0.8599,0.8807,0.9015,0.9753,1.0263,0.4493,0.7336,1.013,0.8683,1.0334,1.2221,1.2149,1.2224,1.2245,1.2221,1.2903,1.3578,0.0,0.0,1.5418,1.5418,1.5671,1.5856,1.5804,1.5856,1.6085,0.0,0.0,0.0,0.0,0.0,0.0,1.6981,0.0,1.6397,1.6273,1.6005,1.5845,1.5832,1.5832,1.5832,1.5845,1.5872,1.5274,1.3992,1.3992,1.2898,1.0909,1.09,1.1308,1.2145,1.2986,1.3299,1.3397,1.3811,1.3968,1.4172,1.5343,1.5832,1.5832,1.5832,1.5832,1.5642,1.4459,1.4584,1.5418,1.5404,1.5217,1.5003,1.4977,1.4763,1.4536,1.4522,1.4309,1.4082,1.4082,1.3881,1.3734,1.4015,1.3654,1.3253,1.3253,1.3013,1.2782,1.2425,1.2345,1.2392,1.2378,1.2378,1.219,1.1557,1.1717,1.1583,1.0779,1.0354,1.006,0.9766,0.974,0.9493,0.8751,0.8705,0.841,0.7698,0.7777,0.784,0.7778,0.8068,0.8285,0.8503,0.8503,0.8685,0.8964,0.9742,1.0182,1.0194,1.1011,1.1436,0.996,1.1222,1.2587,1.3168,1.5025,1.6564,1.6154,1.6886,1.7301,1.6425,1.6188,1.5979,0.0,0.0,0.0,1.5712,1.6042,0.0,1.5806,1.6325,0.0,1.7296,0.0,1.7392,1.7395,1.7455,0.0,0.0,1.6887,1.6388,1.5953,1.6095,1.6059,1.5832,1.5832,1.5939,1.6263,1.638,1.617,1.5654,1.5654,1.546,1.4936,1.4629,1.4638,1.4854,1.507,1.5178,1.5178,1.5248,1.5343,1.5343,1.5629,1.5832,1.5832,1.5832,1.5832,1.5737,1.5439,1.5494,1.5685,1.5471,1.5498,1.5524,1.5097,1.491,1.4803,1.4589,1.4309,1.4082,1.4082,1.4028,1.3988,1.4068,1.3975,1.3868,1.3868,1.3627,1.3387,1.332,1.3474,1.3666,1.336,1.3317,1.3041,1.2163,1.2144,1.1957,1.1289,1.1142,1.0902,1.0394,1.0528,1.0412,0.9793,0.9962,1.0017,0.9831,1.0021,0.9835,0.9248,1.0038,1.0276,0.9651,1.0268,1.0648,1.0723,1.0942,1.1184,1.1462,1.1391,1.1663,1.405,1.5205,1.6344,1.7069,1.8011,1.8658,1.804,1.8568,1.9011,1.8179,1.7508,0.0,1.564,0.0,0.0,0.0,0.0,0.0,1.5865,1.6393,1.7081,0.0,1.758,0.0,1.759,1.7607,1.7582,0.0,1.7154,1.682,1.6434,1.6427,1.6393,1.6219,1.6206,1.6299,1.6572,1.662,1.662,1.646,1.646,1.6393,1.6149,1.5879,1.5843,1.5832,0.0,1.5832,1.5832,1.5832,1.5832,1.5832,1.5832,1.5832,1.5832,1.5832,1.5832,1.5832,1.5832,1.5832,1.5805,1.5631,1.5698,1.5765,1.5444,1.5257,1.5097,1.4803,1.4509,1.4255,1.4122,1.4082,1.4082,1.4082,1.4082,1.4055,1.3921,1.4159,1.4465,1.4786,1.4617,1.4532,1.4856,1.4454,1.3977,1.3326,1.2791,1.2331,1.1864,1.1703,1.145,1.0995,1.0969,1.0915,1.0715,1.0728,1.0808,1.0929,1.1089,1.0981,1.0497,1.1057,1.1214,1.0911,1.1331,1.1677,1.181,1.181,1.1904,1.2051,1.2303,1.2614,1.6719,1.8324,1.9587,2.0079,1.9949,1.9602,1.9323,1.9184,1.8985,1.8595,0.0,1.6669,1.564,1.5631,1.5708,1.5473,0.0,1.7133,1.6282,1.665,1.709,1.759,1.7595,1.7635,1.7635,1.7609,1.7582,1.7582,1.7341,1.7194,1.7154,1.6901,1.674,1.67,1.674,1.674,1.67,1.678,1.6807,1.6767,1.6727,1.6454,1.5993,1.5817,1.5757,1.5832,0.0,0.0,1.5832,1.5832,1.5832,1.5832,1.5832,1.5832,1.5832,1.5832,1.5832,1.5832,1.5832,1.5832,1.5832,1.5832,1.5832,1.5832,1.5832,1.5631,1.5337,1.5097,1.4803,1.4509,1.4215,1.422,1.4375,1.4334,1.4419,1.442,1.4159,1.4889,1.581,1.653,1.5928,1.5528,1.6455,1.5863,1.508,1.4712,1.3809,1.303,1.2662,1.2204,1.181,1.1516,1.1263,1.1196,1.141,1.1196,1.1156,1.141,1.1463,1.149,1.149,1.1516,1.1663,1.1917,1.1931,1.2051,1.2305,1.2452,1.2526,1.2512,1.3448,1.3882,1.7335,1.7333,1.8011,2.0828,2.1022,2.1163,2.3635,2.2264,0.0,0.0,1.8532,1.7175,1.5948,1.5819,1.5953,1.6339,1.7475,0.0,0.0,0.0,1.8233,0.0,0.0,0.0,0.0,0.0,0.0,0.0,0.0,0.0,1.7168,1.7101,1.6967,1.6714,1.6941,1.6954,1.6714,1.7181,1.7315,1.7074,1.682,1.6687,1.6733,1.6126,1.5777,1.5832,0.0,0.0,1.5832,1.5832,1.5832,1.5832,1.5832,1.5832,1.5832,1.5832,1.5832,1.5832,1.5832,1.5832,1.5832,1.5832,1.5832,1.5832,1.5832,1.5631,1.5391,1.5337,1.511,1.4816,1.4522,1.5105,1.5701,1.5438,1.6108,1.6748,1.6684,1.6847,1.7136,1.7863,1.7793,1.7687,1.7671,1.7468,1.7058,1.6221,1.5583,1.504,1.4439,1.3145,1.2118,1.1824,1.1744,1.1637,1.1436,1.1383,1.1369,1.1423,1.165,1.1797,1.1797,1.2024,1.2171,1.2225,1.2225,1.2251,1.2305,1.3098,1.3448,1.3448,1.4458,1.4942,2.0938,2.1252,2.1804,2.2981,2.3203,2.3188,2.3474,0.0,0.0,0.0,1.8846,1.7872,1.772,1.8769,0.0,1.888,2.0216,2.0716,0.0,0.0,0.0,0.0,0.0,0.0,0.0,0.0,0.0,0.0,0.0,0.0,1.7499,1.7368,1.7315,1.7168,1.7301,1.7301,1.7168,1.7435,1.7515,1.7368,1.7235,1.7007,1.6814,1.642,1.6112,1.5832,0.0,0.0,1.5832,1.5832,1.5832,1.5832,1.5832,1.5832,1.5832,1.5832,1.5832,1.5832,1.5832,1.5832,1.5832,1.5832,1.5832,1.5832,1.5832,1.5725,1.5591,1.5444,1.5297,1.5291,1.5599,1.6111,1.6571,1.7085,1.7414,1.7729,1.8112,1.7738,1.7768,1.9173,1.9058,1.877,1.9202,1.8859,1.8231,1.7635,1.6818,1.6168,1.5695,1.4955,1.4111,1.3228,1.3241,1.3384,1.3399,1.2778,1.2472,1.2572,1.2298,1.2158,1.2392,1.2305,1.2594,1.3266,1.2668,1.2806,1.381,1.3738,1.3954,1.453,1.5508,1.593,2.4279,2.5415,2.6188,2.5351,2.548,2.5182,2.2956,2.2201,0.0,2.0183,1.9042,1.8513,1.9298,2.1423,2.2703,0.0,2.2512,2.2758,2.0589,0.0,0.0,0.0,0.0,0.0,0.0,0.0,0.0,0.0,0.0,0.0,1.8323,1.782,1.7582,1.7582,1.7582,1.7582,1.7582,1.7582,1.7582,1.7582,1.7515,1.7248,1.6794,1.6673,1.6451,1.6293,0.0,0.0,0.0,1.6293,1.6103,1.5925,1.5925,1.5885,1.5832,1.5832,1.5832,1.5832,1.5832,1.5832,1.5832,1.5832,1.5832,1.5832,1.5832,1.5832,1.5778,1.5923,1.5855,1.6141,1.7039,1.7476,1.7898,1.9042,1.9056,1.9011,1.9524,1.8887,1.8806,2.0524,2.0188,1.9869,2.0761,2.0188,1.9482,1.9155,1.8291,1.7493,1.703,1.7011,1.6539,1.5213,1.5065,1.511,1.5325,1.4387,1.393,1.4118,1.3477,1.3177,1.3577,1.3351,1.3592,1.453,1.3534,1.3725,1.5226,1.4601,1.4728,1.5508,1.6508,1.7051,2.5057,2.67,2.82,2.7406,2.7199,2.6622,2.4726,0.0,2.0771,2.0099,1.9144,1.8742,1.9368,2.1496,2.3082,0.0,2.2456,2.239,2.3082,2.265,0.0,0.0,0.0,0.0,0.0,0.0,0.0,0.0,0.0,0.0,0.0,1.8457,1.7582,1.7582,1.7582,1.7582,1.7582,1.7582,1.7582,1.7582,1.7315,1.7154,1.7088,1.6553,1.6953,1.7927,0.0,0.0,0.0,1.7941,1.727,1.6233,1.6233,1.6072,1.5832,1.5832,1.5832,1.5832,1.5832,1.5832,1.5832,1.5832,1.5832,1.5832,1.5832,1.5832,1.6008,1.7188,1.7453,1.7657,1.8645,1.9607,2.058,2.137,2.1588,2.1549,2.1613,2.1593,2.1511,2.1758,2.1675,2.1675,2.1758,2.1675,2.1457,2.1012,2.0526,1.9925,1.8928,1.892,1.8731,1.7988,1.6935,1.6113,1.574,1.5617,1.5601,1.565,1.5503,1.5651,1.6086,1.607,1.5905,1.5626,1.552,1.5412,1.5226,1.593,1.6349,1.6507,1.7802,1.8434,2.8525,2.9808,3.075,3.0727,2.8773,2.654,2.497,0.0,2.1646,2.1165,2.1248,2.1397,2.1581,2.2435,2.2851,2.2097,2.2684,2.2813,2.1841,2.2485,0.0,0.0,0.0,0.0,0.0,0.0,0.0,0.0,0.0,0.0,0.0,2.0619,1.9204,1.9204,1.819,1.7582,1.7582,1.7582,1.7989,1.8812,1.8683,1.8525,1.8441,1.8182,1.7768,1.7204,0.0,0.0,0.0,1.7302,1.6911,1.6273,1.6273,1.6086,1.5832,1.5832,1.5832,1.5832,1.5832,1.5832,1.5832,1.5832,1.5832,1.5832,1.5832,1.5832,1.5927,1.6386,1.7138,1.7933,1.9043,2.0713,2.2149,2.2279,2.2266,2.2187,2.1934,2.1894,2.1894,2.1894,2.1894,2.1894,2.1894,2.1894,2.1836,2.166,2.1484,2.1186,2.078,2.0816,2.076,2.0514,1.9068,1.8064,1.7917,1.7385,1.709,1.709,1.6461,1.633,1.6696,1.6496,1.6716,1.7273,1.6286,1.6392,1.7659,1.7206,1.742,1.8252,1.8802,1.9023,3.1436,3.2678,3.3295,3.3319,3.047,2.7191,0.0,0.0,2.2279,2.1973,2.2559,2.3144,2.3144,2.3144,2.2668,2.1355,2.256,2.3157,2.1285,2.2699,2.4325,0.0,0.0,0.0,0.0,0.0,0.0,0.0,0.0,0.0,0.0,2.3199,2.1481,2.0965,1.9598,1.8855,1.8955,1.845,1.8916,2.0231,1.9834,1.9713,1.9977,1.9884,1.9115,0.0,0.0,0.0,0.0,1.781,1.7399,1.6526,1.6526,1.6299,1.5965,1.5965,1.5899,1.5832,1.5832,1.5832,1.5832,1.5832,1.6008,1.6386,1.6386,1.6103,1.5927,1.6292,1.7483,1.9039,2.0223,2.1854,2.3066,2.2773,2.2695,2.2617,2.2324,2.2246,2.2246,2.2246,2.2246,2.2246,2.2246,2.2246,2.2207,2.209,2.207,2.2031,2.1894,2.1894,2.1894,2.1894,2.0781,2.0,1.9863,1.9241,1.8861,1.8861,1.8213,1.7934,1.8118,1.7951,1.8136,1.8745,1.7653,1.7752,1.9297,1.8316,1.8316,1.9297,1.9414,1.9531,3.3138,3.4751,3.5741,3.4817,3.2128,2.9252,0.0,2.4908,2.2383,2.1973,2.2559,2.3144,2.3144,2.3144,2.2561,2.1016,2.2082,2.2993,2.259,2.4013,0.0,0.0,0.0,0.0,0.0,0.0,0.0,0.0,0.0,0.0,0.0,2.5945,2.4156,2.2324,2.1841,2.1824,2.2204,2.0519,2.0333,2.1643,2.0231,2.0333,2.1626,2.1362,0.0,0.0,0.0,0.0,0.0,2.0404,1.9421,1.7141,1.7141,1.678,1.6273,1.6273,1.6086,1.5832,1.5832,1.5832,1.5832,1.5832,1.6669,1.7684,1.7684,1.6763,1.6008,1.7326,1.9405,2.1569,2.2775,2.3057,2.3144,2.3125,2.3125,2.3125,2.3125,2.3125,2.3125,2.3125,2.3125,2.3125,2.3125,2.3125,2.2988,2.2559,2.25,2.2363,2.1934,2.1894,2.1894,2.1894,2.1875,2.168,2.125,2.1131,2.1131,2.1131,2.1131,2.1131,2.1131,2.1131,2.0722,1.9922,1.9902,1.9687,1.9297,1.9277,1.9277,1.9297,1.9707,2.0137,3.3762,3.4966,3.5366,3.5467,3.3303,3.0507,2.7995,2.4523,2.1806,2.1894,2.2559,2.3144,2.3144,2.3144,2.2668,2.1284,2.2542,2.3108,0.0,0.0,0.0,0.0,0.0,0.0,0.0,0.0,0.0,0.0,0.0,0.0,0.0,0.0,2.6068,2.4174,2.2842,2.2192,2.2324,2.169,2.2009,2.3067,2.2567,2.2667,2.3067,2.2944,0.0,0.0,0.0,0.0,0.0,1.8861,1.8128,1.7154,1.7154,1.6914,1.6567,1.6567,1.6513,1.6433,1.6433,1.6299,1.6126,1.6126,1.6838,1.7684,1.7684,1.7948,1.858,1.9844,2.0747,2.1569,2.2775,2.3144,2.3144,2.3144,2.3144,2.3144,2.3144,2.3144,2.3144,2.3144,2.3144,2.3144,2.3144,2.3144,2.3086,2.2969,2.2949,2.2891,2.2754,2.2734,2.2734,2.2734,2.2734,2.2461,2.1738,2.168,2.168,2.168,2.168,2.168,2.168,2.168,2.1406,2.082,2.0508,2.0293,2.0156,1.9863,1.9863,2.0156,2.0293,2.043,3.46,3.5722,3.6043,3.6558,3.3756,0.0,2.7702,2.4154,2.1457,2.1836,2.2546,2.3075,2.3125,2.2561,2.1994,2.1409,2.2314,0.0,0.0,0.0,0.0,0.0,0.0,0.0,0.0,0.0,0.0,0.0,0.0,0.0,0.0,0.0,2.6975,2.5844,2.4494,2.3959,2.41,2.3288,2.3432,2.4412,2.3899,2.3998,2.4412,0.0,0.0,0.0,0.0,0.0,0.0,1.8499,1.7915,1.7154,1.7275,1.7061,1.6727,1.6834,1.6807,1.6687,1.658,1.6881,1.7162,1.6938,1.7834,1.9131,1.9588,1.9588,1.977,2.0926,2.1302,2.1569,2.2775,2.3144,2.3144,2.3144,2.3144,2.3144,2.3144,2.3144,2.3144,2.3144,2.3144,2.3144,2.3144,2.3144,2.3144,2.3144,2.3144,2.3144,2.3144,2.3144,2.3144,2.3144,2.3144,2.293,2.2402,2.2363,2.2363,2.2363,2.2363,2.2285,2.2129,2.2129,2.1914,2.1484,2.1211,2.1074,2.1074,2.0801,2.0801,2.1074,2.1074,2.1074,0.0,3.6641,3.7306,3.7784,3.335,2.8495,2.7163,2.394,0.0,2.1797,2.2557,2.3097,2.3086,2.178,2.0837,2.1373,0.0,0.0,0.0,0.0,0.0,0.0,0.0,0.0,0.0,0.0,0.0,0.0,0.0,0.0,0.0,0.0,2.7051,2.7012,2.6602,2.6582,2.6973,2.492,2.4529,2.5645,2.4412,2.451,2.5742,0.0,0.0,0.0,0.0,0.0,0.0,1.8991,1.8522,1.7208,1.7435,1.7208,1.6794,1.715,1.7184,1.6927,1.6755,1.7681,1.8777,1.8236,1.9563,2.1606,2.2813,2.1516,1.9951,2.1123,2.1391,2.1658,2.2775,2.3144,2.3144,2.3144,2.3144,2.3144,2.3144,2.3144,2.3144,2.3144,2.3144,2.3144,2.3144,2.3144,2.3144,2.3144,2.3144,2.3144,2.3144,2.3144,2.3144,2.3144,2.3144,2.3144,2.3144,2.3144,2.3144,2.3144,2.3144,2.2969,2.2578,2.2559,2.2363,2.1934,2.1894,2.1894,2.1894,2.1894,2.1894,2.1894,2.1894,2.1894,3.2597,0.0,3.502,3.5904,3.1965,2.7507,0.0,2.3538,2.1467,2.1797,2.2557,2.3097,2.3086,2.178,2.1123,2.2473,0.0,0.0,0.0,0.0,0.0,0.0,0.0,0.0,0.0,0.0,0.0,0.0,0.0,0.0,0.0,0.0,2.7363,2.7031,2.6602,2.6445,2.6543,2.6029,2.5759,2.5742,2.543,2.543,2.5742,0.0,0.0,0.0,0.0,0.0,1.9095,1.8156,1.7653,1.7435,1.7061,1.7101,1.7459,1.8411,1.8847,1.9081,2.0109,2.0552,2.0704,2.1234,2.1653,2.2062,2.3275,2.3025,2.2315,2.2599,2.2687,2.2775,2.3038,2.3144,2.3144,2.3144,2.3144,2.3144,2.3144,2.3144,2.3144,2.3144,2.3144,2.3144,2.3144,2.3144,2.3144,2.3144,2.3144,2.3144,2.3144,2.3144,2.3144,2.3144,2.3144,2.3144,2.3144,2.3144,2.3144,2.3144,2.3144,2.3086,2.2988,2.2988,2.2793,2.2383,2.2051,2.1894,2.1894,2.1894,2.1894,2.1894,2.1894,2.1894,2.9412,3.0966,3.2861,3.3931,2.9822,2.5165,2.363,2.1352,1.967,2.0173,2.0679,2.0979,2.1259,2.0836,2.0884,0.0,2.2888,0.0,0.0,0.0,0.0,0.0,0.0,0.0,0.0,0.0,0.0,0.0,0.0,0.0,0.0,0.0,2.6973,2.6738,2.6309,2.6191,2.6387,2.6191,2.5977,2.5742,2.5742,2.5742,2.5645,0.0,0.0,0.0,0.0,0.0,1.8589,1.7721,1.7288,1.7257,1.7576,1.7434,1.7184,1.844,1.9134,1.949,2.0116,2.1032,2.2031,2.337,2.3467,2.3202,2.3667,2.3633,2.3398,2.3203,2.3144,2.3144,2.3144,2.3144,2.3144,2.3144,2.3144,2.3144,2.3144,2.3144,2.3203,2.3398,2.3281,2.3203,2.3398,2.3262,2.3144,2.3144,2.3144,2.3144,2.3144,2.3144,2.3144,2.3144,2.3144,2.3144,2.3144,2.3144,2.3144,2.3144,2.3144,2.3144,2.3144,2.3144,2.3027,2.2812,2.2578,2.2461,2.2461,2.2461,2.2461,2.2461,2.2461,2.2461,2.591,2.7357,2.9604,3.1622,2.794,2.3033,2.0278,1.8279,1.7384,1.8179,1.8412,1.8556,1.9123,1.952,0.0,0.0,0.0,0.0,0.0,0.0,0.0,0.0,0.0,0.0,0.0,0.0,0.0,0.0,0.0,0.0,0.0,0.0,0.0,2.6289,2.5937,2.5918,2.6289,2.5918,2.5742,2.5742,2.5742,2.5742,2.5645,2.4295,0.0,0.0,0.0,0.0,1.7569,1.7488,1.7181,1.6881,1.8082,1.7669,1.6549,1.8199,1.9072,1.943,1.9579,2.1185,2.3333,2.4755,2.4883,2.4453,2.4102,2.3887,2.3711,2.334,2.3184,2.3144,2.3144,2.3144,2.3144,2.3144,2.3144,2.3144,2.3144,2.3144,2.3242,2.3613,2.3437,2.334,2.3633,2.3437,2.3242,2.3242,2.3184,2.3164,2.3223,2.3184,2.3144,2.3144,2.3144,2.3144,2.3144,2.3144,2.3144,2.3144,2.3144,2.3144,2.3144,2.3144,2.3144,2.3144,2.3144,2.3144,2.3144,2.3144,2.3144,2.3144,2.3144,2.3144,2.2347,2.1467,2.2311,2.8354,2.7894,2.4096,1.6781,1.5726,1.6759,1.8124,1.8374,1.8704,1.9586,1.902,1.9304,0.0,0.0,0.0,0.0,0.0,0.0,0.0,0.0,0.0,0.0,0.0,0.0,0.0,0.0,0.0,0.0,0.0,0.0,2.5859,2.5781,2.5762,2.584,2.5781,2.5742,2.5742,2.5742,2.5742,2.5645,2.4295,2.2968,0.0,0.0,1.8812,1.7542,1.7048,1.6941,1.7109,1.6495,1.6468,1.6905,1.9065,2.0053,2.0782,2.329,2.4622,2.5257,2.5509,2.5332,2.4961,2.4902,2.4375,2.3769,2.3711,2.3418,2.3144,2.3144,2.3144,2.3144,2.3144,2.3144,2.3144,2.3144,2.3144,2.3164,2.3223,2.3477,2.3594,2.3301,2.3496,2.3691,2.3691,2.3379,2.3281,2.3633,2.3379,2.3144,2.3144,2.3144,2.3144,2.3144,2.3144,2.3144,2.3144,2.3144,2.3144,2.3144,2.3144,2.3144,2.3144,2.3144,2.3144,2.3144,2.3144,2.3144,2.3144,2.3144,2.3144,1.8303,1.664,1.5937,1.8567,1.936,1.7976,1.2159,1.2686,1.4636,1.5144,1.6092,1.7024,0.0,0.0,2.1031,0.0,0.0,0.0,0.0,0.0,0.0,0.0,0.0,0.0,0.0,0.0,0.0,0.0,0.0,0.0,0.0,0.0,0.0,0.0,2.5742,2.5742,2.5742,2.5742,2.5742,2.5742,2.5742,2.5742,2.5645,2.3583,2.2265,2.1541,0.0,1.8102,1.7328,1.7061,1.6834,1.6833,1.7625,1.7728,1.7572,2.0118,2.1404,2.1977,2.4316,2.5371,2.5742,2.5742,2.5605,2.5391,2.5137,2.4785,2.4375,2.3926,2.3477,2.3144,2.3144,2.3144,2.3144,2.3144,2.3144,2.3203,2.3437,2.3496,2.3633,2.4102,2.416,2.4141,2.418,2.416,2.4121,2.4121,2.3965,2.3906,2.4102,2.3945,2.3828,2.3828,2.3633,2.3496,2.3496,2.3281,2.3144,2.3144,2.3144,2.3144,2.3144,2.3144,2.3144,2.3144,2.3144,2.3144,2.3144,2.3144,2.3144,2.3144,2.3144,2.3144,1.5332,1.3417,1.1674,1.0286,1.1081,1.1703,0.9716,1.1321,1.3228,1.3448,0.0,0.0,0.0,1.9185,0.0,0.0,0.0,0.0,0.0,0.0,0.0,0.0,0.0,0.0,0.0,0.0,0.0,0.0,0.0,0.0,0.0,0.0,0.0,0.0,2.5742,2.5742,2.5742,2.5742,2.5742,2.5742,2.5742,2.5528,2.5118,2.2767,2.1541,2.1049,1.8603,1.7462,1.7235,1.7101,1.6981,1.7023,1.8658,1.9002,1.8812,2.1024,2.2373,2.3224,2.4504,2.5273,2.5742,2.5742,2.5742,2.5684,2.5332,2.5156,2.4922,2.4277,2.3711,2.3262,2.3164,2.3144,2.3164,2.3262,2.3301,2.3418,2.3848,2.3945,2.4121,2.4785,2.4727,2.4648,2.4863,2.4727,2.457,2.457,2.4473,2.4453,2.4551,2.4473,2.4414,2.4414,2.4121,2.3906,2.3789,2.3477,2.3242,2.3144,2.3144,2.3144,2.3144,2.3144,2.3144,2.3144,2.3144,2.3144,2.3144,2.3144,2.3144,2.3144,2.3144,2.3144,1.4362,1.2845,1.0886,0.872,0.8311,0.9212,1.2394,1.346,1.4183,1.5738,0.0,0.0,0.0,1.9552,0.0,0.0,0.0,0.0,0.0,0.0,0.0,0.0,0.0,0.0,0.0,0.0,0.0,0.0,0.0,0.0,0.0,0.0,0.0,0.0,0.0,2.5742,2.5742,2.5742,2.5742,2.5742,2.5742,2.502,2.38,2.2366,2.0947,1.9627,1.8199,1.7569,1.7515,1.6967,1.7399,1.8272,1.7953,1.9147,2.1033,2.123,2.2572,2.4322,2.4453,2.5019,2.5742,2.5742,2.5742,2.5723,2.5703,2.5391,2.5059,2.5,2.4375,2.3652,2.3242,2.3144,2.3242,2.3652,2.375,2.3848,2.4277,2.4375,2.4394,2.4453,2.4766,2.4902,2.4531,2.4766,2.5019,2.5019,2.4668,2.457,2.4961,2.4668,2.4414,2.4414,2.4394,2.4219,2.3828,2.3769,2.3574,2.3164,2.3144,2.3144,2.3144,2.3144,2.3144,2.3144,2.3144,2.3144,2.3144,2.3144,2.3144,2.3144,2.3144,2.3144,1.2719,1.2528,1.2178,1.035,1.0298,1.0941,1.1885,1.3314,1.4576,1.4986,1.7202,0.0,0.0,0.0,0.0,0.0,0.0,0.0,0.0,0.0,0.0,0.0,0.0,0.0,0.0,0.0,0.0,0.0,0.0,0.0,0.0,0.0,0.0,0.0,0.0,2.5312,2.5312,2.5059,2.4922,2.4922,2.456,2.4196,2.3583,2.1355,2.002,1.9328,1.7922,1.7612,1.7924,1.7681,1.8222,1.9223,1.9687,2.0944,2.2403,2.2403,2.3294,2.4414,2.4414,2.5,2.5742,2.5742,2.5742,2.5742,2.5742,2.5625,2.543,2.5137,2.4844,2.4492,2.4043,2.373,2.3652,2.4082,2.418,2.4297,2.4727,2.4824,2.4902,2.5176,2.5371,2.543,2.5273,2.5371,2.5488,2.5488,2.5352,2.5293,2.5469,2.5332,2.5234,2.5234,2.498,2.4648,2.4219,2.418,2.4121,2.3945,2.3691,2.3418,2.3144,2.3398,2.3418,2.3144,2.3144,2.3144,2.3144,2.3144,2.3144,2.3144,2.3144,2.3144,1.2638,1.2873,1.3182,1.2242,1.2406,1.2809,1.2375,1.3689,1.5125,1.5732,1.7825,2.0392,2.2779,0.0,0.0,0.0,0.0,0.0,0.0,0.0,0.0,0.0,0.0,0.0,0.0,0.0,0.0,0.0,0.0,0.0,0.0,0.0,0.0,0.0,0.0,0.0,2.4863,2.457,2.4414,2.4414,2.3647,2.3108,2.2617,2.0813,1.9598,1.9,1.8398,1.8434,1.8793,1.867,1.9268,2.0223,2.1536,2.2517,2.3164,2.3437,2.3906,2.4434,2.457,2.5117,2.5742,2.5742,2.5742,2.5742,2.5742,2.5742,2.5684,2.5371,2.5176,2.5039,2.4883,2.4414,2.4102,2.4512,2.4629,2.4746,2.5176,2.5273,2.5371,2.5684,2.5742,2.5781,2.5918,2.5937,2.5996,2.6113,2.6133,2.6094,2.5957,2.5937,2.5898,2.5742,2.5469,2.5098,2.4668,2.4629,2.457,2.4414,2.4277,2.4004,2.3555,2.3828,2.3848,2.3555,2.3535,2.3477,2.334,2.334,2.3281,2.3144,2.3144,2.3203,1.4362,1.3935,1.3461,1.3802,1.3872,1.411,1.4719,1.5053,1.5981,1.8644,1.9952,2.1071,2.2725,0.0,0.0,0.0,0.0,0.0,0.0,0.0,0.0,0.0,0.0,0.0,0.0,0.0,0.0,0.0,0.0,0.0,0.0,0.0,0.0,0.0,0.0,0.0,2.4414,2.4414,2.4414,2.4414,2.3074,2.1735,2.0666,2.057,1.9797,1.8557,1.9894,2.0377,2.0344,2.0079,2.0457,2.1516,2.3147,2.3516,2.3242,2.4102,2.4414,2.4473,2.4922,2.5371,2.5742,2.5742,2.5742,2.5742,2.5742,2.5742,2.5742,2.5742,2.541,2.5176,2.5625,2.5098,2.4531,2.498,2.5078,2.5195,2.5644,2.5742,2.5742,2.5742,2.5742,2.5879,2.6309,2.6387,2.6523,2.6953,2.7012,2.6855,2.6445,2.6387,2.623,2.5801,2.5742,2.5566,2.5117,2.5078,2.4883,2.4453,2.4844,2.4883,2.4434,2.4414,2.4414,2.4414,2.4414,2.4219,2.3789,2.3789,2.3574,2.3144,2.3144,2.3379,1.4469,1.4812,1.5042,1.4733,1.5248,1.6058,1.6773,1.6643,1.713,0.0,2.0998,2.1764,2.4049,0.0,0.0,0.0,0.0,0.0,0.0,0.0,0.0,0.0,0.0,0.0,0.0,0.0,0.0,0.0,0.0,0.0,0.0,0.0,0.0,0.0,0.0,0.0,2.3984,2.3672,2.3516,2.3427,2.252,2.2053,2.183,2.0858,2.015,1.9526,1.9906,1.9947,1.981,2.0611,2.1753,2.3108,2.3221,2.3437,2.3633,2.3887,2.416,2.4473,2.4922,2.5371,2.5742,2.5742,2.5742,2.5742,2.5742,2.5742,2.5742,2.5742,2.5644,2.5566,2.5703,2.5547,2.5371,2.5508,2.5527,2.5566,2.5703,2.5742,2.5742,2.5742,2.5742,2.5879,2.6309,2.6133,2.6074,2.6504,2.6309,2.6172,2.6367,2.6387,2.6445,2.6621,2.6367,2.6133,2.6016,2.5723,2.5488,2.5352,2.5469,2.5195,2.4453,2.4707,2.4727,2.4414,2.4414,2.4355,2.4238,2.4238,2.416,2.4043,2.4043,2.4102,1.4843,1.5337,1.5765,1.5538,1.5925,1.6676,1.7844,0.0,0.0,0.0,0.0,2.2943,0.0,0.0,0.0,0.0,0.0,0.0,0.0,0.0,0.0,0.0,0.0,0.0,0.0,0.0,0.0,0.0,0.0,0.0,0.0,0.0,0.0,0.0,0.0,0.0,2.3535,2.3262,2.3144,2.3057,2.2669,2.2553,2.2612,2.1532,2.0815,2.0457,2.0915,2.1066,2.0962,2.1931,2.2891,2.3789,2.3867,2.3965,2.4082,2.4434,2.4609,2.4746,2.5176,2.5508,2.5742,2.5742,2.5742,2.5742,2.5742,2.5742,2.5742,2.5742,2.5742,2.5742,2.5742,2.5742,2.5742,2.5742,2.5742,2.5742,2.5742,2.5742,2.5742,2.5742,2.5742,2.5879,2.6309,2.6172,2.6152,2.6582,2.6406,2.6406,2.6836,2.6738,2.6738,2.6992,2.6641,2.6387,2.6387,2.5996,2.5742,2.5742,2.5742,2.5566,2.5215,2.5293,2.5215,2.4941,2.4941,2.4863,2.4668,2.4668,2.459,2.4414,2.4414,2.4512,1.5364,1.5631,1.5899,1.6206,1.6292,1.677,1.8369,2.0847,2.2631,2.1962,0.0,0.0,0.0,0.0,0.0,0.0,0.0,0.0,0.0,0.0,0.0,0.0,0.0,0.0,0.0,0.0,0.0,0.0,0.0,0.0,0.0,0.0,0.0,0.0,0.0,0.0,2.3144,2.3144,2.3144,0.0,2.3184,2.3184,2.3057,2.2441,2.1844,2.148,2.2492,2.2969,2.3223,2.3485,2.3699,2.3984,2.4668,2.4746,2.457,2.5371,2.541,2.5137,2.5586,2.5742,2.5742,2.5742,2.5742,2.5742,2.5742,2.5742,2.5742,2.5742,2.5742,2.5742,2.5742,2.5742,2.5742,2.5742,2.5742,2.5742,2.5742,2.5742,2.5742,2.5742,2.5742,2.5898,2.6367,2.6406,2.6523,2.6953,2.7012,2.7168,2.7617,2.7324,2.709,2.7129,2.6719,2.6465,2.6504,2.6074,2.582,2.5859,2.5859,2.6035,2.6426,2.5996,2.5762,2.5801,2.5762,2.5527,2.5137,2.5137,2.4922,2.4531,2.4531,2.4746,1.5712,1.5778,1.5899,1.6206,1.8199,2.0394,2.1645,2.3052,2.3786,2.3123,2.3438,0.0,0.0,0.0,0.0,0.0,0.0,0.0,0.0,0.0,0.0,0.0,0.0,0.0,0.0,0.0,0.0,0.0,0.0,0.0,0.0,0.0,0.0,0.0,0.0,2.3144,2.3144,2.3144,2.3144,0.0,2.3496,2.3477,2.3057,2.2959,2.2782,2.2668,2.2031,2.2396,2.3543,2.2344,2.3013,2.4746,2.4258,2.4414,2.4941,2.5137,2.5156,2.5137,2.5586,2.5742,2.5742,2.5742,2.5742,2.5742,2.5742,2.5742,2.5742,2.5742,2.5742,2.5742,2.5742,2.5742,2.5742,2.5742,2.5742,2.5742,2.5742,2.5742,2.5742,2.5742,2.5742,2.5977,2.6758,2.6602,2.6523,2.6953,2.7012,2.7168,2.7617,2.7578,2.7656,2.7988,2.7344,2.7012,2.7363,2.668,2.6387,2.6719,2.6738,2.6777,2.6875,2.6152,2.5898,2.625,2.5918,2.5684,2.5586,2.5586,2.5547,2.5449,2.5449,2.5508,1.6574,1.6669,1.6928,1.7882,2.0313,2.2519,2.3044,2.4068,2.4908,2.4543,0.0,0.0,0.0,0.0,0.0,0.0,0.0,0.0,0.0,0.0,0.0,0.0,0.0,0.0,0.0,0.0,0.0,0.0,0.0,0.0,0.0,0.0,0.0,0.0,2.3144,2.3144,2.3144,2.3144,2.3144,2.3144,2.3379,2.3359,2.3144,2.3144,2.3144,2.3057,2.2403,2.2828,2.3769,2.2891,2.3515,2.5019,2.457,2.4805,2.5391,2.5391,2.5391,2.543,2.5664,2.5742,2.5742,2.5742,2.5742,2.5742,2.5742,2.5742,2.5742,2.5742,2.5742,2.5742,2.5742,2.5898,2.5996,2.5781,2.5742,2.5801,2.5996,2.5879,2.5801,2.6016,2.5879,2.5957,2.6602,2.6699,2.6836,2.7266,2.7324,2.748,2.791,2.7969,2.8047,2.8262,2.7715,2.7422,2.7656,2.707,2.6777,2.7012,2.7012,2.7109,2.7324,2.6699,2.6445,2.668,2.6465,2.625,2.6055,2.6055,2.5937,2.5742,2.5742,2.5742,1.7684,1.7994,1.8489,2.0118,2.211,0.0,2.3584,2.4659,2.5605,2.5527,0.0,0.0,0.0,0.0,0.0,0.0,0.0,0.0,0.0,0.0,0.0,0.0,0.0,0.0,0.0,0.0,0.0,0.0,0.0,0.0,0.0,0.0,2.3144,2.3144,2.3144,2.3144,2.3144,2.3144,2.3144,2.3144,2.3144,2.3144,2.3144,2.3144,2.3144,2.3144,2.3144,2.3379,2.3789,2.3711,2.4219,2.5059,2.498,2.5273,2.5742,2.5742,2.5742,2.5742,2.5742,2.5742,2.5742,2.5742,2.5742,2.5742,2.5742,2.5742,2.5742,2.5742,2.5801,2.5859,2.5859,2.6172,2.6406,2.6035,2.5957,2.6016,2.623,2.6055,2.5957,2.6309,2.6211,2.6191,2.6543,2.6953,2.7363,2.7715,2.7773,2.7891,2.8242,2.8301,2.8301,2.8301,2.791,2.7695,2.7773,2.7383,2.7148,2.7226,2.7226,2.7402,2.7754,2.7422,2.7226,2.7226,2.709,2.6836,2.6504,2.6504,2.6309,2.5957,2.5957,2.5957,1.9222,1.945,2.0041,2.1843,2.2703,2.3353,0.0,0.0,2.5059,0.0,0.0,0.0,0.0,0.0,0.0,0.0,0.0,0.0,0.0,0.0,0.0,0.0,0.0,0.0,0.0,0.0,0.0,0.0,0.0,0.0,0.0,2.3144,2.3144,2.3144,2.3144,2.3144,2.3144,2.3144,2.3144,2.3144,2.3144,2.3144,2.3144,2.3144,2.3144,2.3144,2.3144,2.3379,2.3769,2.3379,2.3945,2.5039,2.4648,2.5019,2.5742,2.5742,2.5742,2.5742,2.5742,2.5742,2.5742,2.5742,2.5742,2.5742,2.5742,2.5742,2.5742,2.5742,2.6016,2.6309,2.6309,2.6621,2.6914,2.6855,2.6855,2.666,2.5977,2.6074,2.6328,2.6387,2.6934,2.7422,2.748,2.7851,2.8144,2.8203,2.8203,2.8223,2.8281,2.8301,2.8301,2.8301,2.791,2.7812,2.8184,2.7832,2.7734,2.8105,2.8125,2.8144,2.8203,2.8144,2.8125,2.8125,2.7383,2.6992,2.6934,2.6934,2.6894,2.6855,2.6855,2.6855,2.0245,2.1318,2.2373,2.3354,2.3862,2.4431,2.5275,2.5449,2.5391,0.0,0.0,0.0,0.0,0.0,0.0,0.0,0.0,0.0,0.0,0.0,0.0,0.0,0.0,0.0,0.0,0.0,0.0,0.0,0.0,0.0,2.3144,2.3144,2.3144,2.3144,2.3144,0.0,2.3144,2.3144,2.3144,2.3144,2.3144,2.3144,2.3144,2.3144,2.3144,2.3144,2.3144,2.3516,2.4102,2.3672,2.4277,2.5391,2.4961,2.5176,2.5742,2.5742,2.5742,2.5742,2.5742,2.5742,2.5742,2.5742,2.5742,2.5781,2.6035,2.6094,2.6152,2.6387,2.6602,2.6738,2.6738,2.7051,2.7324,2.707,2.7207,2.7207,2.6582,2.6602,2.6738,2.6738,2.7246,2.7676,2.7676,2.8008,2.8301,2.8301,2.8301,2.8301,2.8301,2.8301,2.8301,2.8301,2.8125,2.8086,2.8281,2.8125,2.8086,2.8281,2.8301,2.8301,2.8301,2.8301,2.8301,2.8301,2.793,2.7617,2.7383,2.7383,2.7246,2.7012,2.7012,2.7012,2.1407,2.2878,2.4157,2.4575,2.5197,2.5825,0.0,0.0,0.0,0.0,0.0,0.0,0.0,0.0,0.0,0.0,0.0,0.0,0.0,0.0,0.0,0.0,0.0,0.0,0.0,0.0,0.0,0.0,0.0,0.0,2.3144,2.3144,2.3144,2.3144,2.3144,2.3144,2.3144,2.3144,2.3144,2.3144,2.3144,2.3144,2.3144,2.3144,2.3144,2.3144,2.3262,2.373,2.4375,2.3965,2.4492,2.5527,2.5078,2.5254,2.5742,2.5742,2.5742,2.5742,2.5742,2.5742,2.5742,2.5742,2.582,2.5957,2.6289,2.6465,2.6621,2.6934,2.709,2.7187,2.7187,2.75,2.7734,2.7422,2.7598,2.7715,2.7285,2.7187,2.7207,2.7324,2.7598,2.7832,2.7832,2.8086,2.8301,2.8301,2.8301,2.8301,2.8301,2.8301,2.8301,2.8301,2.8301,2.834,2.8437,2.8457,2.8496,2.8613,2.8613,2.8613,2.8613,2.8516,2.8457,2.8457,2.834,2.8144,2.7832,2.7832,2.7656,2.7344,2.7344,2.7344,2.295,2.3887,2.4849,2.5242,2.6562,2.7569,0.0,0.0,0.0,0.0,0.0,0.0,0.0,0.0,0.0,0.0,0.0,0.0,0.0,0.0,0.0,0.0,0.0,0.0,0.0,0.0,0.0,0.0,0.0,0.0,2.3144,2.3144,2.3144,2.3144,2.3144,2.3144,2.3144,2.3144,2.3144,2.3144,2.3144,2.3144,2.3144,2.3144,2.3144,2.3164,2.3574,2.4004,2.4375,2.3965,2.4316,2.5059,2.4629,2.498,2.5742,2.5742,2.5742,2.5742,2.5742,2.5742,2.5742,2.5742,2.6016,2.6367,2.6387,2.666,2.6992,2.7012,2.7305,2.7637,2.7637,2.7949,2.8262,2.8223,2.8242,2.8144,2.7715,2.7637,2.7754,2.8144,2.8242,2.8262,2.8262,2.8281,2.8301,2.8301,2.8301,2.8301,2.8301,2.8301,2.8301,2.8301,2.8301,2.8457,2.8848,2.8887,2.9062,2.9473,2.9512,2.9512,2.9512,2.9101,2.8887,2.8887,2.8496,2.8281,2.8262,2.8262,2.8242,2.8223,2.8223,2.8223,2.3892,2.4467,2.5062,2.6216,2.6907,2.7409,2.737,2.7147,0.0,0.0,0.0,0.0,0.0,0.0,0.0,0.0,0.0,0.0,0.0,0.0,0.0,0.0,0.0,0.0,0.0,0.0,0.0,0.0,0.0,0.0,2.3144,2.3144,2.3144,2.3144,2.3144,2.3144,2.3144,2.3144,2.3144,2.3144,2.3144,2.3144,2.3144,2.3144,2.3301,2.3574,2.373,2.4023,2.4414,2.4258,2.4707,2.5488,2.5332,2.5449,2.5742,2.5742,2.5742,2.5742,2.5742,2.5742,2.5742,2.5742,2.6035,2.6445,2.6699,2.709,2.748,2.7754,2.7949,2.8066,2.8066,2.8184,2.8301,2.8301,2.8301,2.8262,2.8105,2.8066,2.8105,2.8262,2.8301,2.8301,2.8301,2.8301,2.8301,2.8301,2.8301,2.8301,2.8301,2.8301,2.8301,2.8301,2.8535,2.875,2.8906,2.918,2.9394,2.9551,2.957,2.957,2.957,2.9414,2.9336,2.9336,2.8906,2.8555,2.8301,2.8301,2.8301,2.8301,2.8301,2.8301,2.4325,2.5249,2.6196,2.7198,2.7842,2.8217,2.8117,0.0,0.0,0.0,0.0,0.0,0.0,0.0,0.0,0.0,0.0,0.0,0.0,0.0,0.0,0.0,0.0,0.0,0.0,0.0,0.0,0.0,0.0,0.0,2.3144,2.3144,2.3144,2.3144,2.3144,2.3144,2.3144,2.3144,2.3144,2.3144,2.3144,2.3144,2.3144,2.3144,2.3301,2.3574,2.3574,2.3887,2.4414,2.4414,2.4766,2.5312,2.5449,2.5508,2.5527,2.5684,2.5742,2.5742,2.5742,2.5742,2.5762,2.5898,2.625,2.668,2.7109,2.7539,2.793,2.8203,2.8301,2.8301,2.8301,2.8301,2.8301,2.8301,2.8301,2.8301,2.8301,2.8301,2.8301,2.8301,2.8301,2.8301,2.8301,2.8301,2.8301,2.8301,2.8301,2.8301,2.8301,2.8418,2.8496,2.8496,2.8887,2.9199,2.9336,2.9609,2.9844,3.0,3.0019,3.0019,3.0019,2.9863,2.9785,2.9785,2.9219,2.8789,2.8496,2.8359,2.8301,2.8301,2.8301,2.8301,0.0,0.0,0.0,0.0,2.934,3.0238,2.9114,0.0,0.0,0.0,0.0,0.0,0.0,0.0,0.0,0.0,0.0,0.0,0.0,0.0,0.0,0.0,0.0,0.0,0.0,0.0,0.0,0.0,0.0,2.3144,2.3144,2.3144,2.3144,2.3144,2.3144,2.3144,2.3144,2.3144,2.3144,2.3144,2.3144,2.3144,2.3144,2.3144,2.3144,2.3144,2.3144,2.3613,2.4375,2.4394,2.4414,2.4473,2.4902,2.5078,2.5137,2.5586,2.5742,2.5742,2.5742,2.5742,2.582,2.625,2.668,2.7109,2.7539,2.7969,2.8301,2.8301,2.8301,2.8301,2.8301,2.8301,2.8301,2.8301,2.8301,2.8301,2.8301,2.8301,2.8301,2.8301,2.8301,2.8301,2.8301,2.8301,2.8301,2.8301,2.8301,2.8301,2.8301,2.8652,2.8926,2.8926,2.9316,2.9746,3.0156,3.0215,3.041,3.0859,3.0898,3.0898,3.0898,3.0449,3.0215,3.0215,2.9375,2.8945,2.8945,2.8496,2.8301,2.8301,2.8301,2.8301,2.4982,0.0,0.0,0.0,0.0,0.0,2.9588,2.9238,0.0,0.0,0.0,0.0,0.0,0.0,0.0,0.0,0.0,0.0,0.0,0.0,0.0,0.0,0.0,0.0,0.0,0.0,0.0,0.0,2.3144,2.3144,2.3144,2.3144,2.3144,2.3144,2.3144,2.3144,2.3144,2.3144,2.3144,2.3144,2.3144,2.3144,2.3144,2.3144,2.3144,2.3144,2.3144,2.3281,2.3516,2.3828,2.4336,2.4902,2.5019,2.5273,2.5566,2.5684,2.5742,2.5742,2.5742,2.5937,2.623,2.6348,2.6894,2.75,2.7637,2.7969,2.8301,2.8301,2.8301,2.8301,2.8301,2.8301,2.8301,2.8301,2.8301,2.8301,2.8301,2.8301,2.8301,2.8301,2.8301,2.8301,2.8301,2.8301,2.8301,2.8301,2.8301,2.8301,2.8301,2.8652,2.8926,2.8926,2.959,3.0078,3.0176,3.0508,3.0762,3.0879,3.0898,3.0898,3.0898,3.0762,3.0703,3.0703,2.9844,2.9394,2.9394,2.8652,2.8301,2.8301,2.8301,2.8301,0.0,0.0,0.0,0.0,0.0,0.0,2.9804,2.9534,2.9487,0.0,0.0,0.0,0.0,0.0,0.0,0.0,0.0,0.0,0.0,0.0,0.0,0.0,0.0,0.0,0.0,0.0,0.0,0.0,2.3144,2.3144,2.3144,2.3144,2.3144,2.3144,2.3144,2.3144,2.3144,2.3144,2.3144,2.3144,2.3144,2.3144,2.3144,2.3144,2.3144,2.3144,2.3144,2.3144,2.3184,2.3613,2.4082,2.459,2.5137,2.5391,2.5488,2.5664,2.5742,2.5762,2.5937,2.6172,2.6445,2.6797,2.7266,2.7695,2.7871,2.8105,2.8301,2.8301,2.8301,2.8301,2.8301,2.8301,2.8301,2.8301,2.8301,2.8301,2.8301,2.8301,2.8301,2.8301,2.8301,2.8301,2.8301,2.8301,2.8301,2.8301,2.8301,2.8359,2.8535,2.8926,2.9258,2.9434,3.0078,3.0488,3.0488,3.0742,3.0898,3.0898,3.0898,3.0898,3.0898,3.0898,3.0898,3.0898,3.0195,2.9746,2.957,2.8711,2.8301,2.8301,2.8301,2.8301,0.0,0.0,0.0,0.0,0.0,0.0,2.9804,2.9804,2.9955,0.0,0.0,0.0,0.0,0.0,0.0,0.0,0.0,0.0,0.0,0.0,0.0,0.0,0.0,0.0,0.0,0.0,2.4423,2.3387,2.3125,2.3144,2.3144,2.3144,2.3144,2.3144,2.3144,2.3144,2.3144,2.3144,2.3144,2.3144,2.3144,2.3144,2.3144,2.3144,2.3144,2.3144,2.3144,2.3164,2.3242,2.3691,2.3867,2.3984,2.5195,2.5449,2.5195,2.5586,2.5742,2.5801,2.623,2.6426,2.6582,2.7402,2.7695,2.7812,2.8184,2.8301,2.8301,2.8301,2.8301,2.8301,2.8301,2.8301,2.8301,2.8301,2.8301,2.8301,2.8301,2.8301,2.8301,2.8301,2.834,2.834,2.8301,2.834,2.8359,2.8359,2.8359,2.8516,2.8945,2.9375,2.9785,3.0156,3.0605,3.0898,3.0898,3.0898,3.0898,3.0898,3.0898,3.0898,3.0898,3.0898,3.0898,3.0898,3.043,3.0,2.957,2.8809,2.8418,2.8359,2.8359,2.8359,0.0,0.0,0.0,0.0,0.0,0.0,2.9804,2.9804,2.9955,0.0,0.0,0.0,0.0,0.0,0.0,0.0,0.0,0.0,0.0,0.0,0.0,0.0,0.0,0.0,0.0,0.0,2.5186,2.4488,2.3627,2.3144,2.3144,2.3144,2.3144,2.3144,2.3144,2.3144,2.3144,2.3144,2.3144,2.3144,2.3144,2.3144,2.3144,2.3144,2.3144,2.3144,2.3144,2.334,2.3691,2.4121,2.4297,2.4355,2.4961,2.5371,2.5605,2.5703,2.5742,2.5801,2.623,2.6602,2.6973,2.75,2.7891,2.8184,2.8262,2.8301,2.8301,2.8301,2.8301,2.8301,2.8301,2.8301,2.8301,2.8301,2.8301,2.8301,2.8301,2.8301,2.8301,2.8301,2.8574,2.8691,2.8359,2.8574,2.8789,2.8789,2.8789,2.8945,2.9394,2.9805,3.0098,3.0176,3.0605,3.0898,3.0898,3.0898,3.0898,3.0898,3.0898,3.0898,3.0898,3.0898,3.0898,3.0898,3.043,3.0,2.957,2.9394,2.9141,2.8789,2.8789,2.8789,0.0,0.0,0.0,2.9302,0.0,0.0,0.0,2.9804,2.988,3.0156,0.0,0.0,0.0,0.0,0.0,0.0,0.0,0.0,0.0,0.0,0.0,0.0,0.0,0.0,0.0,0.0,2.5722,2.4079,2.3387,2.3144,2.3144,2.3144,2.3144,2.3144,2.3144,2.3144,2.3144,2.3144,2.3144,2.3144,2.3144,2.3144,2.3144,2.3144,2.3144,2.3144,2.3379,2.3594,2.3848,2.4473,2.4746,2.4785,2.5234,2.5527,2.5762,2.5977,2.5918,2.5859,2.6719,2.7031,2.7129,2.7773,2.8125,2.8301,2.8301,2.8301,2.8301,2.8301,2.8301,2.8301,2.8301,2.8301,2.8301,2.8301,2.8301,2.8301,2.8301,2.8457,2.8613,2.8613,2.9121,2.9355,2.8711,2.8965,2.9238,2.9238,2.9238,2.9394,2.9824,3.0059,3.0293,3.0527,3.0762,3.0898,3.0898,3.0898,3.0898,3.0898,3.0898,3.0898,3.0898,3.0898,3.0898,3.0898,3.0664,3.0449,3.0234,3.0234,2.9883,2.9238,2.9238,2.9238,0.0,0.0,0.0,0.0,0.0,2.9804,0.0,0.0,0.0,2.9804,0.0,0.0,0.0,0.0,0.0,0.0,0.0,0.0,0.0,0.0,0.0,0.0,0.0,0.0,0.0,0.0,2.6151,2.3339,2.3144,2.3144,2.3144,2.3144,2.3144,2.3144,2.3144,2.3144,2.3144,2.3144,2.3144,2.3144,2.3144,2.3144,2.3144,2.3144,2.3144,2.3164,2.3516,2.375,2.3965,2.4648,2.5039,2.5234,2.5605,2.5742,2.5801,2.623,2.6172,2.6035,2.7246,2.7441,2.7266,2.8047,2.8301,2.8301,2.8301,2.8301,2.8301,2.8301,2.8301,2.8301,2.8301,2.8301,2.8301,2.8301,2.8301,2.832,2.8398,2.8672,2.8945,2.9023,2.9668,2.9961,2.918,2.9394,2.9687,2.9687,2.9687,2.9844,3.0273,3.0332,3.0469,3.0859,3.0898,3.0898,3.0898,3.0898,3.0898,3.0898,3.0898,3.0898,3.0898,3.0898,3.0898,3.0898,3.0898,3.0898,3.0898,3.0898,3.0469,2.9687,2.9687,2.9687,0.0,0.0,0.0,0.0,2.9754,0.0,0.0,0.0,2.9804,2.9804,0.0,0.0,0.0,0.0,0.0,0.0,0.0,0.0,0.0,0.0,0.0,0.0,0.0,0.0,0.0,0.0,0.0,2.3339,2.3144,2.3144,2.3144,2.3144,2.3144,2.3144,2.3144,2.3144,2.3144,2.3144,2.3144,2.3144,2.3144,2.3144,2.3144,2.3144,2.3144,2.3144,2.3184,2.3652,2.4355,2.4453,2.4961,2.5664,2.5723,2.5742,2.5801,2.623,2.6367,2.6445,2.7344,2.7637,2.7676,2.8144,2.8301,2.8301,2.8301,2.8301,2.8301,2.8301,2.8301,2.8301,2.8301,2.8301,2.8301,2.8301,2.8301,2.8398,2.8769,2.8887,2.9023,2.9414,2.9883,3.0059,2.957,2.9844,3.0137,3.0137,3.0137,3.0293,3.0762,3.082,3.084,3.0879,3.0898,3.0898,3.0898,3.0898,3.0898,3.0898,3.0898,3.0898,3.0898,3.0898,3.0898,3.0898,3.0898,3.0898,3.0898,3.0898,3.0625,3.0137,3.0137,3.0137,0.0,0.0,0.0,0.0,0.0,0.0,0.0,0.0,2.9804,0.0,0.0,0.0,0.0,0.0,0.0,0.0,0.0,0.0,0.0,0.0,0.0,0.0,0.0,0.0,0.0,0.0,0.0,0.0,0.0,2.3144,2.3144,2.3144,2.3144,2.3144,2.3144,2.3144,2.3144,2.3144,2.3144,2.3144,2.3144,2.3144,2.3144,2.3144,2.3144,2.3164,2.3652,2.4082,2.4453,2.498,2.541,2.5742,2.5742,2.5742,2.5801,2.623,2.6387,2.6504,2.7363,2.7676,2.7734,2.8164,2.8301,2.8301,2.8301,2.8301,2.8301,2.8301,2.8301,2.8301,2.8301,2.8301,2.8301,2.8301,2.8301,2.834,2.8516,2.8945,2.9355,2.9531,3.0117,3.0547,3.0371,3.0488,3.0605,3.0605,3.0605,3.0664,3.0859,3.0898,3.0898,3.0898,3.0898,3.0898,3.0898,3.0898,3.0898,3.0898,3.0898,3.0898,3.0898,3.0898,3.0898,3.0898,3.0898,3.0898,3.0898,3.0898,3.0801,3.0605,3.0605,3.0605,2.7119,0.0,0.0,0.0,0.0,0.0,0.0,0.0,0.0,0.0,0.0,0.0,0.0,0.0,0.0,0.0,0.0,0.0,0.0,0.0,0.0,0.0,0.0,0.0,0.0,0.0,0.0,0.0,2.3378,0.0,2.3144,2.3144,2.3144,2.3144,2.3144,2.3144,2.3144,2.3144,2.3144,2.3144,2.3144,2.3144,2.3144,2.3144,2.3144,2.3184,2.3789,2.4199,2.4473,2.5117,2.5527,2.5742,2.5742,2.5742,2.5801,2.623,2.6465,2.666,2.7402,2.7734,2.7891,2.8203,2.8301,2.8301,2.8301,2.8301,2.8301,2.8301,2.8301,2.8301,2.8301,2.8301,2.832,2.8437,2.8457,2.8535,2.8769,2.9297,2.9785,2.9902,3.0449,3.0898,3.0898,3.0898,3.0898,3.0898,3.0898,3.0898,3.0898,3.0898,3.0898,3.0898,3.0898,3.0898,3.0898,3.0898,3.0898,3.0898,3.0898,3.0898,3.0898,3.0898,3.0898,3.0898,3.0898,3.0898,3.0898,3.0898,3.0898,3.0898,3.0898,3.0898,0.0,0.0,0.0,0.0,0.0,0.0,0.0,0.0,2.9804,0.0,0.0,0.0,0.0,0.0,0.0,0.0,0.0,0.0,0.0,0.0,0.0,0.0,0.0,0.0,0.0,0.0,0.0,2.5654,2.4042,0.0,2.3144,2.3144,2.3144,2.3144,2.3144,2.3144,2.3144,2.3144,2.3144,2.3144,2.3144,2.3144,2.3144,2.3144,2.3144,2.3144,2.3164,2.3652,2.4414,2.4453,2.4961,2.5742,2.5742,2.5742,2.5801,2.623,2.6641,2.7051,2.7519,2.793,2.8281,2.8281,2.8301,2.8301,2.8301,2.8301,2.8301,2.8301,2.8301,2.8301,2.8301,2.8301,2.8398,2.8809,2.8906,2.9121,2.9961,3.0156,3.0312,3.0762,3.0879,3.0898,3.0898,3.0898,3.0898,3.0898,3.0898,3.0898,3.0898,3.0898,3.0898,3.0898,3.0898,3.0898,3.0898,3.0898,3.0898,3.0898,3.0898,3.0898,3.0898,3.0898,3.0898,3.0898,3.0898,3.0898,3.0898,3.0898,3.0898,3.0898,3.0898,3.0898,0.0,0.0,2.8072,2.9001,0.0,0.0,0.0,0.0,0.0,0.0,0.0,0.0,0.0,0.0,0.0,0.0,0.0,0.0,0.0,0.0,0.0,0.0,0.0,0.0,0.0,0.0,0.0,2.4169,2.3378,2.3144,0.0,2.3144,2.3144,2.3144,2.3144,2.3144,2.3144,2.3144,2.3144,2.3144,2.3144,2.3144,2.3144,2.3437,2.3574,2.3594,2.416,2.459,2.4863,2.5176,2.5469,2.5742,2.5742,2.5742,2.5762,2.5898,2.6406,2.7129,2.7832,2.8184,2.8301,2.8301,2.8301,2.8301,2.8301,2.8301,2.8301,2.8301,2.8301,2.8301,2.8301,2.8496,2.875,2.8887,2.9141,2.9434,2.9726,3.0,3.0234,3.041,3.0684,3.0898,3.0898,3.0898,3.0898,3.0898,3.0898,3.0898,3.0898,3.0898,3.0898,3.0898,3.0898,3.0898,3.0898,3.0898,3.0898,3.0898,3.0898,3.0898,3.0898,3.0898,3.0898,3.0898,3.0898,3.0898,3.0898,3.0898,3.0898,3.0898,3.0898,3.0898,2.767,2.7544,0.0,0.0,2.8373,0.0,0.0,0.0,0.0,0.0,0.0,0.0,0.0,0.0,0.0,0.0,0.0,0.0,0.0,2.9804,0.0,0.0,0.0,0.0,0.0,0.0,2.6736,2.4169,2.3466,2.3144,0.0,0.0,2.3144,2.3144,2.3144,2.3144,2.3144,2.3144,2.3144,2.3144,2.3144,2.3223,2.3379,2.3496,2.373,2.4043,2.4434,2.4785,2.5098,2.5371,2.5586,2.5742,2.5742,2.5742,2.5742,2.5742,2.6269,2.7129,2.7988,2.8301,2.8301,2.8301,2.8301,2.8301,2.8301,2.8301,2.8301,2.8301,2.8301,2.832,2.8476,2.8613,2.8809,2.9258,2.9473,2.9648,2.998,3.0254,3.0449,3.0449,3.0684,3.0898,3.0898,3.0898,3.0898,3.0898,3.0898,3.0898,3.0898,3.0898,3.0898,3.0898,3.0898,3.0898,3.0898,3.0898,3.0898,3.0898,3.0898,3.0898,3.0898,3.0898,3.0957,3.1113,3.0957,3.0957,3.1113,3.0957,3.0898,3.0898,3.0898,3.0898]},{"header":{"parameterUnit":"m.s-1","parameterCategory":1,"la1":30.6,"la2":29.2853,"lo1":-89.7004,"lo2":-87.6739,"dy":0.0162,"dx":0.0183,"nx":112,"ny":82,"refTime":"2023-11-04T00:00:00:Z","depth":0,"parameterNumber":3,"parameterNumberName":"V-component_of_WINDS"},"data":[0.0,0.0,0.0,0.0,0.0,0.0,0.0,0.0,0.0,0.0,0.0,0.0,0.0,0.0,0.0,0.0,0.0,0.0,0.0,0.0,0.0,0.0,0.0,0.0,0.0,0.0,0.0,0.0,0.0,0.0,0.0,0.0,0.0,0.0,0.0,0.0,0.0,0.0,0.0,0.0,0.0,0.0,0.0,0.0,0.0,0.0,0.0,0.0,0.0,0.0,0.0,0.0,0.0,0.0,0.0,0.0,0.0,0.0,0.0,0.0,0.0,0.0,0.0,0.0,0.0,0.0,0.0,0.0,0.0,0.0,0.0,0.0,0.0,0.0,0.0,0.0,0.0,0.0,0.0,0.0,0.0,0.0,0.0,0.0,0.0,0.0,0.0,0.0,0.0,0.0,0.0,1.6601,0.3692,-0.8118,-1.703,-1.8969,-1.9135,-1.7795,0.0,0.0,0.0,0.0,0.0,0.0,0.0,0.0,0.0,0.0,0.0,0.0,0.0,0.0,0.0,0.0,0.0,0.0,0.0,0.0,0.0,0.0,0.0,0.0,0.0,0.0,0.0,0.0,0.0,0.0,0.0,0.0,0.0,0.0,0.0,0.0,0.0,0.0,0.0,0.0,0.0,0.0,0.0,0.0,0.0,0.0,0.0,0.0,0.0,0.0,0.0,0.0,0.0,0.0,0.0,0.0,0.0,0.0,0.0,0.0,0.0,0.0,0.0,0.0,0.0,0.0,0.0,0.0,0.0,0.0,0.0,0.0,0.0,0.0,0.0,0.0,0.0,0.0,0.0,0.0,0.0,0.0,0.0,0.0,0.0,0.0,0.0,0.0,0.0,0.0,0.0,0.0,0.0,0.0,0.0,0.0,0.0,0.0,0.0,0.0,0.0,0.0,0.0,0.0,1.8647,0.7948,-0.114,-0.8959,-1.5066,-1.7303,-1.8446,-1.8576,0.0,0.0,0.0,0.0,0.0,0.0,0.0,0.0,0.0,0.0,0.0,0.0,0.0,0.0,0.0,0.0,0.0,0.0,0.0,0.0,0.0,0.0,0.0,0.0,0.0,0.0,0.0,0.0,0.0,0.0,0.0,0.0,0.0,0.0,0.0,0.0,0.0,0.0,0.0,0.0,0.0,0.0,0.0,0.0,0.0,0.0,0.0,0.0,0.0,0.0,0.0,0.0,0.0,0.0,0.0,0.0,0.0,0.0,0.0,0.0,0.0,0.0,0.0,0.0,0.0,0.0,0.0,0.0,0.0,0.0,0.0,0.0,0.0,0.0,0.0,0.0,0.0,0.0,0.0,0.0,0.0,0.0,0.0,0.0,0.0,0.0,0.0,0.0,0.0,0.0,0.0,0.0,0.0,0.0,0.0,0.0,0.0,0.0,0.0,0.0,0.0,0.0,0.0,2.0293,1.5105,0.4785,-0.2278,-0.858,-1.4295,-1.6253,-1.73,-1.7491,-1.2251,0.0,0.0,0.0,0.0,0.0,0.0,0.0,0.0,0.0,0.0,0.0,0.0,0.0,0.0,0.0,0.0,0.0,0.0,0.0,0.0,0.0,0.0,0.0,0.0,0.0,0.0,0.0,0.0,0.0,0.0,0.0,0.0,0.0,0.0,0.0,0.0,0.0,0.0,0.0,0.0,0.0,0.0,0.0,0.0,0.0,0.0,0.0,0.0,0.0,0.0,0.0,0.0,0.0,0.0,0.0,0.0,0.0,0.0,0.0,0.0,0.0,0.0,0.0,0.0,0.0,0.0,0.0,0.0,0.0,0.0,0.0,0.0,0.0,0.0,0.0,0.0,0.0,0.0,0.0,0.0,0.0,0.0,0.0,0.0,0.0,0.0,0.0,0.0,0.0,0.0,0.0,0.0,0.0,0.0,0.0,0.0,0.0,0.0,0.0,0.0,0.0,0.0,1.772,1.2848,0.351,-0.312,-0.8827,-1.3655,-1.5501,-1.6403,-1.6403,-1.3795,0.0,0.0,0.0,0.0,0.0,0.0,0.0,0.0,0.0,0.0,0.0,0.0,0.0,0.0,0.0,0.0,0.0,0.0,0.0,0.0,0.0,0.0,0.0,0.0,0.0,0.0,0.0,0.0,0.0,0.0,0.0,0.0,0.0,0.0,0.0,0.0,0.0,0.0,0.0,0.0,0.0,0.0,0.0,0.0,0.0,0.0,0.0,0.0,0.0,0.0,0.0,0.0,0.0,0.0,0.0,0.0,0.0,0.0,0.0,0.0,0.0,0.0,0.0,0.0,0.0,0.0,0.0,0.0,0.0,0.0,0.0,0.0,0.0,0.0,0.0,0.0,0.0,0.0,0.0,0.0,0.0,0.0,0.0,0.0,0.0,0.0,0.0,0.0,0.0,0.0,0.0,0.0,0.0,0.0,0.0,0.0,0.0,0.0,0.0,0.0,0.0,0.0,1.7707,1.3507,0.3048,-0.5471,-1.1106,-1.2684,-1.5014,-1.6403,-1.6497,-1.6253,0.0,0.0,0.0,0.0,0.0,0.0,0.0,0.0,0.0,0.0,0.0,0.0,0.0,0.0,0.0,0.0,0.0,0.0,0.0,0.0,0.0,0.0,0.0,0.0,0.0,0.0,0.0,0.0,0.0,0.0,0.0,0.0,0.0,0.0,0.0,0.0,0.0,0.0,0.0,0.0,0.0,0.0,0.0,0.0,0.0,0.0,0.0,0.0,0.0,0.0,0.0,0.0,0.0,0.0,0.0,0.0,0.0,0.0,0.0,0.0,0.0,0.0,0.0,0.0,0.0,0.0,0.0,0.0,0.0,0.0,0.0,0.0,0.0,0.0,0.0,0.0,0.0,0.0,0.0,0.0,0.0,0.0,0.0,0.0,0.0,0.0,0.0,0.0,0.0,0.0,0.0,0.0,0.0,0.0,0.0,0.0,0.0,0.0,0.0,0.0,0.0,0.0,1.5973,1.1846,0.0,-0.5962,-1.1167,-1.1987,-1.371,-1.5129,-1.5908,0.0,0.0,0.0,0.0,0.0,0.0,0.0,0.0,0.0,0.0,0.0,0.0,0.0,0.0,0.0,0.0,0.0,0.0,0.0,0.0,0.0,0.0,0.0,0.0,0.0,0.0,0.0,0.0,0.0,0.0,0.0,0.0,0.0,0.0,0.0,0.0,0.0,0.0,0.0,0.0,0.0,0.0,0.0,0.0,0.0,0.0,0.0,0.0,0.0,0.0,0.0,0.0,0.0,0.0,0.0,0.0,0.0,0.0,0.0,0.0,0.0,0.0,0.0,0.0,0.0,0.0,0.0,0.0,0.0,0.0,0.0,0.0,0.0,0.0,0.0,0.0,0.0,0.0,0.0,0.0,0.0,0.0,0.0,0.0,0.0,0.0,0.0,0.0,0.0,0.0,0.0,0.0,0.0,0.0,0.0,0.0,0.0,0.0,0.0,0.0,0.0,0.0,1.6089,1.4788,1.085,0.0,-0.6087,-1.096,-1.1347,-1.3022,-1.447,-1.5531,0.0,0.0,0.0,0.0,0.0,0.0,0.0,0.0,0.0,0.0,0.0,0.0,0.0,0.0,0.0,0.0,0.0,0.0,0.0,0.0,0.0,0.0,0.0,0.0,0.0,0.0,0.0,0.0,0.0,0.0,0.0,0.0,0.0,0.0,0.0,0.0,0.0,0.0,0.0,0.0,0.0,0.0,0.0,0.0,0.0,0.0,0.0,0.0,0.0,0.0,0.0,0.0,0.0,0.0,0.0,0.0,0.0,0.0,0.0,0.0,0.0,0.0,0.0,0.0,0.0,0.0,0.0,0.0,0.0,0.0,0.0,0.0,0.0,0.0,0.0,0.0,0.0,0.0,0.0,0.0,0.0,0.0,0.0,0.0,0.0,0.0,0.0,0.0,0.0,0.0,0.0,0.0,0.0,0.0,0.0,0.0,0.0,0.0,0.0,0.0,0.0,0.0,1.5389,1.454,1.0895,0.2022,-0.6029,-1.0737,-1.0714,-1.3064,-1.4835,0.0,0.0,0.0,0.0,0.0,0.0,0.0,0.0,0.0,0.0,0.0,0.0,0.0,0.0,0.0,0.0,0.0,0.0,0.0,0.0,0.0,0.0,0.0,0.0,0.0,0.0,0.0,0.0,0.0,0.0,0.0,0.0,0.0,0.0,0.0,0.0,0.0,0.0,0.0,0.0,0.0,0.0,0.0,0.0,0.0,0.0,0.0,0.0,0.0,0.0,0.0,0.0,0.0,0.0,0.0,0.0,0.0,0.0,0.0,0.0,0.0,0.0,0.0,0.0,0.0,0.0,0.0,0.0,0.0,0.0,0.0,0.0,0.0,0.0,0.0,0.0,0.0,0.0,0.0,0.0,0.0,0.0,0.0,0.0,0.0,0.0,0.0,0.0,0.0,0.0,0.0,0.0,0.0,0.0,0.0,0.0,0.0,0.0,0.0,0.0,0.0,0.0,0.0,1.4967,1.4332,1.0878,0.2022,-0.4247,-0.841,-0.987,-1.1626,-1.2898,-1.3564,0.0,0.0,0.0,0.0,0.0,0.0,0.0,0.0,0.0,0.0,0.0,0.0,0.0,0.0,0.0,0.0,0.0,0.0,0.0,0.0,0.0,0.0,0.0,0.0,0.0,0.0,0.0,0.0,0.0,0.0,0.0,0.0,0.0,0.0,0.0,0.0,0.0,0.0,0.0,0.0,0.0,0.0,0.0,0.0,0.0,0.0,0.0,0.0,0.0,0.0,0.0,0.0,0.0,0.0,0.0,0.0,0.0,0.0,0.0,0.0,0.0,0.0,0.0,0.0,0.0,0.0,0.0,0.0,0.0,0.0,0.0,0.0,0.0,0.0,0.0,0.0,0.0,0.0,0.0,0.0,0.0,0.0,0.0,0.0,0.0,0.0,0.0,0.0,0.0,0.0,0.0,0.0,0.0,0.0,0.0,0.0,0.0,0.0,0.0,0.0,0.0,0.0,1.4801,1.3867,1.0532,0.2408,-0.334,-0.7359,-0.9151,-1.0814,-1.2209,-1.311,0.0,0.0,0.0,0.0,0.0,0.0,0.0,0.0,0.0,0.0,0.0,0.0,0.0,0.0,0.0,0.0,0.0,0.0,0.0,0.0,0.0,0.0,0.0,0.0,0.0,0.0,0.0,0.0,0.0,0.0,0.0,0.0,0.0,0.0,0.0,0.0,0.0,0.0,0.0,0.0,0.0,0.0,0.0,0.0,0.0,0.0,0.0,0.0,0.0,0.0,0.0,0.0,0.0,0.0,0.0,0.0,0.0,0.0,0.0,0.0,0.0,0.0,0.0,0.0,0.0,0.0,0.0,0.0,0.0,0.0,0.0,0.0,0.0,0.0,0.0,0.0,0.0,0.0,0.0,0.0,0.0,0.0,0.0,0.0,0.0,0.0,0.0,0.0,0.0,0.0,0.0,0.0,0.0,0.0,0.0,0.0,0.0,0.0,0.0,0.0,0.0,0.0,1.4757,1.3192,0.9809,0.2915,-0.2969,-0.703,-0.8567,-1.0545,-1.2307,-1.3627,0.0,0.0,0.0,0.0,0.0,0.0,0.0,0.0,0.0,0.0,0.0,0.0,0.0,0.0,0.0,0.0,0.0,0.0,0.0,0.0,0.0,0.0,0.0,0.0,0.0,0.0,0.0,0.0,0.0,0.0,0.0,0.0,0.0,0.0,0.0,0.0,0.0,0.0,0.0,0.0,0.0,0.0,0.0,0.0,0.0,0.0,0.0,0.0,0.0,0.0,0.0,0.0,0.0,0.0,0.0,0.0,0.0,0.0,0.0,0.0,1.7125,0.0,0.0,0.0,0.0,0.0,0.0,0.0,0.0,0.0,0.0,0.0,0.0,0.0,0.0,0.0,0.0,0.0,0.0,0.0,0.0,0.0,0.0,0.0,0.0,0.0,0.0,0.0,0.0,0.0,0.0,0.0,0.0,0.0,0.0,0.0,0.0,0.0,0.0,0.0,0.0,0.0,1.4757,1.2092,0.838,0.2808,-0.2057,-0.5935,-0.8502,-1.0105,-1.1598,-1.2918,0.0,0.0,0.0,0.0,0.0,0.0,0.0,0.0,0.0,0.0,0.0,0.0,0.0,0.0,0.0,0.0,0.0,0.0,0.0,0.0,0.0,0.0,0.0,0.0,0.0,0.0,0.0,0.0,0.0,0.0,0.0,0.0,0.0,0.0,0.0,0.0,0.0,0.0,0.0,0.0,0.0,0.0,0.0,0.0,0.0,0.0,0.0,0.0,0.0,0.0,0.0,0.0,0.0,0.0,0.0,0.0,0.0,0.0,0.0,0.0,0.0,1.9835,0.0,0.0,0.0,0.0,0.0,0.0,0.0,0.0,0.0,0.0,0.0,0.0,0.0,0.0,0.0,0.0,0.0,0.0,0.0,0.0,0.0,0.0,0.0,0.0,0.0,0.0,0.0,0.0,0.0,0.0,0.0,0.0,0.0,0.0,0.0,0.0,0.0,0.0,0.0,0.0,1.5219,1.1826,0.8239,0.431,-0.074,-0.4875,-0.7572,-0.93,-1.0947,-1.2461,-1.2282,0.0,0.0,0.0,0.0,0.0,0.0,0.0,0.0,0.0,0.0,0.0,0.0,0.0,0.0,0.0,0.0,0.0,0.0,0.0,0.0,0.0,0.0,0.0,0.0,0.0,0.0,0.0,0.0,0.0,0.0,0.0,0.0,0.0,0.0,0.0,0.0,0.0,0.0,0.0,0.0,0.0,0.0,0.0,0.0,0.0,0.0,0.0,0.0,0.0,0.0,0.0,0.0,0.0,0.0,3.0315,3.175,3.1064,3.1456,3.2435,2.7685,2.5785,2.5949,0.0,0.0,0.0,0.0,0.0,0.0,0.0,0.0,0.0,0.0,0.0,0.0,0.0,0.0,0.0,0.0,0.0,0.0,0.0,0.0,0.0,0.0,0.0,0.0,0.0,3.4273,3.4274,0.0,0.0,0.0,0.0,0.0,0.0,0.0,0.0,0.0,0.0,0.0,0.0,1.5849,1.2223,0.8892,0.5997,0.0767,-0.3515,-0.6107,-0.8194,-1.014,-1.2018,-1.2444,-1.2589,0.0,0.0,0.0,0.0,0.0,0.0,0.0,0.0,0.0,0.0,0.0,0.0,0.0,0.0,0.0,0.0,0.0,0.0,0.0,0.0,0.0,0.0,0.0,0.0,0.0,0.0,0.0,0.0,0.0,0.0,0.0,0.0,2.5319,2.3331,0.0,0.0,0.0,0.0,0.0,0.0,0.0,0.0,0.0,0.0,0.0,0.0,0.0,0.0,3.1743,3.3096,3.4121,3.4699,3.5338,3.6032,3.6838,3.6753,3.6811,3.6896,3.5369,0.0,3.0596,2.8876,0.0,0.0,0.0,0.0,0.0,0.0,0.0,0.0,0.0,0.0,0.0,0.0,0.0,0.0,0.0,0.0,0.0,0.0,0.0,0.0,0.0,0.0,3.4793,3.5127,3.539,3.5241,0.0,3.2911,3.205,3.1719,0.0,0.0,0.0,0.0,0.0,0.0,0.0,0.0,1.6325,1.3325,1.0086,0.6137,0.2496,-0.0981,-0.4245,-0.6597,-0.8954,-1.1463,-1.2544,-1.3586,-1.4635,-1.0862,0.0,0.0,0.0,0.0,0.0,0.0,0.0,0.0,0.0,0.0,0.0,0.0,0.0,0.0,0.0,0.0,0.0,0.0,0.0,0.0,0.0,0.0,0.0,0.0,0.0,0.0,0.0,0.0,0.0,2.4995,2.5989,2.3425,2.7198,2.8308,0.0,0.0,0.0,0.0,0.0,0.0,0.0,0.0,0.0,3.3842,3.5351,3.622,3.6501,3.7236,3.7491,3.7362,3.7655,3.8231,3.8917,3.8784,3.9257,3.9982,3.8705,3.7828,3.703,3.3454,3.2726,3.3664,0.0,0.0,0.0,0.0,0.0,3.4075,3.4854,0.0,0.0,0.0,0.0,0.0,0.0,0.0,0.0,0.0,0.0,0.0,0.0,0.0,0.0,3.5781,3.6103,3.6303,3.5715,3.507,3.4339,0.0,3.1952,3.08,3.0111,0.0,0.0,0.0,0.0,0.0,1.6624,1.3854,1.0835,0.7279,0.4048,0.0797,-0.2493,-0.4479,-0.6613,-0.9143,-1.1445,-1.3565,-1.5532,-1.4993,-1.5125,0.0,0.0,0.0,0.0,0.0,0.0,0.0,0.0,0.0,0.0,0.0,0.0,0.0,0.0,0.0,0.0,0.0,0.0,0.0,0.0,0.0,0.0,0.0,0.0,0.0,0.0,0.0,0.0,2.4776,2.6095,2.4177,3.1098,3.3419,0.0,0.0,0.0,0.0,0.0,0.0,3.3983,3.5339,3.6576,3.7559,3.9095,3.9847,3.9756,3.9962,3.9574,3.8774,3.8774,3.9091,3.9679,3.9542,4.0089,4.1124,4.017,4.032,4.092,3.7203,3.6186,3.6903,3.5723,3.581,3.6643,3.6683,3.7059,3.7632,3.8706,3.9095,3.8999,3.8645,0.0,3.7919,3.6112,0.0,0.0,0.0,0.0,3.6464,3.6387,0.0,3.6646,3.6028,3.6485,3.6942,3.6307,3.6099,3.5675,0.0,3.3519,3.2478,3.1523,0.0,0.0,0.0,0.0,2.0793,1.7107,1.4469,1.1778,0.8704,0.5459,0.238,-0.0441,-0.2305,-0.4307,-0.6544,-0.935,-1.2111,-1.4839,-1.6782,-1.9031,-2.171,0.0,0.0,0.0,0.0,0.0,0.0,0.0,0.0,0.0,0.0,0.0,0.0,0.0,0.0,0.0,0.0,0.0,0.0,0.0,0.0,0.0,0.0,0.0,0.0,0.0,0.0,0.0,0.0,0.0,2.6441,3.2767,0.0,0.0,0.0,0.0,3.5968,3.6101,3.6755,3.8111,3.829,3.8986,4.0455,4.0588,4.0607,4.0559,4.0553,4.0158,3.9376,3.9376,3.9376,3.9417,3.9417,3.9458,3.957,4.027,4.0182,3.9526,3.9329,3.9748,4.0384,3.962,3.9335,3.9433,3.9382,3.9863,4.0506,4.0577,4.0577,4.0806,4.2037,4.1962,4.1138,3.9811,3.9089,0.0,0.0,3.7253,3.7441,3.7136,3.7077,3.6851,3.6001,3.6475,3.6901,3.6084,3.5534,3.5402,0.0,3.4542,3.2692,3.1753,0.0,2.7667,2.5135,2.3781,2.1744,1.8101,1.5544,1.3054,1.0264,0.6783,0.3925,0.2242,-0.0309,-0.2509,-0.4183,-0.603,-0.8595,-1.195,-1.3498,-1.6231,-2.0497,-0.6147,0.0,0.0,0.0,0.0,0.0,0.0,0.0,0.0,0.0,0.0,0.0,0.0,0.0,0.0,0.0,0.0,0.0,0.0,0.0,0.0,0.0,0.0,0.0,0.0,0.0,0.0,0.0,0.0,3.3125,3.7501,0.0,0.0,4.0589,4.0602,4.1761,4.1213,4.129,4.236,4.1903,4.1808,4.2335,4.1829,4.1539,4.1508,4.1148,4.087,4.0577,4.0577,4.0577,4.0577,4.0932,4.1075,4.1075,4.136,4.1635,4.1905,4.1935,4.1429,4.0673,4.0926,4.1252,4.1611,4.1832,4.2266,4.2871,4.313,4.3225,4.3113,4.253,4.1791,4.1017,4.022,3.9802,3.9515,3.8726,3.8442,3.7974,3.6273,3.5816,3.5446,3.4072,3.4194,3.4518,3.4229,3.3954,3.3711,3.3556,3.243,3.1289,3.0779,2.8657,2.6464,2.4996,2.3042,2.0794,1.8032,1.5834,1.3362,1.0371,0.8551,0.6581,0.4046,0.295,0.0744,-0.3067,-0.3234,-0.4447,-0.7289,-0.6133,-0.6609,-0.9044,-0.0953,0.3936,0.0,0.0,0.0,0.0,0.0,0.0,0.0,0.0,0.0,0.0,0.0,0.0,0.0,0.0,0.0,0.0,0.0,0.0,0.0,0.0,0.0,0.0,0.0,0.0,0.0,0.0,3.7547,3.9426,4.1645,4.3462,4.4579,4.4102,4.4008,4.4761,4.4154,4.3868,4.4156,4.3587,4.3175,4.2875,4.222,4.1781,4.1606,4.1129,4.0828,4.0643,4.0643,4.0653,4.0645,4.1033,4.1177,4.1217,4.148,4.1764,4.21,4.2625,4.2187,4.1224,4.2176,4.2805,4.3133,4.3277,4.3553,4.3844,4.3933,4.4078,4.3945,4.2645,4.1889,4.1373,4.0555,4.0329,4.0062,3.8878,3.8362,3.767,3.5455,3.4905,3.4477,3.2778,3.2749,3.2984,3.2483,3.2264,3.1945,3.1211,3.082,3.0305,2.9502,2.7489,2.5612,2.4522,2.2349,2.0114,1.8191,1.6178,1.3899,1.1045,1.0133,0.8828,0.6639,0.619,0.4573,0.1244,0.2062,0.1702,-0.0437,0.0926,0.0941,-0.0712,0.416,0.9322,1.4622,0.0,0.0,0.0,0.0,0.0,0.0,0.0,0.0,0.0,0.0,0.0,0.0,0.0,0.0,0.0,0.0,0.0,0.0,0.0,0.0,0.0,0.0,0.0,4.4512,4.4563,4.4587,4.4631,4.4786,4.4923,4.489,4.4739,4.4638,4.4638,4.4638,4.426,4.3404,4.3303,4.2888,4.2008,4.1724,4.1349,4.0801,4.0465,4.0085,3.9626,3.9626,3.9647,3.9639,3.9647,3.964,3.9675,4.0495,4.0387,3.9788,4.1409,4.2121,4.2295,4.3478,4.4002,4.3968,4.3674,4.3563,4.3517,4.3014,4.3052,4.3264,4.2688,4.2584,4.2447,4.1094,4.0703,4.0213,3.7693,3.6993,3.6604,3.4892,3.4471,3.4011,3.226,3.2387,3.2462,3.0989,3.0547,3.0216,2.9547,2.994,2.9792,2.795,2.6517,2.518,2.3712,2.1788,0.0,1.8586,1.6654,1.4661,1.261,1.1458,1.061,1.0069,0.9413,0.8986,0.8888,0.9791,0.9723,0.8361,0.7421,0.6001,0.399,0.937,1.6846,2.6397,0.0,0.0,0.0,0.0,0.0,0.0,0.0,0.0,0.0,0.0,0.0,0.0,0.0,0.0,0.0,0.0,0.0,0.0,0.0,0.0,0.0,0.0,4.4857,4.3357,4.4014,4.4612,4.4578,4.4865,4.5095,4.5188,4.5376,4.5488,4.5557,4.5518,4.5169,4.4343,4.3724,4.2936,4.204,4.1359,4.0915,4.0746,4.0662,4.0612,4.0472,4.0429,4.0414,4.0453,4.0411,4.0436,4.0509,4.1391,4.1625,4.155,4.325,4.3967,4.3958,4.3635,4.3891,4.4448,4.4691,4.4978,4.514,4.4399,4.4225,4.4086,4.2652,4.2222,4.1955,4.0393,3.983,3.9412,3.7463,3.692,3.6367,3.4002,3.3496,3.3112,3.1356,3.0663,3.0284,2.9848,2.9177,2.8398,2.7443,2.7361,2.7267,2.6661,2.5393,2.421,2.3406,0.0,0.0,1.9026,1.7394,1.5961,1.4668,1.4265,1.3778,1.3004,1.3161,1.2546,0.0,1.226,1.3037,1.2606,1.5064,1.6979,1.8222,1.9641,2.23,0.0,0.0,0.0,0.0,0.0,0.0,0.0,0.0,0.0,0.0,0.0,0.0,0.0,0.0,0.0,0.0,0.0,0.0,0.0,0.0,0.0,0.0,4.435,4.526,4.415,4.466,4.5137,4.515,4.5334,4.5449,4.5529,4.5711,4.5725,4.5404,4.5724,4.5218,4.3692,4.3471,4.2801,4.1501,4.0931,4.066,4.0699,4.066,4.0692,4.0791,4.075,4.077,4.081,4.0752,4.077,0.0,4.1712,4.2082,4.2226,4.3604,4.438,0.0,0.0,0.0,0.0,0.0,4.5138,4.5015,4.4238,4.3802,4.338,4.2019,4.1349,4.0831,3.9507,3.8817,3.8215,3.685,3.62,3.5552,3.4036,3.3125,3.2404,3.1385,3.0195,2.9227,2.8907,2.8016,2.7007,2.6034,0.0,0.0,2.5442,2.4537,2.3671,2.3282,2.1876,2.0471,0.0,1.807,1.6903,1.598,1.6159,1.6248,1.5943,1.6548,0.0,0.0,0.0,1.763,1.8179,2.0992,0.0,0.0,0.0,2.634,0.0,0.0,0.0,0.0,3.2843,3.3485,0.0,0.0,0.0,0.0,0.0,0.0,0.0,0.0,0.0,0.0,0.0,0.0,0.0,0.0,0.0,0.0,4.4432,4.558,4.5874,4.5924,4.5903,4.5896,4.5879,4.5888,4.5913,4.592,4.5616,4.489,4.5397,4.4727,4.239,0.0,0.0,0.0,0.0,4.0576,4.0866,4.0615,4.0621,4.0974,4.0882,4.0833,4.0822,4.0838,4.0897,4.1016,4.1914,4.2288,4.2351,4.3312,4.4132,4.4743,4.5182,4.5343,4.5293,4.4892,4.4457,0.0,0.0,0.0,0.0,4.1098,4.0291,3.9513,3.8651,3.7812,3.6996,3.6098,3.5286,3.4574,3.4374,3.3193,3.1975,3.176,3.0405,2.896,2.8293,2.7151,2.606,2.5297,2.4823,2.4476,2.4479,2.3892,2.34,2.3236,2.1823,0.0,1.9804,1.8843,1.7947,1.7113,0.0,0.0,1.8788,1.9603,2.0589,2.1695,2.1972,2.2571,2.379,2.5187,2.598,2.6105,2.7794,2.9232,3.0384,3.2338,3.3751,3.4652,3.4332,3.4739,0.0,0.0,0.0,0.0,0.0,0.0,0.0,0.0,0.0,0.0,0.0,0.0,0.0,0.0,0.0,4.3455,4.4883,4.598,4.6049,4.6041,4.6015,4.5913,4.5879,4.591,4.5887,4.5891,4.5859,4.5685,4.5199,4.439,4.3219,4.2642,0.0,4.073,4.072,4.1093,4.1808,4.1205,4.1289,4.2064,0.0,0.0,4.1108,4.1022,4.1367,4.2148,4.3008,4.3397,4.351,4.5078,4.5389,4.4879,4.4826,4.4853,4.4844,4.4118,4.3807,4.3657,4.2798,4.2382,4.2103,4.1244,4.0363,3.9463,3.8566,3.7683,0.0,3.5903,3.5545,3.5069,3.3668,3.3089,3.2482,3.0897,2.9675,2.8785,2.8432,2.7138,2.5959,2.5646,2.5007,2.4462,2.4303,2.3717,2.3223,2.3212,2.2496,2.1669,2.0906,2.0584,2.0389,2.0179,2.0696,2.1163,2.1381,2.2184,2.2913,2.3466,2.4378,2.4998,2.5208,2.6147,2.6679,2.6657,2.9031,3.0683,3.1566,3.3368,3.4697,3.5615,3.545,3.5535,0.0,0.0,0.0,0.0,0.0,0.0,0.0,0.0,0.0,0.0,0.0,4.248,0.0,0.0,4.4582,4.4721,4.5505,4.6088,4.6014,4.5995,4.6002,4.5898,4.5898,4.5896,4.5898,4.5894,4.5757,4.539,4.4961,4.4362,4.3536,4.2611,4.1855,4.1377,4.1412,4.1432,4.1418,4.1487,4.1578,4.1601,4.1582,4.1587,4.1657,4.2028,4.2453,4.2963,4.3801,4.422,4.4292,4.5572,4.5835,4.5351,4.4876,4.4452,4.4056,4.3665,4.3264,4.2854,4.2385,4.1935,4.1473,4.1045,4.0312,3.942,3.8564,3.763,3.6735,3.584,3.5259,3.4792,3.4356,3.3527,3.2571,3.1634,3.0266,2.9039,2.8525,2.7353,2.6296,2.5817,2.5301,2.4783,2.4282,2.3795,2.3455,2.3455,2.3056,2.2478,2.1694,2.159,2.1558,2.1377,2.1954,2.2557,2.2912,2.3862,2.4501,2.4793,2.5302,2.5584,2.5603,2.6832,2.7468,2.7439,3.0008,3.1504,3.1967,3.3239,3.4125,3.4609,3.4922,3.539,0.0,0.0,0.0,0.0,0.0,0.0,0.0,0.0,4.2228,4.5697,4.5144,4.4315,4.5035,4.5781,4.6209,4.5959,4.5988,4.6008,4.59,4.5891,4.5881,4.5852,4.5891,4.5832,4.5658,4.5765,4.5628,4.5001,4.4742,4.4375,4.3749,4.2819,4.2272,4.2228,4.229,4.2024,4.1431,4.2035,4.2061,4.156,4.2097,4.2354,4.2396,4.3069,4.35,4.3704,4.455,4.4945,4.4993,4.5619,4.5793,4.557,4.4909,4.4122,4.3335,4.3194,4.2696,4.2074,4.1918,4.1396,4.0788,4.0788,4.0226,3.9422,3.8723,3.7724,3.6698,3.5941,3.5072,3.4491,3.497,3.3875,3.2623,3.2471,3.122,2.9777,2.8932,2.7979,2.7081,2.6284,2.5834,2.5438,2.4777,2.4304,2.3976,2.3732,2.3397,2.3,2.2487,2.2402,2.2365,2.2275,2.2859,2.3521,2.4066,2.4894,2.544,2.5587,2.5535,2.5507,2.5582,2.7203,2.8083,2.8083,3.0615,3.1923,3.1988,3.2812,3.3233,3.3282,3.3918,3.4742,3.2721,3.5078,3.7914,3.9987,4.1223,4.224,0.0,0.0,4.6445,4.7916,4.8046,4.769,4.7033,4.7011,4.6816,4.6044,4.5888,4.59,4.5828,4.5813,4.5764,4.5665,4.5774,4.557,4.4742,4.535,4.575,4.5549,4.4782,4.4305,4.4245,4.3442,4.298,4.298,4.2996,4.3342,4.4047,4.3419,4.3479,4.4275,4.3566,4.3255,4.3264,4.3363,4.3823,4.461,4.5409,4.5774,4.5793,4.5879,4.5424,4.4652,4.4575,4.3929,4.3042,4.248,4.2174,4.198,4.121,4.083,4.0726,4.0726,4.0089,3.9311,3.9234,3.8012,3.6647,3.6326,3.5632,3.4802,3.3847,3.3469,3.3051,3.2094,3.171,3.1288,3.0203,2.9361,2.8507,2.7721,2.6964,2.6429,2.6355,2.5711,2.4897,2.3862,2.3397,2.3305,2.3502,2.3523,2.368,2.4148,2.4451,2.474,2.5158,2.5313,2.5447,2.5498,2.5507,2.5516,2.552,2.7199,2.8095,2.8095,3.0598,3.188,3.1914,3.2766,3.319,3.3223,3.3247,3.3751,3.7264,3.8922,0.0,0.0,4.3775,4.4214,4.5176,4.686,4.8265,4.8478,4.8911,4.8684,4.6735,4.7271,4.7406,0.0,4.5471,4.5387,4.513,4.511,4.4878,4.4347,4.4978,4.534,4.514,4.5465,4.562,4.5454,4.4537,4.425,4.4865,4.352,4.3081,4.3782,4.3794,4.3766,4.3674,4.3789,4.3798,4.3763,4.3866,4.3943,4.3929,4.4452,4.4862,4.5248,4.5572,4.5718,4.5736,4.5736,4.5501,4.5156,4.5156,4.49,4.441,4.3153,4.2667,4.255,4.1661,4.1338,4.1244,4.0742,4.0223,3.9656,3.9159,3.8364,3.7414,3.6368,3.5817,3.5362,3.4393,3.4003,3.3627,3.2732,3.2363,3.201,3.1078,3.0613,3.0026,2.8741,2.8227,2.7714,2.6759,2.6319,2.5947,2.5476,2.4475,2.3837,2.3976,2.3996,2.4154,2.4623,2.4904,2.5171,2.5339,2.5348,2.5352,2.5454,2.5428,2.5446,2.5489,2.7162,2.809,2.809,3.0119,3.1131,3.1131,3.1474,3.1647,3.1647,3.1907,3.2261,4.019,0.0,0.0,4.4521,4.5577,4.604,4.5973,4.7637,4.8986,4.8322,4.8755,4.8554,4.636,4.6946,4.7124,4.5268,4.5027,4.493,4.4638,4.4584,4.4395,4.3743,4.4424,4.5048,4.5304,4.5417,4.5343,4.5118,4.444,4.4345,4.5066,4.3833,4.3497,4.4345,4.4382,4.4093,4.3522,4.4116,4.4078,4.3542,4.4192,4.4517,4.4574,4.526,4.5586,4.5586,4.5586,4.5586,4.5586,4.5475,4.5457,4.5438,4.5381,4.5303,4.5188,4.3963,4.3426,4.3174,4.2291,4.1778,4.1417,4.0784,4.0311,3.9848,3.9201,3.8677,3.8026,3.6791,3.6295,3.5995,3.5304,3.4782,3.4315,3.3981,3.34,3.2779,3.2192,3.1898,3.1311,2.9953,2.9659,2.9292,2.8117,2.7567,2.7346,2.7567,2.6025,2.4777,2.4557,2.4394,2.4393,2.4685,2.4994,2.5171,2.5214,2.5214,2.5274,2.539,2.5592,2.5747,2.581,2.744,2.8371,2.8371,2.9807,3.0552,3.0545,3.0434,3.0374,3.0364,3.0696,3.0852,4.0227,0.0,4.2539,4.4062,4.6436,4.7962,4.6271,4.7618,4.8827,4.7598,4.7619,4.7529,4.6462,4.6074,4.5621,4.4738,4.4624,4.4587,4.4624,4.4626,4.458,4.4561,4.4594,4.4606,0.0,4.492,4.4978,4.4638,4.4584,4.4571,4.4599,4.4597,4.4545,4.4612,4.4592,4.4574,4.4537,4.4575,4.4575,4.4575,4.4928,4.5099,4.5099,4.5438,4.5586,4.5586,4.5586,4.5586,4.5568,4.5243,4.5137,4.5055,4.4776,4.465,4.4612,4.4575,4.4218,4.3666,4.2789,4.1759,4.0801,4.0825,4.0259,3.9603,3.9603,3.8977,3.8244,3.7916,3.7292,3.6593,3.6306,3.5634,3.5165,3.5973,3.4945,3.377,3.3733,3.3109,3.2339,3.1494,3.1311,3.1311,3.1237,2.9953,2.9219,2.9989,2.8081,2.6245,2.5458,2.4856,2.4513,2.4493,2.47,2.485,2.4979,2.4991,2.5099,2.5303,2.6082,2.6554,2.6554,2.817,2.9066,2.9066,2.994,3.0402,3.0402,3.015,3.0028,3.0013,2.9834,2.9732,4.0639,4.2539,4.409,4.5818,4.623,4.6319,4.652,4.6783,4.6646,4.5502,4.5925,4.6069,4.4597,4.4688,4.4648,4.3587,4.383,4.4117,4.3918,4.4309,4.4461,4.3929,4.4984,0.0,0.0,0.0,0.0,4.424,4.4204,4.4184,4.4215,4.4184,4.4325,4.4581,4.4599,4.46,4.4571,4.4621,4.4599,4.4624,4.4726,4.4776,4.4776,4.4881,4.4941,4.4943,4.4925,4.4941,4.4943,4.4825,4.4776,4.4776,4.465,4.4599,4.4599,4.4599,4.4331,4.3837,4.3239,4.2786,4.2272,4.1154,4.0879,4.0734,3.96,3.9303,3.9118,3.7968,3.746,3.7071,3.6442,3.6083,3.5936,3.6229,3.5862,3.5459,3.5459,3.4798,3.3927,3.3146,3.2559,3.2045,3.1494,3.0944,3.0687,3.0944,2.8925,2.709,2.6282,2.6134,2.5874,2.5353,2.5968,2.6186,2.5731,2.6147,2.6502,2.656,2.684,2.7048,2.7179,2.8103,2.8713,2.8887,2.9588,2.9946,2.9946,2.9829,3.0099,3.0574,2.9852,3.0074,4.1261,4.3038,4.4381,4.6035,4.5697,4.509,4.5778,4.5589,4.5114,4.4485,4.4595,4.4428,4.331,4.3465,4.3519,4.2767,4.3299,4.3832,4.3931,4.434,4.4597,4.4378,4.5456,4.5934,0.0,0.0,0.0,4.4697,4.4411,4.4243,4.4265,4.3952,4.3943,4.4189,4.4197,4.4229,4.4197,4.4199,4.427,4.4373,4.4373,4.4444,4.4613,4.4607,4.4573,4.4624,4.46,4.4587,4.4605,4.4438,4.4373,4.4373,4.427,4.4213,4.4213,4.4213,4.4035,4.3806,4.3605,4.3287,4.2763,4.1689,4.1398,4.123,4.0148,3.9859,3.968,3.8652,3.8138,3.7808,3.7294,3.6927,3.678,3.7074,3.6707,3.6303,3.6303,3.5642,3.4734,3.3954,3.3366,3.2852,3.2339,3.2265,3.2045,3.1494,3.032,2.9035,2.764,2.7311,2.6931,2.6116,2.6619,2.6802,2.6364,2.6814,2.7111,2.7177,2.7457,2.7689,2.7827,2.8499,2.9066,2.9551,2.9935,3.0281,3.0582,3.049,3.0715,3.1184,3.0469,3.0672,4.1869,4.2694,4.3444,4.4672,4.476,4.4444,4.418,4.4078,4.4154,4.4444,4.3559,4.2739,0.0,0.0,4.2359,4.2359,4.3057,4.3862,4.4628,4.4775,4.5109,0.0,0.0,0.0,0.0,0.0,0.0,4.603,0.0,4.4746,4.4709,4.3975,4.3534,4.3497,4.3497,4.3497,4.3534,4.3608,4.3738,4.4042,4.4042,4.4252,4.4583,4.4545,4.4524,4.4546,4.4552,4.4541,4.4512,4.414,4.3967,4.3943,4.3631,4.3497,4.3497,4.3497,4.3497,4.3566,4.3849,4.3272,4.2359,4.2323,4.1809,4.1222,4.1148,4.0561,3.9937,3.99,3.9313,3.8689,3.8689,3.8138,3.7734,3.8505,3.7514,3.6413,3.6413,3.5752,3.488,3.4137,3.3917,3.3817,3.378,3.378,3.3266,3.1751,3.2192,3.1825,2.9415,2.8448,2.764,2.6833,2.6759,2.6806,2.6934,2.699,2.7084,2.7295,2.8043,2.8512,2.8529,2.9341,3.0132,3.0922,3.0922,3.1318,3.2051,3.1864,3.1808,3.1846,3.1531,3.1421,3.9949,4.1518,4.2837,4.3071,4.3328,4.3433,4.292,4.2595,4.2555,4.3068,4.2448,4.19,0.0,0.0,0.0,4.3167,4.4377,0.0,4.5579,4.6101,0.0,4.5954,0.0,4.7461,4.6835,4.7313,0.0,0.0,4.6397,4.5332,4.4741,4.4524,4.4121,4.3497,4.3497,4.3791,4.438,4.5002,4.5037,4.4515,4.4515,4.4583,4.4638,4.404,4.3749,4.3758,4.3767,4.3771,4.3771,4.3664,4.3631,4.3631,4.3529,4.3497,4.3497,4.3497,4.3497,4.3532,4.3597,4.3453,4.3094,4.2506,4.258,4.2653,4.1479,4.0965,4.0671,4.0084,3.9313,3.8689,3.8689,3.8542,3.8432,3.8652,3.8395,3.8102,3.8102,3.7441,3.678,3.6597,3.533,3.4039,3.3488,3.3379,3.332,3.3193,3.3366,3.2852,3.1017,3.0613,2.9953,2.8558,2.8925,2.8801,2.7653,2.8132,2.8485,2.855,2.9311,2.9826,3.0014,3.0665,3.1162,3.1565,3.137,3.1367,3.1589,3.1555,3.1802,3.2366,3.1728,3.2045,3.8866,4.0397,4.1759,4.1722,4.2174,4.2405,4.1737,4.1462,4.1476,4.206,4.1497,0.0,4.2111,0.0,0.0,0.0,0.0,0.0,4.7416,4.7608,4.7573,0.0,4.7974,0.0,4.7679,4.8047,4.8306,0.0,4.7131,4.6214,4.5772,4.5442,4.5039,4.4562,4.4525,4.4782,4.5223,4.5663,4.5663,4.5223,4.5223,4.5039,4.4671,4.4228,4.3826,4.3497,0.0,4.3497,4.3497,4.3497,4.3497,4.3497,4.3497,4.3497,4.3497,4.3497,4.3497,4.3497,4.3497,4.3497,4.3424,4.2947,4.313,4.3314,4.2433,4.1919,4.1479,4.0671,3.9863,3.9166,3.8799,3.8689,3.8689,3.8689,3.8689,3.8615,3.8248,3.7619,3.6958,3.6367,3.5507,3.4655,3.3963,3.4051,3.4165,3.4047,3.421,3.388,3.2596,3.2155,3.1458,3.021,3.0136,2.9989,2.9439,2.9475,2.9696,3.0026,3.0467,3.0796,3.0923,3.1225,3.1667,3.2144,3.1998,3.2082,3.2449,3.2449,3.2706,3.3109,3.2474,3.2648,3.8222,3.9297,4.0383,4.0272,4.0902,4.1329,4.051,4.0447,4.0713,4.1279,0.0,4.0745,4.2111,4.2947,4.375,4.462,0.0,4.772,4.9377,4.9048,4.8938,4.9673,4.9007,4.8453,4.8453,4.8379,4.8306,4.8306,4.7645,4.7241,4.7131,4.6434,4.5993,4.5883,4.5993,4.5993,4.5883,4.6104,4.6177,4.6067,4.5957,4.5516,4.4851,4.4665,4.4189,4.3497,0.0,0.0,4.3497,4.3497,4.3497,4.3497,4.3497,4.3497,4.3497,4.3497,4.3497,4.3497,4.3497,4.3497,4.3497,4.3497,4.3497,4.3497,4.3497,4.2947,4.2139,4.1479,4.0671,3.9863,3.9056,3.8805,3.8706,3.8596,3.8564,3.8314,3.7619,3.7084,3.636,3.5048,3.5154,3.5289,3.4694,3.5011,3.5101,3.4451,3.4613,3.4621,3.4092,3.3303,3.2449,3.1641,3.0944,3.076,3.1347,3.076,3.065,3.1347,3.1494,3.1568,3.1568,3.1641,3.2045,3.2742,3.2779,3.3109,3.3807,3.3753,3.3726,3.3689,3.3284,3.3105,3.7388,3.8033,3.8624,3.8163,3.9124,3.9802,3.8569,3.9151,0.0,0.0,4.0664,4.0959,4.2372,4.2878,4.3536,4.4892,4.643,0.0,0.0,0.0,5.0438,0.0,0.0,0.0,0.0,0.0,0.0,0.0,0.0,0.0,4.7168,4.6985,4.6617,4.592,4.6544,4.6581,4.592,4.7205,4.7572,4.6911,4.6214,4.5847,4.5663,4.4305,4.3642,4.3497,0.0,0.0,4.3497,4.3497,4.3497,4.3497,4.3497,4.3497,4.3497,4.3497,4.3497,4.3497,4.3497,4.3497,4.3497,4.3497,4.3497,4.3497,4.3497,4.2947,4.2286,4.2139,4.1515,4.0708,3.99,3.9349,3.8862,3.821,3.772,3.7397,3.7255,3.7182,3.6748,3.544,3.53,3.5091,3.431,3.4283,3.4401,3.4588,3.4195,3.4181,3.5074,3.4243,3.3293,3.2485,3.2265,3.1971,3.1421,3.1274,3.1237,3.1384,3.2008,3.2412,3.2412,3.3036,3.344,3.3587,3.3587,3.366,3.3807,3.3465,3.3284,3.3284,3.2858,3.2598,3.5903,3.6624,3.7388,3.7136,3.8237,3.8975,3.7566,0.0,0.0,0.0,3.9958,4.0617,4.2001,4.2655,0.0,4.4479,4.5944,4.7644,0.0,0.0,0.0,0.0,0.0,0.0,0.0,0.0,0.0,0.0,0.0,0.0,4.7754,4.7719,4.7572,4.7168,4.7535,4.7535,4.7168,4.7902,4.8122,4.7719,4.7352,4.6728,4.5883,4.5112,4.4268,4.3497,0.0,0.0,4.3497,4.3497,4.3497,4.3497,4.3497,4.3497,4.3497,4.3497,4.3497,4.3497,4.3497,4.3497,4.3497,4.3497,4.3497,4.3497,4.3497,4.3204,4.2837,4.2433,4.2029,4.1449,4.0372,3.9876,3.9518,3.8829,3.8211,3.7591,3.693,3.6981,3.6837,3.5683,3.5656,3.5676,3.5,3.5098,3.5208,3.4987,3.4867,3.4871,3.5044,3.4601,3.4068,3.3582,3.2567,3.1917,3.1953,3.1827,3.1865,3.2329,3.2893,3.3403,3.3817,3.3807,3.3909,3.4113,3.3881,3.3578,3.3136,3.3166,3.3075,3.2827,3.2332,3.2127,3.4835,3.5467,3.621,3.6373,3.7422,3.8046,3.6738,3.7879,0.0,3.8772,3.9258,4.0157,4.1386,4.2044,4.2699,0.0,4.4907,4.666,4.91,0.0,0.0,0.0,0.0,0.0,0.0,0.0,0.0,0.0,0.0,0.0,4.8364,4.8302,4.8306,4.8306,4.8306,4.8306,4.8306,4.8306,4.8306,4.8306,4.8122,4.7388,4.614,4.581,4.4893,4.3577,0.0,0.0,0.0,4.3577,4.3648,4.3754,4.3754,4.3644,4.3497,4.3497,4.3497,4.3497,4.3497,4.3497,4.3497,4.3497,4.3497,4.3497,4.3497,4.3497,4.3351,4.2589,4.2406,4.2047,4.0634,4.0193,3.9964,3.9258,3.8643,3.7923,3.6913,3.7067,3.7108,3.6276,3.642,3.6594,3.6141,3.642,3.6448,3.5648,3.5705,3.5668,3.5111,3.4686,3.4481,3.4574,3.3057,3.2219,3.2679,3.2505,3.2619,3.326,3.3567,3.4105,3.4914,3.4331,3.4068,3.4231,3.3923,3.334,3.2466,3.2795,3.2695,3.2332,3.2053,3.1901,3.5291,3.4953,3.4515,3.5396,3.6094,3.6474,3.5808,0.0,3.9479,3.8816,3.9252,3.9964,4.0835,4.0642,4.0798,0.0,4.3138,4.4663,4.7588,4.8572,0.0,0.0,0.0,0.0,0.0,0.0,0.0,0.0,0.0,0.0,0.0,4.8397,4.8306,4.8306,4.8306,4.8306,4.8306,4.8306,4.8306,4.8306,4.7572,4.7131,4.6948,4.548,4.4455,4.3818,0.0,0.0,0.0,4.3855,4.4123,4.4599,4.4599,4.4158,4.3497,4.3497,4.3497,4.3497,4.3497,4.3497,4.3497,4.3497,4.3497,4.3497,4.3497,4.3497,4.3391,4.2811,4.2662,4.2366,4.0913,4.02,3.9534,3.8355,3.7963,3.7895,3.7814,3.778,3.7827,3.7686,3.7733,3.7733,3.7686,3.7733,3.7543,3.6763,3.6095,3.5761,3.6167,3.4665,3.3967,3.5114,3.4723,3.4164,3.3563,3.3491,3.3455,3.3562,3.363,3.3949,3.4694,3.4659,3.4304,3.3702,3.3665,3.3241,3.2466,3.2127,3.1915,3.1878,3.2115,3.2252,3.445,3.4593,3.4756,3.5503,3.6011,3.6195,3.6162,0.0,3.905,3.8379,3.9135,4.0031,4.0375,4.0266,4.039,4.134,4.1778,4.2906,4.5281,4.6358,0.0,0.0,0.0,0.0,0.0,0.0,0.0,0.0,0.0,0.0,0.0,4.8282,4.8442,4.8442,4.8331,4.8306,4.8306,4.8306,4.8114,4.7756,4.7429,4.703,4.6517,4.5863,4.5397,4.5112,0.0,0.0,0.0,4.5074,4.4931,4.4709,4.4709,4.4195,4.3497,4.3497,4.3497,4.3497,4.3497,4.3497,4.3497,4.3497,4.3497,4.3497,4.3497,4.3497,4.3463,4.325,4.2957,4.2505,4.1547,4.0652,3.9754,3.8783,3.8565,3.843,3.799,3.7922,3.7922,3.7922,3.7922,3.7922,3.7922,3.7922,3.7821,3.7516,3.7212,3.7068,3.7297,3.6605,3.6322,3.6819,3.5118,3.3795,3.352,3.3755,3.3905,3.3905,3.4128,3.4624,3.5401,3.4977,3.4656,3.4644,3.3952,3.3423,3.3038,3.2703,3.259,3.2758,3.2897,3.2949,3.3711,3.3987,3.4478,3.5265,3.5518,3.5758,0.0,0.0,3.8783,3.8058,3.9073,4.0087,4.0087,4.0087,4.0269,4.0804,4.091,4.1562,4.3641,4.455,4.5508,0.0,0.0,0.0,0.0,0.0,0.0,0.0,0.0,0.0,0.0,4.8096,4.8247,4.8217,4.7904,4.7866,4.812,4.8065,4.7715,4.7088,4.7299,4.7011,4.6219,4.6004,4.5864,0.0,0.0,0.0,0.0,4.5799,4.5623,4.5406,4.5406,4.4782,4.3864,4.3864,4.3681,4.3497,4.3497,4.3497,4.3497,4.3497,4.3391,4.325,4.325,4.3356,4.3463,4.3286,4.2734,4.2021,4.1464,4.0672,3.9952,3.9445,3.9309,3.9174,3.8667,3.8531,3.8531,3.8531,3.8531,3.8531,3.8531,3.8531,3.8464,3.8261,3.8227,3.8159,3.7922,3.7922,3.7922,3.7922,3.5994,3.4641,3.4404,3.4711,3.4919,3.4919,3.5174,3.558,3.6142,3.5614,3.5213,3.507,3.4276,3.374,3.3423,3.3214,3.3214,3.3423,3.3626,3.3829,3.3429,3.3122,3.3038,3.4066,3.4454,3.4707,0.0,3.7102,3.8768,3.8058,3.9073,4.0087,4.0087,4.0087,4.0285,4.0804,4.046,4.0848,4.2936,4.3321,0.0,0.0,0.0,0.0,0.0,0.0,0.0,0.0,0.0,0.0,0.0,4.7786,4.7666,4.7603,4.6838,4.6802,4.7616,4.7474,4.7044,4.6413,4.7088,4.7044,4.6377,4.5552,0.0,0.0,0.0,0.0,0.0,4.5561,4.6032,4.7095,4.7095,4.6104,4.4709,4.4709,4.4195,4.3497,4.3497,4.3497,4.3497,4.3497,4.3142,4.2693,4.2693,4.3105,4.3391,4.2882,4.1853,4.078,4.0254,4.0138,4.0087,4.0054,4.0054,4.0054,4.0054,4.0054,4.0054,4.0054,4.0054,4.0054,4.0054,4.0054,3.9817,3.9073,3.8971,3.8734,3.799,3.7922,3.7922,3.7922,3.7889,3.755,3.6806,3.6785,3.6785,3.6785,3.6785,3.6785,3.6785,3.6785,3.6073,3.4506,3.4472,3.41,3.3423,3.3389,3.3389,3.3423,3.4134,3.4878,3.2461,3.2323,3.2407,3.3218,3.3595,3.4031,3.4881,3.6702,3.8153,3.7922,3.9073,4.0087,4.0087,4.0087,4.0269,4.0886,4.0876,4.1052,0.0,0.0,0.0,0.0,0.0,0.0,0.0,0.0,0.0,0.0,0.0,0.0,0.0,0.0,4.7763,4.7701,4.7357,4.732,4.7603,4.7595,4.6931,4.5765,4.6014,4.5965,4.5765,4.5521,0.0,0.0,0.0,0.0,0.0,4.7275,4.7226,4.7131,4.7131,4.6471,4.5516,4.5516,4.5369,4.5149,4.5149,4.4782,4.4305,4.4305,4.3579,4.2693,4.2693,4.2541,4.2226,4.1603,4.1161,4.078,4.0254,4.0087,4.0087,4.0087,4.0087,4.0087,4.0087,4.0087,4.0087,4.0087,4.0087,4.0087,4.0087,4.0087,3.9986,3.9783,3.9749,3.9648,3.9411,3.9377,3.9377,3.9377,3.9377,3.8903,3.7652,3.755,3.755,3.755,3.755,3.755,3.755,3.755,3.7077,3.6062,3.552,3.5148,3.4912,3.4404,3.4404,3.4912,3.5148,3.5385,3.1566,3.1604,3.1889,3.2486,3.3028,0.0,3.4516,3.6149,3.7543,3.7821,3.8854,3.9767,4.0054,4.0285,4.0508,4.0908,4.1312,0.0,0.0,0.0,0.0,0.0,0.0,0.0,0.0,0.0,0.0,0.0,0.0,0.0,0.0,0.0,4.7437,4.7352,4.7053,4.7021,4.73,4.6965,4.6237,4.5196,4.5425,4.5372,4.5196,0.0,0.0,0.0,0.0,0.0,0.0,4.7879,4.7599,4.7131,4.7462,4.6874,4.5957,4.625,4.6177,4.5847,4.5553,4.515,4.471,4.4126,4.3054,4.1979,4.1768,4.1768,4.1682,4.107,4.092,4.078,4.0254,4.0087,4.0087,4.0087,4.0087,4.0087,4.0087,4.0087,4.0087,4.0087,4.0087,4.0087,4.0087,4.0087,4.0087,4.0087,4.0087,4.0087,4.0087,4.0087,4.0087,4.0087,4.0087,3.9715,3.8802,3.8734,3.8734,3.8734,3.8734,3.8599,3.8328,3.8328,3.7956,3.7212,3.6738,3.6502,3.6502,3.6028,3.6028,3.6502,3.6502,3.6502,0.0,3.1019,3.1442,3.1845,3.2773,3.366,3.3996,3.5493,0.0,3.7753,3.8486,3.9211,3.9986,4.0535,4.0896,4.0839,0.0,0.0,0.0,0.0,0.0,0.0,0.0,0.0,0.0,0.0,0.0,0.0,0.0,0.0,0.0,0.0,4.6853,4.6786,4.6075,4.6041,4.6718,4.5897,4.5177,4.4643,4.5196,4.5142,4.4587,0.0,0.0,0.0,0.0,0.0,0.0,4.7601,4.7325,4.7278,4.7902,4.7278,4.614,4.68,4.658,4.5883,4.5114,4.4885,4.4777,4.3224,4.1952,4.0849,4.0322,4.0896,4.1595,4.1013,4.0874,4.0733,4.0254,4.0087,4.0087,4.0087,4.0087,4.0087,4.0087,4.0087,4.0087,4.0087,4.0087,4.0087,4.0087,4.0087,4.0087,4.0087,4.0087,4.0087,4.0087,4.0087,4.0087,4.0087,4.0087,4.0087,4.0087,4.0087,4.0087,4.0087,4.0087,3.9783,3.9106,3.9073,3.8734,3.799,3.7922,3.7922,3.7922,3.7922,3.7922,3.7922,3.7922,3.7922,3.1755,0.0,3.1394,3.2045,3.3101,3.4121,0.0,3.5901,3.6996,3.7753,3.8486,3.9211,3.9986,4.0535,4.0793,4.0334,0.0,0.0,0.0,0.0,0.0,0.0,0.0,0.0,0.0,0.0,0.0,0.0,0.0,0.0,0.0,0.0,4.7394,4.6819,4.6075,4.5805,4.5974,4.5773,4.5297,4.4587,4.472,4.472,4.4587,0.0,0.0,0.0,0.0,0.0,4.756,4.7299,4.7531,4.7902,4.6874,4.6985,4.7644,4.6739,4.6649,4.6933,4.6247,4.5624,4.491,4.3535,4.2497,4.1712,4.1138,4.0696,4.0466,4.0353,4.0303,4.0254,4.0104,4.0087,4.0087,4.0087,4.0087,4.0087,4.0087,4.0087,4.0087,4.0087,4.0087,4.0087,4.0087,4.0087,4.0087,4.0087,4.0087,4.0087,4.0087,4.0087,4.0087,4.0087,4.0087,4.0087,4.0087,4.0087,4.0087,4.0087,4.0087,3.9986,3.9817,3.9817,3.9478,3.8768,3.8193,3.7922,3.7922,3.7922,3.7922,3.7922,3.7922,3.7922,3.2809,3.2489,3.2434,3.2624,3.3856,3.5117,3.5701,3.643,3.7189,3.7939,3.8687,3.9457,4.0193,4.1115,4.166,0.0,4.2821,0.0,0.0,0.0,0.0,0.0,0.0,0.0,0.0,0.0,0.0,0.0,0.0,0.0,0.0,0.0,4.6718,4.6312,4.5568,4.5365,4.5703,4.5365,4.4993,4.4587,4.4587,4.4587,4.4643,0.0,0.0,0.0,0.0,0.0,4.7802,4.7714,4.7498,4.7094,4.6391,4.632,4.658,4.5929,4.6194,4.6765,4.5988,4.5103,4.4187,4.3494,4.2775,4.2073,4.1409,4.0933,4.0527,4.0189,4.0087,4.0087,4.0087,4.0087,4.0087,4.0087,4.0087,4.0087,4.0087,4.0087,4.0189,4.0527,4.0324,4.0189,4.0527,4.029,4.0087,4.0087,4.0087,4.0087,4.0087,4.0087,4.0087,4.0087,4.0087,4.0087,4.0087,4.0087,4.0087,4.0087,4.0087,4.0087,4.0087,4.0087,3.9884,3.9512,3.9106,3.8903,3.8903,3.8903,3.8903,3.8903,3.8903,3.8903,3.4229,3.4392,3.4357,3.3911,3.5126,3.6505,3.6771,3.7066,3.7494,3.8329,3.904,3.9792,4.0778,4.2101,0.0,0.0,0.0,0.0,0.0,0.0,0.0,0.0,0.0,0.0,0.0,0.0,0.0,0.0,0.0,0.0,0.0,0.0,0.0,4.5534,4.4925,4.4891,4.5534,4.4891,4.4587,4.4587,4.4587,4.4587,4.4643,4.5214,0.0,0.0,0.0,0.0,4.8269,4.8049,4.7205,4.6067,4.5903,4.5435,4.4857,4.4762,4.5204,4.5773,4.5029,4.4166,4.3425,4.3532,4.3098,4.2354,4.1745,4.1373,4.1068,4.0426,4.0155,4.0087,4.0087,4.0087,4.0087,4.0087,4.0087,4.0087,4.0087,4.0087,4.0257,4.0899,4.0595,4.0426,4.0933,4.0595,4.0257,4.0257,4.0155,4.0121,4.0223,4.0155,4.0087,4.0087,4.0087,4.0087,4.0087,4.0087,4.0087,4.0087,4.0087,4.0087,4.0087,4.0087,4.0087,4.0087,4.0087,4.0087,4.0087,4.0087,4.0087,4.0087,4.0087,4.0087,3.6288,3.6996,3.7315,3.6786,3.7526,3.8375,3.8365,3.7966,3.7863,3.9089,3.9403,4.0111,4.2243,4.3227,4.3614,0.0,0.0,0.0,0.0,0.0,0.0,0.0,0.0,0.0,0.0,0.0,0.0,0.0,0.0,0.0,0.0,0.0,0.0,4.479,4.4654,4.4621,4.4756,4.4654,4.4587,4.4587,4.4587,4.4587,4.4643,4.5214,4.5815,0.0,0.0,4.7756,4.8196,4.6838,4.6544,4.669,4.4711,4.4637,4.5517,4.3847,4.3748,4.4314,4.3802,4.3966,4.4415,4.4406,4.3876,4.3234,4.3132,4.2219,4.117,4.1068,4.0561,4.0087,4.0087,4.0087,4.0087,4.0087,4.0087,4.0087,4.0087,4.0087,4.0121,4.0223,4.0663,4.0865,4.0358,4.0696,4.1035,4.1035,4.0493,4.0324,4.0933,4.0493,4.0087,4.0087,4.0087,4.0087,4.0087,4.0087,4.0087,4.0087,4.0087,4.0087,4.0087,4.0087,4.0087,4.0087,4.0087,4.0087,4.0087,4.0087,4.0087,4.0087,4.0087,4.0087,3.6312,3.8043,3.9694,4.0046,4.0363,4.0613,4.0723,4.0235,3.9942,4.0504,4.0851,4.1613,0.0,0.0,4.4845,0.0,0.0,0.0,0.0,0.0,0.0,0.0,0.0,0.0,0.0,0.0,0.0,0.0,0.0,0.0,0.0,0.0,0.0,0.0,4.4587,4.4587,4.4587,4.4587,4.4587,4.4587,4.4587,4.4587,4.4643,4.5545,4.6161,4.646,0.0,4.7779,4.7609,4.6874,4.625,4.5627,4.3899,4.3604,4.4046,4.29,4.2929,4.3602,4.342,4.3944,4.4587,4.4587,4.435,4.3978,4.3538,4.2929,4.2219,4.1441,4.0663,4.0087,4.0087,4.0087,4.0087,4.0087,4.0087,4.0189,4.0595,4.0696,4.0933,4.1745,4.1847,4.1813,4.188,4.1847,4.1779,4.1779,4.1508,4.1407,4.1745,4.1474,4.1271,4.1271,4.0933,4.0696,4.0696,4.0324,4.0087,4.0087,4.0087,4.0087,4.0087,4.0087,4.0087,4.0087,4.0087,4.0087,4.0087,4.0087,4.0087,4.0087,4.0087,4.0087,3.6564,3.8966,4.1393,4.2845,4.2848,4.2561,4.2938,4.2624,4.2276,4.2329,0.0,0.0,0.0,4.5198,0.0,0.0,0.0,0.0,0.0,0.0,0.0,0.0,0.0,0.0,0.0,0.0,0.0,0.0,0.0,0.0,0.0,0.0,0.0,0.0,4.4587,4.4587,4.4587,4.4587,4.4587,4.4587,4.4587,4.4665,4.4852,4.5915,4.646,4.6728,4.7838,4.7976,4.7352,4.6985,4.603,4.4637,4.3427,4.268,4.2251,4.1939,4.2299,4.2996,4.309,4.3775,4.4587,4.4587,4.4587,4.4485,4.3876,4.3572,4.3166,4.2049,4.1068,4.029,4.0121,4.0087,4.0121,4.029,4.0358,4.0561,4.1305,4.1474,4.1779,4.2929,4.2828,4.2692,4.3064,4.2828,4.2557,4.2557,4.2388,4.2354,4.2523,4.2388,4.2286,4.2286,4.1779,4.1407,4.1204,4.0663,4.0257,4.0087,4.0087,4.0087,4.0087,4.0087,4.0087,4.0087,4.0087,4.0087,4.0087,4.0087,4.0087,4.0087,4.0087,4.0087,3.8669,4.043,4.2092,4.4346,4.4305,4.3807,4.4315,4.4371,4.4309,4.4444,0.0,0.0,0.0,4.6061,0.0,0.0,0.0,0.0,0.0,0.0,0.0,0.0,0.0,0.0,0.0,0.0,0.0,0.0,0.0,0.0,0.0,0.0,0.0,0.0,0.0,4.4587,4.4587,4.4587,4.4587,4.4587,4.4587,4.4906,4.5477,4.6112,4.6774,4.7385,4.8035,4.8269,4.8122,4.6617,4.5623,4.4943,4.3343,4.2015,4.1059,4.1001,4.1572,4.2339,4.2354,4.3335,4.4587,4.4587,4.4587,4.4553,4.4519,4.3978,4.3403,4.3301,4.2219,4.0967,4.0257,4.0087,4.0257,4.0967,4.1136,4.1305,4.2049,4.2219,4.2252,4.2354,4.2895,4.3132,4.2489,4.2895,4.3335,4.3335,4.2726,4.2557,4.3234,4.2726,4.2286,4.2286,4.2252,4.1948,4.1271,4.117,4.0832,4.0121,4.0087,4.0087,4.0087,4.0087,4.0087,4.0087,4.0087,4.0087,4.0087,4.0087,4.0087,4.0087,4.0087,4.0087,3.747,4.0039,4.2468,4.3111,4.4167,4.5138,4.5545,4.5677,4.5536,4.5115,4.5405,0.0,0.0,0.0,0.0,0.0,0.0,0.0,0.0,0.0,0.0,0.0,0.0,0.0,0.0,0.0,0.0,0.0,0.0,0.0,0.0,0.0,0.0,0.0,0.0,4.3842,4.3842,4.3403,4.3166,4.3166,4.4536,4.5267,4.5545,4.6589,4.688,4.6663,4.7305,4.6795,4.5503,4.4885,4.3992,4.2923,4.198,4.1105,4.0417,4.0417,4.1172,4.2286,4.2286,4.3301,4.4587,4.4587,4.4587,4.4587,4.4587,4.4384,4.4045,4.3538,4.3031,4.2422,4.1644,4.1102,4.0967,4.1711,4.188,4.2083,4.2828,4.2997,4.3132,4.3606,4.3944,4.4045,4.3775,4.3944,4.4147,4.4147,4.391,4.3809,4.4113,4.3876,4.3707,4.3707,4.3267,4.2692,4.1948,4.188,4.1779,4.1474,4.1035,4.0561,4.0087,4.0527,4.0561,4.0087,4.0087,4.0087,4.0087,4.0087,4.0087,4.0087,4.0087,4.0087,3.7498,4.0216,4.2781,4.2693,4.3987,4.5416,4.6183,4.6585,4.655,4.5688,4.5542,4.5267,4.4466,0.0,0.0,0.0,0.0,0.0,0.0,0.0,0.0,0.0,0.0,0.0,0.0,0.0,0.0,0.0,0.0,0.0,0.0,0.0,0.0,0.0,0.0,0.0,4.3064,4.2557,4.2286,4.2286,4.401,4.4867,4.5117,4.5934,4.6169,4.5869,4.6114,4.5341,4.4007,4.3719,4.2774,4.1464,4.1151,4.0622,4.0121,4.0595,4.1407,4.232,4.2557,4.3504,4.4587,4.4587,4.4587,4.4587,4.4587,4.4587,4.4485,4.3944,4.3606,4.3369,4.3098,4.2286,4.1745,4.2455,4.2658,4.2861,4.3606,4.3775,4.3944,4.4485,4.4587,4.4654,4.4891,4.4925,4.5026,4.5229,4.5263,4.5196,4.4959,4.4925,4.4857,4.4587,4.4113,4.347,4.2726,4.2658,4.2557,4.2286,4.2049,4.1576,4.0798,4.1271,4.1305,4.0798,4.0764,4.0663,4.0426,4.0426,4.0324,4.0087,4.0087,4.0189,3.946,4.1348,4.3021,4.3774,4.3998,4.4414,4.5983,4.7024,4.7418,4.6436,4.5078,4.4177,4.4362,0.0,0.0,0.0,0.0,0.0,0.0,0.0,0.0,0.0,0.0,0.0,0.0,0.0,0.0,0.0,0.0,0.0,0.0,0.0,0.0,0.0,0.0,0.0,4.2286,4.2286,4.2286,4.2286,4.2943,4.3593,4.4067,4.4112,4.4464,4.508,4.4421,4.4201,4.413,4.3306,4.2176,4.0896,4.112,4.073,4.0257,4.1745,4.2286,4.2388,4.3166,4.3944,4.4587,4.4587,4.4587,4.4587,4.4587,4.4587,4.4587,4.4587,4.4012,4.3606,4.4384,4.347,4.2489,4.3267,4.3436,4.3639,4.4418,4.4587,4.4587,4.4587,4.4587,4.4823,4.5568,4.5703,4.594,4.6684,4.6786,4.6515,4.5805,4.5703,4.5432,4.4688,4.4587,4.4282,4.3504,4.3436,4.3098,4.2354,4.3031,4.3098,4.232,4.2286,4.2286,4.2286,4.2286,4.1948,4.1204,4.1204,4.0832,4.0087,4.0087,4.0493,3.9753,4.154,4.3074,4.2189,4.3664,4.5035,4.3981,4.5114,4.6433,0.0,4.5549,4.4624,4.3836,0.0,0.0,0.0,0.0,0.0,0.0,0.0,0.0,0.0,0.0,0.0,0.0,0.0,0.0,0.0,0.0,0.0,0.0,0.0,0.0,0.0,0.0,0.0,4.1542,4.1001,4.073,4.0781,4.1911,4.2819,4.3545,4.3976,4.3961,4.3601,4.3429,4.3022,4.2483,4.1796,4.1345,4.1052,4.0629,4.0595,4.0933,4.1373,4.1847,4.2388,4.3166,4.3944,4.4587,4.4587,4.4587,4.4587,4.4587,4.4587,4.4587,4.4587,4.4418,4.4282,4.4519,4.4248,4.3944,4.4181,4.4215,4.4282,4.4519,4.4587,4.4587,4.4587,4.4587,4.4823,4.5568,4.5263,4.5162,4.5906,4.5568,4.5331,4.5669,4.5703,4.5805,4.6109,4.5669,4.5263,4.506,4.4553,4.4147,4.391,4.4113,4.3639,4.2354,4.2794,4.2828,4.2286,4.2286,4.2185,4.1982,4.1982,4.1847,4.1644,4.1644,4.1745,4.0781,4.2139,4.3314,4.269,4.3754,4.4602,4.3346,0.0,0.0,0.0,0.0,4.4073,0.0,0.0,0.0,0.0,0.0,0.0,0.0,0.0,0.0,0.0,0.0,0.0,0.0,0.0,0.0,0.0,0.0,0.0,0.0,0.0,0.0,0.0,0.0,0.0,4.0764,4.029,4.0087,4.0138,4.0895,4.1538,4.2083,4.2952,4.2914,4.2176,4.195,4.1568,4.1139,4.103,4.1085,4.1204,4.1339,4.1508,4.1711,4.232,4.2625,4.2861,4.3606,4.4181,4.4587,4.4587,4.4587,4.4587,4.4587,4.4587,4.4587,4.4587,4.4587,4.4587,4.4587,4.4587,4.4587,4.4587,4.4587,4.4587,4.4587,4.4587,4.4587,4.4587,4.4587,4.4823,4.5568,4.5331,4.5297,4.6041,4.5737,4.5737,4.6481,4.6312,4.6312,4.6752,4.6143,4.5703,4.5703,4.5026,4.4587,4.4587,4.4587,4.4282,4.3673,4.3809,4.3673,4.32,4.32,4.3064,4.2726,4.2726,4.2591,4.2286,4.2286,4.2455,4.2213,4.2947,4.3681,4.4525,4.4161,4.3689,4.3804,4.3462,4.3707,4.5787,0.0,0.0,0.0,0.0,0.0,0.0,0.0,0.0,0.0,0.0,0.0,0.0,0.0,0.0,0.0,0.0,0.0,0.0,0.0,0.0,0.0,0.0,0.0,0.0,0.0,0.0,4.0087,4.0087,4.0087,0.0,4.0155,4.0155,4.0138,4.1332,4.1518,4.0827,4.0368,4.0188,4.0223,4.0883,4.1256,4.1542,4.2726,4.2861,4.2557,4.3944,4.4012,4.3538,4.4316,4.4587,4.4587,4.4587,4.4587,4.4587,4.4587,4.4587,4.4587,4.4587,4.4587,4.4587,4.4587,4.4587,4.4587,4.4587,4.4587,4.4587,4.4587,4.4587,4.4587,4.4587,4.4587,4.4857,4.5669,4.5737,4.594,4.6684,4.6786,4.7056,4.7834,4.7327,4.6921,4.6989,4.6278,4.5838,4.5906,4.5162,4.4722,4.479,4.479,4.5094,4.5771,4.5026,4.4621,4.4688,4.4621,4.4215,4.3538,4.3538,4.3166,4.2489,4.2489,4.2861,4.3167,4.3351,4.3681,4.4525,4.4762,4.4752,4.4378,4.3354,4.2911,4.442,4.4784,0.0,0.0,0.0,0.0,0.0,0.0,0.0,0.0,0.0,0.0,0.0,0.0,0.0,0.0,0.0,0.0,0.0,0.0,0.0,0.0,0.0,0.0,0.0,0.0,4.0087,4.0087,4.0087,4.0087,0.0,4.0696,4.0663,4.0138,4.0374,4.0474,4.0269,4.0577,4.0822,4.0985,4.094,4.1731,4.2861,4.2016,4.2286,4.32,4.3538,4.3572,4.3538,4.4316,4.4587,4.4587,4.4587,4.4587,4.4587,4.4587,4.4587,4.4587,4.4587,4.4587,4.4587,4.4587,4.4587,4.4587,4.4587,4.4587,4.4587,4.4587,4.4587,4.4587,4.4587,4.4587,4.4993,4.6346,4.6075,4.594,4.6684,4.6786,4.7056,4.7834,4.7767,4.7902,4.8477,4.7361,4.6786,4.7394,4.621,4.5703,4.6278,4.6312,4.638,4.6549,4.5297,4.4857,4.5466,4.4891,4.4485,4.4316,4.4316,4.4248,4.4079,4.4079,4.4181,4.3178,4.3142,4.325,4.371,4.4574,4.5166,4.4505,4.387,4.3579,4.4278,0.0,0.0,0.0,0.0,0.0,0.0,0.0,0.0,0.0,0.0,0.0,0.0,0.0,0.0,0.0,0.0,0.0,0.0,0.0,0.0,0.0,0.0,0.0,0.0,4.0087,4.0087,4.0087,4.0087,4.0087,4.0087,4.0493,4.046,4.0087,4.0087,4.0087,4.0138,4.0417,4.0762,4.117,4.1085,4.1989,4.3335,4.2557,4.2963,4.3978,4.3978,4.3978,4.4045,4.4451,4.4587,4.4587,4.4587,4.4587,4.4587,4.4587,4.4587,4.4587,4.4587,4.4587,4.4587,4.4587,4.4857,4.5026,4.4654,4.4587,4.4688,4.5026,4.4823,4.4688,4.506,4.4823,4.4959,4.6075,4.6244,4.6481,4.7225,4.7327,4.7597,4.8342,4.8443,4.8578,4.8951,4.8003,4.7496,4.7902,4.6887,4.638,4.6786,4.6786,4.6955,4.7327,4.6244,4.5805,4.621,4.5838,4.5466,4.5128,4.5128,4.4925,4.4587,4.4587,4.4587,4.2693,4.2649,4.2777,4.29,4.4104,0.0,4.4354,4.4258,4.435,4.4215,0.0,0.0,0.0,0.0,0.0,0.0,0.0,0.0,0.0,0.0,0.0,0.0,0.0,0.0,0.0,0.0,0.0,0.0,0.0,0.0,0.0,0.0,4.0087,4.0087,4.0087,4.0087,4.0087,4.0087,4.0087,4.0087,4.0087,4.0087,4.0087,4.0087,4.0087,4.0087,4.0087,4.0493,4.1204,4.1068,4.1948,4.3403,4.3267,4.3775,4.4587,4.4587,4.4587,4.4587,4.4587,4.4587,4.4587,4.4587,4.4587,4.4587,4.4587,4.4587,4.4587,4.4587,4.4688,4.479,4.479,4.5331,4.5737,4.5094,4.4959,4.506,4.5432,4.5128,4.4959,4.5568,4.5399,4.5365,4.5974,4.6684,4.7394,4.8003,4.8105,4.8308,4.8917,4.9018,4.9018,4.9018,4.8342,4.797,4.8105,4.7428,4.7022,4.7158,4.7158,4.7462,4.8071,4.7496,4.7158,4.7158,4.6921,4.6481,4.5906,4.5906,4.5568,4.4959,4.4959,4.4959,4.1937,4.2434,4.2979,4.3101,4.3846,4.4388,0.0,0.0,4.3403,0.0,0.0,0.0,0.0,0.0,0.0,0.0,0.0,0.0,0.0,0.0,0.0,0.0,0.0,0.0,0.0,0.0,0.0,0.0,0.0,0.0,0.0,4.0087,4.0087,4.0087,4.0087,4.0087,4.0087,4.0087,4.0087,4.0087,4.0087,4.0087,4.0087,4.0087,4.0087,4.0087,4.0087,4.0493,4.117,4.0493,4.1474,4.3369,4.2692,4.3335,4.4587,4.4587,4.4587,4.4587,4.4587,4.4587,4.4587,4.4587,4.4587,4.4587,4.4587,4.4587,4.4587,4.4587,4.506,4.5568,4.5568,4.6109,4.6616,4.6515,4.6515,4.6177,4.4993,4.5162,4.5602,4.5703,4.665,4.7496,4.7597,4.824,4.8748,4.8849,4.8849,4.8883,4.8984,4.9018,4.9018,4.9018,4.8342,4.8173,4.8815,4.8206,4.8037,4.868,4.8714,4.8748,4.8849,4.8748,4.8714,4.8714,4.7428,4.6752,4.665,4.665,4.6583,4.6515,4.6515,4.6515,4.1279,4.1615,4.2078,4.2569,4.3271,4.3849,4.3999,4.4079,4.3978,0.0,0.0,0.0,0.0,0.0,0.0,0.0,0.0,0.0,0.0,0.0,0.0,0.0,0.0,0.0,0.0,0.0,0.0,0.0,0.0,0.0,4.0087,4.0087,4.0087,4.0087,4.0087,0.0,4.0087,4.0087,4.0087,4.0087,4.0087,4.0087,4.0087,4.0087,4.0087,4.0087,4.0087,4.073,4.1745,4.1001,4.2049,4.3978,4.3234,4.3606,4.4587,4.4587,4.4587,4.4587,4.4587,4.4587,4.4587,4.4587,4.4587,4.4654,4.5094,4.5196,4.5297,4.5703,4.6075,4.6312,4.6312,4.6853,4.7327,4.6887,4.7124,4.7124,4.6041,4.6075,4.6312,4.6312,4.7192,4.7936,4.7936,4.8511,4.9018,4.9018,4.9018,4.9018,4.9018,4.9018,4.9018,4.9018,4.8714,4.8646,4.8984,4.8714,4.8646,4.8984,4.9018,4.9018,4.9018,4.9018,4.9018,4.9018,4.8376,4.7834,4.7428,4.7428,4.7192,4.6786,4.6786,4.6786,4.0689,4.0644,4.0807,4.1513,4.2143,4.2769,0.0,0.0,0.0,0.0,0.0,0.0,0.0,0.0,0.0,0.0,0.0,0.0,0.0,0.0,0.0,0.0,0.0,0.0,0.0,0.0,0.0,0.0,0.0,0.0,4.0087,4.0087,4.0087,4.0087,4.0087,4.0087,4.0087,4.0087,4.0087,4.0087,4.0087,4.0087,4.0087,4.0087,4.0087,4.0087,4.029,4.1102,4.2219,4.1508,4.2422,4.4215,4.3436,4.3741,4.4587,4.4587,4.4587,4.4587,4.4587,4.4587,4.4587,4.4587,4.4722,4.4959,4.5534,4.5838,4.6109,4.665,4.6921,4.709,4.709,4.7631,4.8037,4.7496,4.78,4.8003,4.7259,4.709,4.7124,4.7327,4.78,4.8206,4.8206,4.8646,4.9018,4.9018,4.9018,4.9018,4.9018,4.9018,4.9018,4.9018,4.9018,4.9086,4.9255,4.9289,4.9357,4.956,4.956,4.956,4.956,4.939,4.9289,4.9289,4.9086,4.8748,4.8206,4.8206,4.7902,4.7361,4.7361,4.7361,4.0154,3.9558,3.9193,4.0007,4.0131,4.049,0.0,0.0,0.0,0.0,0.0,0.0,0.0,0.0,0.0,0.0,0.0,0.0,0.0,0.0,0.0,0.0,0.0,0.0,0.0,0.0,0.0,0.0,0.0,0.0,4.0087,4.0087,4.0087,4.0087,4.0087,4.0087,4.0087,4.0087,4.0087,4.0087,4.0087,4.0087,4.0087,4.0087,4.0087,4.0121,4.0832,4.1576,4.2219,4.1508,4.2117,4.3403,4.2658,4.3267,4.4587,4.4587,4.4587,4.4587,4.4587,4.4587,4.4587,4.4587,4.506,4.5669,4.5703,4.6177,4.6752,4.6786,4.7293,4.7868,4.7868,4.8409,4.8951,4.8883,4.8917,4.8748,4.8003,4.7868,4.8071,4.8748,4.8917,4.8951,4.8951,4.8984,4.9018,4.9018,4.9018,4.9018,4.9018,4.9018,4.9018,4.9018,4.9018,4.9289,4.9965,5.0033,5.0338,5.1048,5.1116,5.1116,5.1116,5.0405,5.0033,5.0033,4.9357,4.8984,4.8951,4.8951,4.8917,4.8883,4.8883,4.8883,3.9373,3.9156,3.8964,3.9235,3.9333,3.951,4.0577,4.1802,0.0,0.0,0.0,0.0,0.0,0.0,0.0,0.0,0.0,0.0,0.0,0.0,0.0,0.0,0.0,0.0,0.0,0.0,0.0,0.0,0.0,0.0,4.0087,4.0087,4.0087,4.0087,4.0087,4.0087,4.0087,4.0087,4.0087,4.0087,4.0087,4.0087,4.0087,4.0087,4.0358,4.0832,4.1102,4.161,4.2286,4.2016,4.2794,4.4147,4.3876,4.4079,4.4587,4.4587,4.4587,4.4587,4.4587,4.4587,4.4587,4.4587,4.5094,4.5805,4.6244,4.6921,4.7597,4.8071,4.8409,4.8612,4.8612,4.8815,4.9018,4.9018,4.9018,4.8951,4.868,4.8612,4.868,4.8951,4.9018,4.9018,4.9018,4.9018,4.9018,4.9018,4.9018,4.9018,4.9018,4.9018,4.9018,4.9018,4.9424,4.9796,5.0067,5.0541,5.0913,5.1183,5.1217,5.1217,5.1217,5.0947,5.0811,5.0811,5.0067,4.9458,4.9018,4.9018,4.9018,4.9018,4.9018,4.9018,3.8553,3.8329,3.8116,3.813,3.8146,3.8308,3.9057,0.0,0.0,0.0,0.0,0.0,0.0,0.0,0.0,0.0,0.0,0.0,0.0,0.0,0.0,0.0,0.0,0.0,0.0,0.0,0.0,0.0,0.0,0.0,4.0087,4.0087,4.0087,4.0087,4.0087,4.0087,4.0087,4.0087,4.0087,4.0087,4.0087,4.0087,4.0087,4.0087,4.0358,4.0832,4.0832,4.1373,4.2286,4.2286,4.2895,4.3842,4.4079,4.4181,4.4215,4.4485,4.4587,4.4587,4.4587,4.4587,4.4621,4.4857,4.5466,4.621,4.6955,4.7699,4.8376,4.8849,4.9018,4.9018,4.9018,4.9018,4.9018,4.9018,4.9018,4.9018,4.9018,4.9018,4.9018,4.9018,4.9018,4.9018,4.9018,4.9018,4.9018,4.9018,4.9018,4.9018,4.9018,4.9221,4.9357,4.9357,5.0033,5.0574,5.0811,5.1285,5.1691,5.1961,5.1995,5.1995,5.1995,5.1725,5.1589,5.1589,5.0608,4.9864,4.9357,4.912,4.9018,4.9018,4.9018,4.9018,0.0,0.0,0.0,0.0,3.6557,3.6682,3.7432,0.0,0.0,0.0,0.0,0.0,0.0,0.0,0.0,0.0,0.0,0.0,0.0,0.0,0.0,0.0,0.0,0.0,0.0,0.0,0.0,0.0,0.0,4.0087,4.0087,4.0087,4.0087,4.0087,4.0087,4.0087,4.0087,4.0087,4.0087,4.0087,4.0087,4.0087,4.0087,4.0087,4.0087,4.0087,4.0087,4.0899,4.2219,4.2252,4.2286,4.2388,4.3132,4.3436,4.3538,4.4316,4.4587,4.4587,4.4587,4.4587,4.4722,4.5466,4.621,4.6955,4.7699,4.8443,4.9018,4.9018,4.9018,4.9018,4.9018,4.9018,4.9018,4.9018,4.9018,4.9018,4.9018,4.9018,4.9018,4.9018,4.9018,4.9018,4.9018,4.9018,4.9018,4.9018,4.9018,4.9018,4.9018,4.9627,5.0101,5.0101,5.0777,5.1522,5.2232,5.2334,5.2672,5.345,5.3518,5.3518,5.3518,5.2739,5.2334,5.2334,5.0879,5.0135,5.0135,4.9357,4.9018,4.9018,4.9018,4.9018,3.6864,0.0,0.0,0.0,0.0,0.0,3.6054,3.7088,0.0,0.0,0.0,0.0,0.0,0.0,0.0,0.0,0.0,0.0,0.0,0.0,0.0,0.0,0.0,0.0,0.0,0.0,0.0,0.0,4.0087,4.0087,4.0087,4.0087,4.0087,4.0087,4.0087,4.0087,4.0087,4.0087,4.0087,4.0087,4.0087,4.0087,4.0087,4.0087,4.0087,4.0087,4.0087,4.0324,4.073,4.1271,4.2151,4.3132,4.3335,4.3775,4.4282,4.4485,4.4587,4.4587,4.4587,4.4925,4.5432,4.5635,4.6583,4.7631,4.7868,4.8443,4.9018,4.9018,4.9018,4.9018,4.9018,4.9018,4.9018,4.9018,4.9018,4.9018,4.9018,4.9018,4.9018,4.9018,4.9018,4.9018,4.9018,4.9018,4.9018,4.9018,4.9018,4.9018,4.9018,4.9627,5.0101,5.0101,5.1251,5.2097,5.2266,5.2841,5.3281,5.3484,5.3518,5.3518,5.3518,5.3281,5.3179,5.3179,5.1691,5.0913,5.0913,4.9627,4.9018,4.9018,4.9018,4.9018,0.0,0.0,0.0,0.0,0.0,0.0,3.5519,3.6148,3.674,0.0,0.0,0.0,0.0,0.0,0.0,0.0,0.0,0.0,0.0,0.0,0.0,0.0,0.0,0.0,0.0,0.0,0.0,0.0,4.0087,4.0087,4.0087,4.0087,4.0087,4.0087,4.0087,4.0087,4.0087,4.0087,4.0087,4.0087,4.0087,4.0087,4.0087,4.0087,4.0087,4.0087,4.0087,4.0087,4.0155,4.0899,4.1711,4.2591,4.3538,4.3978,4.4147,4.4451,4.4587,4.4621,4.4925,4.5331,4.5805,4.6413,4.7225,4.797,4.8274,4.868,4.9018,4.9018,4.9018,4.9018,4.9018,4.9018,4.9018,4.9018,4.9018,4.9018,4.9018,4.9018,4.9018,4.9018,4.9018,4.9018,4.9018,4.9018,4.9018,4.9018,4.9018,4.912,4.9424,5.0101,5.0676,5.098,5.2097,5.2807,5.2807,5.3247,5.3518,5.3518,5.3518,5.3518,5.3518,5.3518,5.3518,5.3518,5.23,5.1522,5.1217,4.9729,4.9018,4.9018,4.9018,4.9018,0.0,0.0,0.0,0.0,0.0,0.0,3.5519,3.5519,3.5699,0.0,0.0,0.0,0.0,0.0,0.0,0.0,0.0,0.0,0.0,0.0,0.0,0.0,0.0,0.0,0.0,0.0,3.9276,3.9901,4.0054,4.0087,4.0087,4.0087,4.0087,4.0087,4.0087,4.0087,4.0087,4.0087,4.0087,4.0087,4.0087,4.0087,4.0087,4.0087,4.0087,4.0087,4.0087,4.0121,4.0257,4.1035,4.1339,4.1542,4.3639,4.4079,4.3639,4.4316,4.4587,4.4688,4.5432,4.5771,4.6041,4.7462,4.797,4.8173,4.8815,4.9018,4.9018,4.9018,4.9018,4.9018,4.9018,4.9018,4.9018,4.9018,4.9018,4.9018,4.9018,4.9018,4.9018,4.9018,4.9086,4.9086,4.9018,4.9086,4.912,4.912,4.912,4.939,5.0135,5.0879,5.1589,5.2232,5.301,5.3518,5.3518,5.3518,5.3518,5.3518,5.3518,5.3518,5.3518,5.3518,5.3518,5.3518,5.2706,5.1961,5.1217,4.9898,4.9221,4.912,4.912,4.912,0.0,0.0,0.0,0.0,0.0,0.0,3.5519,3.5519,3.5699,0.0,0.0,0.0,0.0,0.0,0.0,0.0,0.0,0.0,0.0,0.0,0.0,0.0,0.0,0.0,0.0,0.0,3.9534,3.9189,3.9714,4.0087,4.0087,4.0087,4.0087,4.0087,4.0087,4.0087,4.0087,4.0087,4.0087,4.0087,4.0087,4.0087,4.0087,4.0087,4.0087,4.0087,4.0087,4.0426,4.1035,4.1779,4.2083,4.2185,4.3234,4.3944,4.435,4.4519,4.4587,4.4688,4.5432,4.6075,4.6718,4.7631,4.8308,4.8815,4.8951,4.9018,4.9018,4.9018,4.9018,4.9018,4.9018,4.9018,4.9018,4.9018,4.9018,4.9018,4.9018,4.9018,4.9018,4.9018,4.9492,4.9695,4.912,4.9492,4.9864,4.9864,4.9864,5.0135,5.0913,5.1623,5.2131,5.2266,5.301,5.3518,5.3518,5.3518,5.3518,5.3518,5.3518,5.3518,5.3518,5.3518,5.3518,5.3518,5.2706,5.1961,5.1217,5.0913,5.0473,4.9864,4.9864,4.9864,0.0,0.0,0.0,3.4921,0.0,0.0,0.0,3.5519,3.5609,3.5938,0.0,0.0,0.0,0.0,0.0,0.0,0.0,0.0,0.0,0.0,0.0,0.0,0.0,0.0,0.0,0.0,3.942,3.9487,3.9901,4.0087,4.0087,4.0087,4.0087,4.0087,4.0087,4.0087,4.0087,4.0087,4.0087,4.0087,4.0087,4.0087,4.0087,4.0087,4.0087,4.0087,4.0493,4.0865,4.1305,4.2388,4.2861,4.2929,4.3707,4.4215,4.4621,4.4993,4.4891,4.479,4.6278,4.6819,4.6989,4.8105,4.8714,4.9018,4.9018,4.9018,4.9018,4.9018,4.9018,4.9018,4.9018,4.9018,4.9018,4.9018,4.9018,4.9018,4.9018,4.9289,4.956,4.956,5.0439,5.0845,4.9729,5.0168,5.0642,5.0642,5.0642,5.0913,5.1657,5.2063,5.2469,5.2875,5.3281,5.3518,5.3518,5.3518,5.3518,5.3518,5.3518,5.3518,5.3518,5.3518,5.3518,5.3518,5.3112,5.2739,5.2367,5.2367,5.1758,5.0642,5.0642,5.0642,0.0,0.0,0.0,0.0,0.0,3.5519,0.0,0.0,0.0,3.5519,0.0,0.0,0.0,0.0,0.0,0.0,0.0,0.0,0.0,0.0,0.0,0.0,0.0,0.0,0.0,0.0,3.9137,4.002,4.0087,4.0087,4.0087,4.0087,4.0087,4.0087,4.0087,4.0087,4.0087,4.0087,4.0087,4.0087,4.0087,4.0087,4.0087,4.0087,4.0087,4.0121,4.073,4.1136,4.1508,4.2692,4.3369,4.3707,4.435,4.4587,4.4688,4.5432,4.5331,4.5094,4.7192,4.753,4.7225,4.8578,4.9018,4.9018,4.9018,4.9018,4.9018,4.9018,4.9018,4.9018,4.9018,4.9018,4.9018,4.9018,4.9018,4.9052,4.9187,4.9661,5.0135,5.027,5.1386,5.1894,5.0541,5.0913,5.142,5.142,5.142,5.1691,5.2435,5.2536,5.2773,5.345,5.3518,5.3518,5.3518,5.3518,5.3518,5.3518,5.3518,5.3518,5.3518,5.3518,5.3518,5.3518,5.3518,5.3518,5.3518,5.3518,5.2773,5.142,5.142,5.142,0.0,0.0,0.0,0.0,3.5459,0.0,0.0,0.0,3.5519,3.5519,0.0,0.0,0.0,0.0,0.0,0.0,0.0,0.0,0.0,0.0,0.0,0.0,0.0,0.0,0.0,0.0,0.0,4.002,4.0087,4.0087,4.0087,4.0087,4.0087,4.0087,4.0087,4.0087,4.0087,4.0087,4.0087,4.0087,4.0087,4.0087,4.0087,4.0087,4.0087,4.0087,4.0155,4.0967,4.2185,4.2354,4.3234,4.4451,4.4553,4.4587,4.4688,4.5432,4.5669,4.5805,4.7361,4.7868,4.7936,4.8748,4.9018,4.9018,4.9018,4.9018,4.9018,4.9018,4.9018,4.9018,4.9018,4.9018,4.9018,4.9018,4.9018,4.9187,4.983,5.0033,5.027,5.0947,5.1758,5.2063,5.1217,5.1691,5.2198,5.2198,5.2198,5.2469,5.3281,5.3382,5.3416,5.3484,5.3518,5.3518,5.3518,5.3518,5.3518,5.3518,5.3518,5.3518,5.3518,5.3518,5.3518,5.3518,5.3518,5.3518,5.3518,5.3518,5.3044,5.2198,5.2198,5.2198,0.0,0.0,0.0,0.0,0.0,0.0,0.0,0.0,3.5519,0.0,0.0,0.0,0.0,0.0,0.0,0.0,0.0,0.0,0.0,0.0,0.0,0.0,0.0,0.0,0.0,0.0,0.0,0.0,0.0,4.0087,4.0087,4.0087,4.0087,4.0087,4.0087,4.0087,4.0087,4.0087,4.0087,4.0087,4.0087,4.0087,4.0087,4.0087,4.0087,4.0121,4.0967,4.1711,4.2354,4.3267,4.4012,4.4587,4.4587,4.4587,4.4688,4.5432,4.5703,4.5906,4.7394,4.7936,4.8037,4.8781,4.9018,4.9018,4.9018,4.9018,4.9018,4.9018,4.9018,4.9018,4.9018,4.9018,4.9018,4.9018,4.9018,4.9086,4.939,5.0135,5.0845,5.115,5.2164,5.2909,5.2604,5.2807,5.301,5.301,5.301,5.3112,5.345,5.3518,5.3518,5.3518,5.3518,5.3518,5.3518,5.3518,5.3518,5.3518,5.3518,5.3518,5.3518,5.3518,5.3518,5.3518,5.3518,5.3518,5.3518,5.3518,5.3348,5.301,5.301,5.301,3.5025,0.0,0.0,0.0,0.0,0.0,0.0,0.0,0.0,0.0,0.0,0.0,0.0,0.0,0.0,0.0,0.0,0.0,0.0,0.0,0.0,0.0,0.0,0.0,0.0,0.0,0.0,0.0,4.0087,0.0,4.0087,4.0087,4.0087,4.0087,4.0087,4.0087,4.0087,4.0087,4.0087,4.0087,4.0087,4.0087,4.0087,4.0087,4.0087,4.0155,4.1204,4.1914,4.2388,4.3504,4.4215,4.4587,4.4587,4.4587,4.4688,4.5432,4.5838,4.6177,4.7462,4.8037,4.8308,4.8849,4.9018,4.9018,4.9018,4.9018,4.9018,4.9018,4.9018,4.9018,4.9018,4.9018,4.9052,4.9255,4.9289,4.9424,4.983,5.0744,5.1589,5.1792,5.2739,5.3518,5.3518,5.3518,5.3518,5.3518,5.3518,5.3518,5.3518,5.3518,5.3518,5.3518,5.3518,5.3518,5.3518,5.3518,5.3518,5.3518,5.3518,5.3518,5.3518,5.3518,5.3518,5.3518,5.3518,5.3518,5.3518,5.3518,5.3518,5.3518,5.3518,5.3518,0.0,0.0,0.0,0.0,0.0,0.0,0.0,0.0,3.5519,0.0,0.0,0.0,0.0,0.0,0.0,0.0,0.0,0.0,0.0,0.0,0.0,0.0,0.0,0.0,0.0,0.0,0.0,3.9884,4.0012,0.0,4.0087,4.0087,4.0087,4.0087,4.0087,4.0087,4.0087,4.0087,4.0087,4.0087,4.0087,4.0087,4.0087,4.0087,4.0087,4.0087,4.0121,4.0967,4.2286,4.2354,4.3234,4.4587,4.4587,4.4587,4.4688,4.5432,4.6143,4.6853,4.7665,4.8376,4.8984,4.8984,4.9018,4.9018,4.9018,4.9018,4.9018,4.9018,4.9018,4.9018,4.9018,4.9018,4.9187,4.9898,5.0067,5.0439,5.1894,5.2232,5.2503,5.3281,5.3484,5.3518,5.3518,5.3518,5.3518,5.3518,5.3518,5.3518,5.3518,5.3518,5.3518,5.3518,5.3518,5.3518,5.3518,5.3518,5.3518,5.3518,5.3518,5.3518,5.3518,5.3518,5.3518,5.3518,5.3518,5.3518,5.3518,5.3518,5.3518,5.3518,5.3518,5.3518,0.0,0.0,3.3455,3.4562,0.0,0.0,0.0,0.0,0.0,0.0,0.0,0.0,0.0,0.0,0.0,0.0,0.0,0.0,0.0,0.0,0.0,0.0,0.0,0.0,0.0,0.0,0.0,4.0027,4.0087,4.0087,0.0,4.0087,4.0087,4.0087,4.0087,4.0087,4.0087,4.0087,4.0087,4.0087,4.0087,4.0087,4.0087,4.0595,4.0832,4.0865,4.1847,4.2591,4.3064,4.3606,4.4113,4.4587,4.4587,4.4587,4.4621,4.4857,4.5737,4.6989,4.8206,4.8815,4.9018,4.9018,4.9018,4.9018,4.9018,4.9018,4.9018,4.9018,4.9018,4.9018,4.9018,4.9357,4.9796,5.0033,5.0473,5.098,5.1488,5.1961,5.2367,5.2672,5.3145,5.3518,5.3518,5.3518,5.3518,5.3518,5.3518,5.3518,5.3518,5.3518,5.3518,5.3518,5.3518,5.3518,5.3518,5.3518,5.3518,5.3518,5.3518,5.3518,5.3518,5.3518,5.3518,5.3518,5.3518,5.3518,5.3518,5.3518,5.3518,5.3518,5.3518,5.3518,3.2976,3.2826,0.0,0.0,3.3814,0.0,0.0,0.0,0.0,0.0,0.0,0.0,0.0,0.0,0.0,0.0,0.0,0.0,0.0,3.5519,0.0,0.0,0.0,0.0,0.0,0.0,3.9638,4.0027,4.0036,4.0087,0.0,0.0,4.0087,4.0087,4.0087,4.0087,4.0087,4.0087,4.0087,4.0087,4.0087,4.0223,4.0493,4.0696,4.1102,4.1644,4.232,4.2929,4.347,4.3944,4.4316,4.4587,4.4587,4.4587,4.4587,4.4587,4.55,4.6989,4.8477,4.9018,4.9018,4.9018,4.9018,4.9018,4.9018,4.9018,4.9018,4.9018,4.9018,4.9052,4.9323,4.956,4.9898,5.0676,5.1048,5.1352,5.1928,5.2401,5.2739,5.2739,5.3145,5.3518,5.3518,5.3518,5.3518,5.3518,5.3518,5.3518,5.3518,5.3518,5.3518,5.3518,5.3518,5.3518,5.3518,5.3518,5.3518,5.3518,5.3518,5.3518,5.3518,5.3518,5.3619,5.389,5.3619,5.3619,5.389,5.3619,5.3518,5.3518,5.3518,5.3518]}]]